Date StartTime U_cm/s V_cm/s W_cm/s Ustd_cm/s Vstd_cm/s Wstd_cm/s Uvar_(cm/s)^2 Vvar_(cm/s)^2 Wvar_(cm/s)^2 KE_(m/s)^2 TurbulentKE_(m/s)^2 HorizWindSpeed_cm/s FrictionSpeec_cm/s DragCoef SpeedOfSound_m/s SonicTemperature_C Pressure_mb 
12/10/2013  00:00:00      -17.210        1.720       -2.533       22.807       10.757       10.718      520.166      115.704      114.881        0.053        0.038       17.296       12.527        0.525      324.418      -11.971      872.444
12/10/2013  00:01:00      -21.969       -4.517       -2.247       23.553       11.028       14.124      554.747      121.621      199.493        0.069        0.044       22.428       11.329        0.255      324.345      -12.089      872.440
12/10/2013  00:02:00      -14.540        2.711        4.251       25.527       19.496       15.858      651.621      380.097      251.467        0.076        0.064       14.790       18.176        1.510      324.465      -11.896      872.454
12/10/2013  00:03:00      -10.029       22.786       -9.435       27.726       25.613       11.969      768.723      656.026      143.249        0.114        0.078       24.895       13.833        0.309      324.671      -11.564      872.470
12/10/2013  00:04:00       -3.951       34.682       -1.975       18.218       34.435       14.624      331.893     1185.760      213.872        0.148        0.087       34.906       19.549        0.314      324.746      -11.442      872.489
12/10/2013  00:05:00       -1.338       21.234       -1.174       34.028       20.321       18.024     1157.885      412.927      324.860        0.117        0.095       21.276       10.416        0.240      324.618      -11.650      872.515
12/10/2013  00:06:00       -6.715        6.519       -0.330       18.677       19.499        8.235      348.830      380.207       67.821        0.044        0.040        9.358        4.848        0.268      324.563      -11.738      872.545
12/10/2013  00:07:00        6.834       60.352       -2.125       27.849       28.691       14.878      775.594      823.172      221.347        0.276        0.091       60.738       14.936        0.060      324.901      -11.193      872.577
12/10/2013  00:08:00       21.915       87.387       -6.164       27.384       37.456       17.927      749.875     1402.921      321.386        0.531        0.124       90.093       21.991        0.060      324.912      -11.175      872.601
12/10/2013  00:09:00       21.919      101.051      -10.361       15.450       17.770       15.513      238.695      315.767      240.639        0.580        0.040      103.401       13.136        0.016      324.866      -11.250      872.615
12/10/2013  00:10:00        6.473      101.897      -13.329        8.614       13.754        6.521       74.202      189.186       42.530        0.545        0.015      102.102        4.481        0.002      324.823      -11.319      872.619
12/10/2013  00:11:00        4.615       89.233      -14.795        9.153       12.304        7.585       83.769      151.388       57.540        0.425        0.015       89.352        5.210        0.003      324.814      -11.334      872.631
12/10/2013  00:12:00        6.713       82.613      -11.635       12.779       13.924        7.582      163.291      193.868       57.481        0.371        0.021       82.885        4.979        0.004      324.857      -11.265      872.643
12/10/2013  00:13:00       13.616       76.924      -10.775       11.453       10.958        7.520      131.163      120.081       56.550        0.326        0.015       78.120        5.437        0.005      324.885      -11.219      872.655
12/10/2013  00:14:00        2.090       73.875       -8.026       11.581       23.840       11.140      134.112      568.334      124.100        0.318        0.041       73.904       11.437        0.024      324.901      -11.192      872.658
12/10/2013  00:15:00       -3.678       30.202        2.171       16.731       24.332       10.191      279.940      592.054      103.859        0.095        0.049       30.425       10.543        0.120      324.886      -11.217      872.665
12/10/2013  00:16:00      -55.728      -14.511      -10.826       10.485       12.885        8.925      109.930      166.024       79.658        0.189        0.018       57.587        5.644        0.010      324.176      -12.362      872.661
12/10/2013  00:17:00      -91.228      -10.545       -9.016       17.373       18.348       16.440      301.819      336.651      270.273        0.471        0.045       91.836        5.533        0.004      324.059      -12.549      872.651
12/10/2013  00:18:00      -53.872        0.915      -11.157       19.772       22.829       14.673      390.940      521.143      215.287        0.208        0.056       53.879       10.637        0.039      324.035      -12.589      872.633
12/10/2013  00:19:00      -91.348       -3.443      -11.634       25.592       12.499       13.650      654.959      156.228      186.329        0.474        0.050       91.413        7.758        0.007      323.977      -12.682      872.625
12/10/2013  00:20:00     -111.099      -14.859      -11.091       23.133       18.876       12.601      535.123      356.310      158.794        0.687        0.053      112.088       10.204        0.008      324.054      -12.557      872.624
12/10/2013  00:21:00      -61.027      -21.647       -3.961       13.383       11.330       11.697      179.116      128.367      136.820        0.233        0.022       64.753        3.923        0.004      324.185      -12.347      872.617
12/10/2013  00:22:00      -46.513      -37.466       -9.741       15.642       15.840       10.828      244.680      250.891      117.244        0.214        0.031       59.726        7.624        0.016      324.323      -12.125      872.608
12/10/2013  00:23:00      -77.325      -20.511       -9.928        8.793        8.129        9.252       77.314       66.086       85.592        0.336        0.011       79.999        5.133        0.004      324.430      -11.954      872.592
12/10/2013  00:24:00      -69.730      -21.154      -14.858       17.351        9.369        9.464      301.050       87.786       89.572        0.300        0.024       72.868        5.642        0.006      324.487      -11.862      872.577
12/10/2013  00:25:00      -80.497      -32.641       -7.522        9.986       11.333        7.950       99.715      128.427       63.202        0.395        0.015       86.863        3.078        0.001      324.531      -11.791      872.563
12/10/2013  00:26:00      -67.777      -32.178       -8.565        9.358        7.353        6.429       87.578       54.061       41.336        0.294        0.009       75.028        3.193        0.002      324.617      -11.651      872.553
12/10/2013  00:27:00      -45.695      -33.944       -6.187       15.871        9.491        7.950      251.874       90.074       63.206        0.184        0.020       56.922        2.763        0.002      324.643      -11.610      872.543
12/10/2013  00:28:00      -51.193      -34.284       -7.257       22.874       13.948        9.366      523.214      194.547       87.719        0.233        0.040       61.613        9.711        0.025      324.603      -11.674      872.530
12/10/2013  00:29:00      -76.275      -42.435      -10.439       17.568       21.779       12.833      308.639      474.331      164.676        0.434        0.047       87.284        9.861        0.013      324.631      -11.629      872.519
12/10/2013  00:30:00      -77.811      -23.155       -0.776       24.763       19.768       16.993      613.218      390.758      288.777        0.394        0.065       81.184       12.682        0.024      324.681      -11.548      872.516
12/10/2013  00:31:00      -91.526      -38.611        7.178       29.049       26.127       20.039      843.831      682.627      401.549        0.592        0.096       99.337       15.631        0.025      324.706      -11.508      872.514
12/10/2013  00:32:00      -76.543      -36.330        3.979       32.790       21.797       15.154     1075.168      475.089      229.635        0.449        0.089       84.727       12.155        0.021      324.633      -11.625      872.500
12/10/2013  00:33:00      -79.469      -32.724       -0.615       35.832       26.155       16.393     1283.961      684.071      268.724        0.481        0.112       85.943       13.516        0.025      324.624      -11.641      872.487
12/10/2013  00:34:00      -91.883      -39.832       -7.179       15.709       25.144       12.845      246.783      632.204      164.994        0.556        0.052      100.145       10.533        0.011      324.682      -11.547      872.474
12/10/2013  00:35:00      -53.916      -39.418        2.546       24.953       25.416       17.480      622.649      645.997      305.558        0.302        0.079       66.788       15.947        0.057      324.701      -11.517      872.448
12/10/2013  00:36:00      -55.240      -43.341        0.208       26.984       20.751       15.440      728.143      430.588      238.401        0.316        0.070       70.213        9.453        0.018      324.682      -11.547      872.424
12/10/2013  00:37:00      -35.845      -25.216        7.560       38.299       19.241       17.284     1466.851      370.225      298.731        0.206        0.107       43.826       22.196        0.256      324.665      -11.575      872.399
12/10/2013  00:38:00      -56.017      -21.875       -1.530       35.315       18.798       17.550     1247.177      353.360      308.001        0.276        0.095       60.136       19.073        0.101      324.613      -11.657      872.364
12/10/2013  00:39:00      -52.920      -38.605       -4.230       38.006       28.866       15.849     1444.488      833.274      251.205        0.342        0.126       65.505       18.807        0.082      324.714      -11.496      872.341
12/10/2013  00:40:00      -76.287      -60.119        2.124       40.166       26.965       17.858     1613.345      727.104      318.904        0.605        0.133       97.129       16.877        0.030      324.715      -11.494      872.320
12/10/2013  00:41:00      -56.972      -27.026        8.153       46.654       31.405       22.569     2176.604      986.304      509.367        0.386        0.184       63.057       21.090        0.112      324.672      -11.562      872.307
12/10/2013  00:42:00      -64.837      -55.095        3.630       41.690       24.195       21.281     1738.091      585.395      452.866        0.501        0.139       85.084       20.739        0.059      324.678      -11.554      872.300
12/10/2013  00:43:00      -75.264      -63.861        3.182       46.050       29.369       24.589     2120.624      862.543      604.596        0.667        0.179       98.706       25.235        0.065      324.652      -11.595      872.286
12/10/2013  00:44:00      -74.665      -68.483       -9.952       34.369       27.600       23.000     1181.212      761.738      528.992        0.642        0.124      101.316       16.341        0.026      324.601      -11.677      872.281
12/10/2013  00:45:00      -56.306      -26.089       -0.779       26.739       23.556       15.020      714.982      554.898      225.587        0.267        0.075       62.056        8.561        0.019      324.649      -11.600      872.285
12/10/2013  00:46:00      -70.676      -24.535        1.838       22.251       19.937       15.573      495.092      397.491      242.528        0.337        0.057       74.814       12.366        0.027      324.651      -11.597      872.279
12/10/2013  00:47:00      -23.105      -25.977       -1.428       35.473       16.274       18.526     1258.311      264.857      343.208        0.154        0.093       34.765       12.095        0.121      324.622      -11.644      872.263
12/10/2013  00:48:00      -20.468      -17.815        3.321       18.339       18.370       14.500      336.329      337.473      210.253        0.082        0.044       27.135       10.787        0.158      324.604      -11.674      872.247
12/10/2013  00:49:00      -55.850      -14.761        1.175       37.198       28.262       18.639     1383.698      798.763      347.406        0.293        0.126       57.768       12.578        0.047      324.516      -11.813      872.241
12/10/2013  00:50:00      -56.429      -38.638        5.164       30.114       29.242       15.380      906.855      855.090      236.557        0.335        0.100       68.390        8.858        0.017      324.525      -11.799      872.232
12/10/2013  00:51:00      -45.307      -23.527        9.303       35.868       24.112       18.068     1286.517      581.381      326.461        0.244        0.110       51.051       20.375        0.159      324.540      -11.775      872.228
12/10/2013  00:52:00      -86.888      -64.518       -3.303       45.301       27.915       22.510     2052.195      779.230      506.692        0.753        0.167      108.223       24.632        0.052      324.472      -11.885      872.217
12/10/2013  00:53:00      -94.131      -64.243       -9.151       37.808       29.509       19.197     1429.481      870.801      368.525        0.787        0.133      113.964       21.508        0.036      324.408      -11.990      872.210
12/10/2013  00:54:00       -4.152      -19.951       11.809       30.768       27.241       17.558      946.640      742.080      308.283        0.128        0.100       20.378       11.552        0.321      324.462      -11.901      872.212
12/10/2013  00:55:00      -24.291       -9.749        1.232       20.248       13.481        8.405      409.982      181.750       70.641        0.067        0.033       26.174        6.725        0.066      324.419      -11.972      872.218
12/10/2013  00:56:00      -39.694      -13.245        2.283       22.673        9.753       11.170      514.081       95.130      124.773        0.124        0.037       41.846       14.035        0.112      324.460      -11.905      872.230
12/10/2013  00:57:00      -30.731       -1.717       -0.536       16.149       13.330        8.416      260.781      177.693       70.831        0.073        0.025       30.779        3.379        0.012      324.442      -11.934      872.231
12/10/2013  00:58:00      -63.244       19.347        0.132        6.766        8.913       10.523       45.778       79.434      110.741        0.231        0.012       66.138        3.252        0.002      324.422      -11.966      872.230
12/10/2013  00:59:00      -41.613       13.925       -1.588       12.015        8.621        9.734      144.366       74.330       94.746        0.112        0.016       43.881        4.677        0.011      324.470      -11.888      872.218
12/10/2013  01:00:00      -53.894       13.642      -10.544       15.351        9.125        7.457      235.667       83.260       55.608        0.179        0.019       55.594        5.382        0.009      324.435      -11.946      872.208
12/10/2013  01:01:00      -73.389        8.483      -10.945       23.590       12.723       14.046      556.492      161.867      197.296        0.325        0.046       73.877       14.693        0.040      324.444      -11.932      872.212
12/10/2013  01:02:00      -88.703       -5.708       -8.799       22.656       11.491       11.758      513.316      132.045      138.250        0.438        0.039       88.887        9.920        0.012      324.472      -11.885      872.207
12/10/2013  01:03:00      -86.989      -29.677       -4.902       22.080       20.957       11.619      487.542      439.198      134.992        0.477        0.053       91.912       10.985        0.014      324.474      -11.884      872.195
12/10/2013  01:04:00      -55.261      -37.773        7.428       41.184       22.930       19.414     1696.089      525.784      376.913        0.357        0.130       66.938       23.011        0.118      324.557      -11.747      872.171
12/10/2013  01:05:00      -31.822      -19.680        8.342       29.015       16.304       14.503      841.870      265.819      210.326        0.139        0.066       37.416       15.064        0.162      324.607      -11.667      872.138
12/10/2013  01:06:00      -74.267      -42.586       -2.658       30.601       19.591       16.058      936.399      383.789      257.854        0.446        0.079       85.611       13.372        0.024      324.480      -11.872      872.109
12/10/2013  01:07:00      -44.385      -32.551       -1.061       39.267       23.223       15.817     1541.888      539.289      250.184        0.268        0.117       55.042       20.259        0.135      324.536      -11.781      872.078
12/10/2013  01:08:00      -34.977      -14.684        4.708       25.150       20.780       11.104      632.516      431.788      123.307        0.132        0.059       37.935        5.626        0.022      324.503      -11.835      872.047
12/10/2013  01:09:00      -32.158      -14.993        0.674       27.705       12.663       10.956      767.584      160.349      120.039        0.115        0.052       35.481       11.382        0.103      324.510      -11.824      872.032
12/10/2013  01:10:00      -20.863      -19.343        0.133       28.871       16.703       12.685      833.532      278.998      160.903        0.104        0.064       28.450       16.108        0.321      324.643      -11.609      872.020
12/10/2013  01:11:00      -35.593       10.759        0.619       16.155       22.808        8.722      260.987      520.199       76.073        0.112        0.043       37.184        4.792        0.017      324.442      -11.934      872.017
12/10/2013  01:12:00      -47.360       21.915       -5.213       19.106       14.333       11.619      365.056      205.424      134.998        0.173        0.035       52.185        5.548        0.011      324.320      -12.131      872.023
12/10/2013  01:13:00      -73.765       14.818       -8.687       18.977       19.823       10.277      360.108      392.937      105.614        0.330        0.043       75.239        8.505        0.013      324.310      -12.145      872.035
12/10/2013  01:14:00      -34.353        5.588       -4.610       16.982       14.353        9.275      288.400      206.011       86.030        0.091        0.029       34.805        5.337        0.024      324.363      -12.061      872.049
12/10/2013  01:15:00      -77.490       26.877       -4.281       17.309       19.530       14.990      299.598      381.436      224.698        0.383        0.045       82.019        7.889        0.009      324.421      -11.967      872.078
12/10/2013  01:16:00      -84.857       -0.786       -5.821       30.376       26.784       13.608      922.688      717.394      185.189        0.453        0.091       84.861       13.920        0.027      324.465      -11.895      872.085
12/10/2013  01:17:00      -83.299      -40.517       -4.371       11.935       12.958        9.484      142.436      167.905       89.947        0.450        0.020       92.630        5.109        0.003      324.347      -12.085      872.084
12/10/2013  01:18:00      -99.295      -44.191      -10.661       18.009       16.593       14.187      324.323      275.313      201.266        0.636        0.040      108.685       11.350        0.011      324.275      -12.202      872.076
12/10/2013  01:19:00      -80.168      -30.787       -1.425       40.554       29.284       22.285     1644.608      857.568      496.620        0.519        0.150       85.877       22.066        0.066      324.217      -12.296      872.073
12/10/2013  01:20:00      -17.881       10.485       12.329       39.064       21.781       19.808     1526.018      474.409      392.353        0.149        0.120       20.728       20.329        0.962      324.177      -12.360      872.068
12/10/2013  01:21:00      -14.796       14.659       -1.721       22.765       22.232       14.510      518.254      494.265      210.551        0.083        0.061       20.828       11.933        0.328      324.148      -12.406      872.067
12/10/2013  01:22:00      -42.030       17.415       -4.424       23.945       19.761       18.618      573.381      390.479      346.627        0.170        0.066       45.495       10.625        0.055      324.132      -12.432      872.056
12/10/2013  01:23:00      -20.765        4.911        1.407       21.452       19.103       13.805      460.192      364.926      190.581        0.074        0.051       21.338       12.834        0.362      324.241      -12.256      872.033
12/10/2013  01:24:00      -79.903      -18.917       -6.490       24.376       23.526       12.444      594.186      553.452      154.858        0.404        0.065       82.111       11.521        0.020      324.164      -12.380      871.994
12/10/2013  01:25:00      -83.440      -25.752       -1.677       27.184       25.252       14.916      738.962      637.655      222.496        0.461        0.080       87.323       13.663        0.024      324.034      -12.591      871.964
12/10/2013  01:26:00      -76.923      -22.254       -0.873       30.263       25.722       17.204      915.836      661.644      295.990        0.414        0.094       80.078       16.358        0.042      324.043      -12.576      871.937
12/10/2013  01:27:00     -103.584        9.048       -5.577       54.803       24.944       27.051     3003.326      622.195      731.754        0.760        0.218      103.978       30.825        0.088      323.945      -12.733      871.927
12/10/2013  01:28:00     -111.238        1.321       -6.018       42.828       27.696       31.318     1834.245      767.046      980.847        0.800        0.179      111.246       28.145        0.064      323.932      -12.754      871.914
12/10/2013  01:29:00     -103.048        4.698       -5.401       38.937       30.207       24.175     1516.067      912.471      584.436        0.684        0.151      103.155       22.573        0.048      323.972      -12.689      871.891
12/10/2013  01:30:00     -138.148        6.922      -16.577       38.429       21.630       22.112     1476.785      467.866      488.946        1.092        0.122      138.322       19.656        0.020      324.006      -12.635      871.877
12/10/2013  01:31:00     -106.877        6.716      -12.948       36.809       35.063       21.601     1354.938     1229.379      466.586        0.734        0.153      107.088       17.748        0.027      324.020      -12.612      871.884
12/10/2013  01:32:00     -117.645       24.967      -14.060       36.642       33.386       22.507     1342.639     1114.626      506.553        0.881        0.148      120.265       15.809        0.017      324.004      -12.639      871.889
12/10/2013  01:33:00     -151.043       48.505      -14.351       38.467       28.436       24.189     1479.678      808.607      585.084        1.412        0.144      158.641       14.865        0.009      323.970      -12.691      871.885
12/10/2013  01:34:00     -106.871        0.494       -9.397       32.840       35.093       23.714     1078.440     1231.520      562.343        0.719        0.144      106.872       18.906        0.031      323.985      -12.668      871.865
12/10/2013  01:35:00     -156.132      -13.887      -17.771       36.097       22.276       16.630     1302.965      496.220      276.558        1.348        0.104      156.748       16.346        0.011      323.828      -12.920      871.859
12/10/2013  01:36:00     -108.350      -34.278       -6.372       31.477       29.894       19.118      990.789      893.654      365.488        0.760        0.112      113.643       17.679        0.024      323.826      -12.925      871.850
12/10/2013  01:37:00      -69.759       13.179       -3.941       58.089       35.290       23.888     3374.385     1245.362      570.632        0.512        0.260       70.993       26.837        0.143      323.769      -13.017      871.847
12/10/2013  01:38:00      -53.062       18.889      -15.107       28.546       27.079       14.614      814.863      733.294      213.583        0.258        0.088       56.323       12.015        0.046      323.786      -12.988      871.858
12/10/2013  01:39:00      -57.410        9.303      -17.990       30.275       23.314       14.074      916.600      543.538      198.086        0.268        0.083       58.159        9.004        0.024      323.832      -12.914      871.855
12/10/2013  01:40:00      -41.392       -7.728      -14.412       17.711       20.127       11.309      313.675      405.092      127.898        0.141        0.042       42.107        6.650        0.025      323.861      -12.869      871.846
12/10/2013  01:41:00      -48.050      -26.000       -9.973       17.082       16.229       11.129      291.791      263.393      123.847        0.188        0.034       54.634        5.932        0.012      323.893      -12.816      871.843
12/10/2013  01:42:00      -53.008      -24.365       -9.293       13.896       13.649        9.937      193.094      186.307       98.753        0.198        0.024       58.340        7.607        0.017      323.835      -12.910      871.835
12/10/2013  01:43:00      -36.303      -13.659       -4.039       13.195       13.987       10.859      174.098      195.639      117.928        0.100        0.024       38.788        4.251        0.012      323.778      -13.002      871.846
12/10/2013  01:44:00      -60.163       -1.000       -4.017       28.440       17.776       11.741      808.862      315.978      137.840        0.245        0.063       60.172       10.385        0.030      323.706      -13.117      871.847
12/10/2013  01:45:00      -66.569      -17.962       -8.617       15.989       14.020       11.308      255.638      196.561      127.881        0.270        0.029       68.949        8.150        0.014      323.679      -13.160      871.860
12/10/2013  01:46:00      -72.690      -19.273       -8.953       18.376       14.535        9.880      337.685      211.262       97.620        0.319        0.032       75.202        8.855        0.014      323.671      -13.174      871.881
12/10/2013  01:47:00      -64.308      -13.320      -10.069       20.749       17.560       14.609      430.512      308.347      213.421        0.268        0.048       65.673       12.357        0.035      323.759      -13.034      871.884
12/10/2013  01:48:00      -47.886      -11.782      -12.862       21.873       20.980       16.779      478.444      440.161      281.528        0.190        0.060       49.314       13.973        0.080      323.702      -13.124      871.875
12/10/2013  01:49:00      -76.631      -27.930      -10.913       15.925       23.000       13.212      253.603      528.999      174.552        0.386        0.048       81.563        8.669        0.011      323.631      -13.236      871.863
12/10/2013  01:50:00      -76.282      -25.315      -12.372       16.563       16.063       16.015      274.337      258.006      256.493        0.370        0.039       80.373       11.771        0.021      323.640      -13.222      871.855
12/10/2013  01:51:00     -100.611       -2.453      -15.172       29.852       21.056       15.827      891.138      443.361      250.483        0.597        0.079      100.641       13.531        0.018      323.581      -13.319      871.838
12/10/2013  01:52:00      -76.894      -15.359      -17.905       24.007       18.943       15.395      576.355      358.820      237.004        0.382        0.059       78.413       13.690        0.030      323.612      -13.268      871.814
12/10/2013  01:53:00      -63.422      -22.192       -7.426       22.029       15.759       17.754      485.284      248.354      315.221        0.281        0.052       67.192       14.813        0.049      323.627      -13.244      871.800
12/10/2013  01:54:00      -56.493       -8.617      -13.066       17.973       13.951       12.860      323.035      194.643      165.369        0.206        0.034       57.146        7.703        0.018      323.649      -13.207      871.779
12/10/2013  01:55:00      -37.554      -17.660       -3.966       26.020       18.982       14.884      677.036      360.305      221.536        0.150        0.063       41.499       12.318        0.088      323.762      -13.028      871.754
12/10/2013  01:56:00      -36.548       -3.519       -9.585       22.691       19.275       13.344      514.862      371.515      178.063        0.125        0.053       36.717       10.107        0.076      323.666      -13.182      871.737
12/10/2013  01:57:00      -29.052      -11.027      -14.497       22.794       21.483       13.876      519.583      461.502      192.550        0.117        0.059       31.074       12.866        0.171      323.688      -13.146      871.726
12/10/2013  01:58:00      -28.288      -19.881        0.139       30.822       18.370       18.668      949.968      337.467      348.508        0.142        0.082       34.575       17.959        0.270      323.708      -13.115      871.720
12/10/2013  01:59:00      -58.619      -24.515       -6.614       21.735       20.997       12.348      472.427      440.855      152.468        0.257        0.053       63.538        7.064        0.012      323.570      -13.335      871.704
12/10/2013  02:00:00      -81.865      -21.778      -13.543       16.051       13.974       12.226      257.644      195.263      149.475        0.398        0.030       84.712        5.878        0.005      323.582      -13.316      871.704
12/10/2013  02:01:00      -66.209      -17.688       -6.443       36.265       27.614       17.318     1315.154      762.551      299.899        0.356        0.119       68.531       17.392        0.064      323.599      -13.289      871.701
12/10/2013  02:02:00      -53.947      -10.750       -9.350       26.822       22.922       16.464      719.429      525.409      271.054        0.231        0.076       55.007       12.396        0.051      323.632      -13.236      871.689
12/10/2013  02:03:00      -56.541        6.010      -13.508       15.374       16.213       11.244      236.363      262.853      126.427        0.202        0.031       56.859       10.632        0.035      323.753      -13.042      871.673
12/10/2013  02:04:00      -68.772      -32.861      -12.134       17.966       21.110        9.189      322.792      445.644       84.429        0.340        0.043       76.220        5.069        0.004      323.732      -13.076      871.662
12/10/2013  02:05:00      -87.530      -15.310      -16.824       28.868       19.985       16.790      833.381      399.406      281.913        0.485        0.076       88.859       13.198        0.022      323.623      -13.251      871.656
12/10/2013  02:06:00      -42.072       -8.473       -5.549       30.812       22.273       19.164      949.382      496.071      367.248        0.184        0.091       42.917       18.536        0.187      323.642      -13.221      871.649
12/10/2013  02:07:00      -81.927      -20.534       -7.633       39.643       23.632       22.074     1571.574      558.470      487.246        0.490        0.131       84.461       21.959        0.068      323.567      -13.341      871.639
12/10/2013  02:08:00      -80.467       -8.409       -3.919       44.836       29.581       22.748     2010.264      875.065      517.494        0.498        0.170       80.905       22.606        0.078      323.533      -13.395      871.636
12/10/2013  02:09:00      -52.581      -17.495       -2.731       31.063       24.831       19.845      964.923      616.584      393.833        0.253        0.099       55.415       19.784        0.127      323.591      -13.301      871.632
12/10/2013  02:10:00      -10.658       -0.241       -1.267       13.788       13.179       10.562      190.121      173.680      111.560        0.030        0.024       10.661        7.302        0.469      323.700      -13.126      871.649
12/10/2013  02:11:00      -36.156      -19.161      -10.700       15.020       17.362       10.130      225.588      301.424      102.615        0.121        0.031       40.920        5.902        0.021      323.846      -12.893      871.650
12/10/2013  02:12:00      -54.661      -24.735       -2.545       15.725       13.402       11.295      247.268      179.625      127.567        0.208        0.028       59.997        8.153        0.018      323.757      -13.035      871.623
12/10/2013  02:13:00      -74.099      -28.363      -10.979       21.270       18.153       14.526      452.401      329.542      210.994        0.370        0.050       79.342        5.580        0.005      323.654      -13.201      871.587
12/10/2013  02:14:00     -137.309       -0.823      -16.027       14.105       16.531       12.252      198.948      273.265      150.104        0.987        0.031      137.312        7.648        0.003      323.633      -13.234      871.583
12/10/2013  02:15:00     -142.828       10.471      -16.582       27.598       16.388       19.039      761.655      268.568      362.467        1.109        0.070      143.211       13.606        0.009      323.659      -13.194      871.602
12/10/2013  02:16:00     -120.406        0.178      -11.534       38.228       18.467       15.670     1461.397      341.018      245.554        0.834        0.102      120.406       15.358        0.016      323.621      -13.254      871.622
12/10/2013  02:17:00      -39.829       -6.771       -3.482       12.161        8.789        7.705      147.888       77.240       59.368        0.096        0.014       40.400        6.883        0.029      323.787      -12.987      871.615
12/10/2013  02:18:00      -28.951        3.531       -7.482       19.652       18.599        9.259      386.195      345.915       85.721        0.086        0.041       29.166       10.041        0.119      324.134      -12.429      871.598
12/10/2013  02:19:00      -62.158       -1.855       -9.939       11.713       12.826        7.748      137.190      164.505       60.038        0.216        0.018       62.186        4.482        0.005      324.138      -12.423      871.584
12/10/2013  02:20:00      -78.779       -7.651      -13.049       16.149       11.419       10.330      260.786      130.401      106.705        0.347        0.025       79.149        8.030        0.010      324.002      -12.641      871.573
12/10/2013  02:21:00      -86.462      -23.609       -8.624       14.078       15.119        9.468      198.201      228.569       89.650        0.431        0.026       89.628        4.172        0.002      323.836      -12.909      871.562
12/10/2013  02:22:00      -70.688      -20.894       -9.518       17.318       13.290        8.929      299.899      176.614       79.730        0.304        0.028       73.712        5.210        0.005      323.865      -12.861      871.531
12/10/2013  02:23:00      -77.237      -21.465       -9.042       15.991       12.776       10.499      255.727      163.217      110.226        0.352        0.026       80.165        5.488        0.005      323.830      -12.918      871.486
12/10/2013  02:24:00      -71.394      -21.144       -4.647       19.647       21.335       13.934      386.023      455.203      194.170        0.330        0.052       74.459       13.058        0.031      323.820      -12.933      871.450
12/10/2013  02:25:00      -61.020      -41.370       -4.702       23.713       21.816       17.638      562.320      475.941      311.099        0.340        0.067       73.722       10.877        0.022      323.924      -12.766      871.433
12/10/2013  02:26:00      -51.402      -39.012       -9.664       20.294       18.729       11.133      411.856      350.765      123.953        0.257        0.044       64.530        8.796        0.019      323.928      -12.760      871.438
12/10/2013  02:27:00      -60.749      -19.640       -6.226       20.365       18.391        8.272      414.725      338.243       68.427        0.247        0.041       63.845        8.146        0.016      324.003      -12.641      871.437
12/10/2013  02:28:00     -104.537       -1.296      -11.826       19.205       14.054       14.554      368.817      197.508      211.810        0.592        0.039      104.545        6.452        0.004      323.860      -12.869      871.438
12/10/2013  02:29:00     -103.763      -15.082       -9.412       13.726        8.938        8.572      188.414       79.894       73.476        0.571        0.017      104.854        5.939        0.003      323.802      -12.964      871.424
12/10/2013  02:30:00      -60.998      -14.763       -5.591       19.868       15.558       11.197      394.737      242.057      125.382        0.237        0.038       62.759       10.922        0.030      323.904      -12.799      871.412
12/10/2013  02:31:00      -70.334      -25.731       -0.514       19.572       14.089       12.143      383.060      198.504      147.445        0.317        0.036       74.893       11.880        0.025      324.009      -12.630      871.398
12/10/2013  02:32:00      -26.937      -31.899       -7.188       22.311       13.658        7.853      497.762      186.532       61.676        0.127        0.037       41.751        5.961        0.020      324.060      -12.548      871.379
12/10/2013  02:33:00        3.510       -8.878       -0.231        8.577       10.960        8.385       73.558      120.128       70.314        0.018        0.013        9.547        6.688        0.491      324.179      -12.356      871.369
12/10/2013  02:34:00      -33.189       -9.086       -0.009        9.338       11.894       11.246       87.201      141.456      126.466        0.077        0.018       34.410        6.270        0.033      324.336      -12.104      871.366
12/10/2013  02:35:00       -7.187      -10.288       -3.788       16.901       13.294        9.854      285.633      176.740       97.098        0.037        0.028       12.550        5.435        0.188      324.212      -12.302      871.364
12/10/2013  02:36:00      -48.547      -23.229       -6.215       13.045       12.730        9.067      170.165      162.040       82.202        0.167        0.021       53.818        2.908        0.003      324.279      -12.195      871.369
12/10/2013  02:37:00      -22.990        8.527       -1.418       14.217       14.291        9.904      202.137      204.238       98.086        0.055        0.025       24.520        6.946        0.080      324.300      -12.164      871.385
12/10/2013  02:38:00      -44.378       -7.134        0.414       14.121       13.221       11.109      199.415      174.783      123.401        0.126        0.025       44.948        7.548        0.028      324.164      -12.381      871.403
12/10/2013  02:39:00      -35.427      -13.103       -4.290       23.729       16.853       11.436      563.057      284.007      130.791        0.121        0.049       37.772        9.290        0.060      324.233      -12.270      871.425
12/10/2013  02:40:00      -31.100      -22.372       -2.019       21.549       16.250       13.566      464.354      264.053      184.043        0.119        0.046       38.311        8.978        0.055      324.246      -12.249      871.439
12/10/2013  02:41:00      -51.511      -36.741       -6.141       36.557       33.754       19.081     1336.414     1139.323      364.081        0.344        0.142       63.272       13.728        0.047      324.212      -12.304      871.438
12/10/2013  02:42:00      -69.075      -58.516       10.440       60.988       43.034       26.202     3719.584     1851.945      686.534        0.728        0.313       90.529       31.468        0.121      324.104      -12.477      871.442
12/10/2013  02:43:00     -102.555      -67.242       -5.544       41.264       30.752       21.591     1702.728      945.701      466.187        0.909        0.156      122.634       15.703        0.016      324.068      -12.535      871.457
12/10/2013  02:44:00      -81.832      -15.358       -0.406       27.932       16.977       15.166      780.207      288.220      229.996        0.412        0.065       83.261       10.705        0.017      324.075      -12.524      871.468
12/10/2013  02:45:00      -61.046      -25.176       -7.153       26.752       20.656       15.298      715.672      426.688      234.033        0.289        0.069       66.033       14.199        0.046      324.052      -12.563      871.487
12/10/2013  02:46:00      -87.487      -16.286       -5.236       33.648       29.741       13.986     1132.202      884.541      195.603        0.508        0.111       88.990       11.617        0.017      323.976      -12.683      871.473
12/10/2013  02:47:00     -101.361      -15.835       -3.097       37.023       24.689       21.658     1370.721      609.551      469.082        0.649        0.122      102.590       19.324        0.035      323.892      -12.818      871.453
12/10/2013  02:48:00      -64.145      -24.847        3.758       49.211       24.472       13.291     2421.738      598.885      176.660        0.397        0.160       68.789       17.123        0.062      323.940      -12.741      871.437
12/10/2013  02:49:00     -100.604      -20.114       -4.717       21.771       26.049       15.570      473.994      678.568      242.439        0.597        0.070      102.595       11.009        0.012      323.882      -12.833      871.419
12/10/2013  02:50:00      -58.896       -6.867        0.766       27.598       16.521       14.548      761.661      272.946      211.648        0.238        0.062       59.295       13.538        0.052      323.798      -12.969      871.410
12/10/2013  02:51:00      -84.260        7.294      -10.998       27.434       14.296       13.477      752.601      204.366      181.629        0.421        0.057       84.575       14.165        0.028      323.821      -12.932      871.402
12/10/2013  02:52:00      -88.687       11.560       -6.013       20.748       16.029       16.111      430.465      256.936      259.579        0.449        0.047       89.437        8.716        0.009      323.793      -12.979      871.401
12/10/2013  02:53:00      -67.230        4.942       -8.269       30.696       23.322       14.676      942.235      543.931      215.372        0.316        0.085       67.411       11.544        0.029      323.809      -12.951      871.404
12/10/2013  02:54:00     -109.210        3.177       -9.132       18.927       15.213       11.251      358.231      231.444      126.575        0.637        0.036      109.256        7.618        0.005      323.820      -12.934      871.405
12/10/2013  02:55:00      -77.991       -5.743       -2.207       23.353       19.402       14.759      545.382      376.424      217.822        0.363        0.057       78.202       11.070        0.020      323.845      -12.895      871.404
12/10/2013  02:56:00     -101.408       -9.000       -6.787       25.207       15.723       13.378      635.372      247.226      178.959        0.574        0.053      101.807       14.597        0.021      323.818      -12.937      871.396
12/10/2013  02:57:00      -88.016       -9.474       -5.955       26.961       18.810       12.931      726.894      353.824      167.211        0.456        0.062       88.524       12.909        0.021      323.823      -12.930      871.371
12/10/2013  02:58:00      -77.588      -10.126       -7.274       21.499       12.509       12.590      462.225      156.470      158.496        0.348        0.039       78.246       12.352        0.025      323.786      -12.990      871.364
12/10/2013  02:59:00      -79.619        3.184       -5.685       27.415       11.994       13.201      751.564      143.855      174.262        0.373        0.053       79.683       12.246        0.024      323.746      -13.053      871.357
12/10/2013  03:00:00     -115.182       -4.207      -15.636       19.724       11.990       11.534      389.020      143.760      133.028        0.710        0.033      115.258        7.299        0.004      323.690      -13.142      871.353
12/10/2013  03:01:00      -74.158      -12.544       -7.220       27.376       12.034       13.259      749.425      144.807      175.792        0.339        0.054       75.211       14.085        0.035      323.709      -13.113      871.344
12/10/2013  03:02:00      -68.260      -10.317       -7.026       22.447       13.573       11.198      503.878      184.221      125.400        0.281        0.041       69.035        6.006        0.008      323.711      -13.109      871.335
12/10/2013  03:03:00      -53.980       -7.989       -8.218       19.361       16.768       10.854      374.862      281.176      117.815        0.191        0.039       54.568        5.972        0.012      323.686      -13.150      871.318
12/10/2013  03:04:00      -80.831      -15.844      -15.702       14.460       15.964       11.537      209.078      254.837      133.091        0.381        0.030       82.369        6.320        0.006      323.632      -13.236      871.296
12/10/2013  03:05:00      -94.643      -19.356      -11.934       23.327       24.165       20.005      544.139      583.953      400.194        0.550        0.076       96.602       12.125        0.016      323.612      -13.267      871.287
12/10/2013  03:06:00      -60.188      -15.193      -10.770       28.270       22.917       18.020      799.188      525.201      324.706        0.281        0.082       62.076        9.823        0.025      323.607      -13.276      871.280
12/10/2013  03:07:00      -26.622      -30.512       -2.955       38.615       26.231       17.015     1491.113      688.090      289.502        0.206        0.123       40.494        6.845        0.029      323.605      -13.280      871.257
12/10/2013  03:08:00      -78.099      -31.970       -8.190       28.226       32.155       14.963      796.713     1033.927      223.905        0.462        0.103       84.389       12.715        0.023      323.584      -13.314      871.236
12/10/2013  03:09:00      -97.844      -21.191       -3.498       34.157       22.085       19.341     1166.719      487.767      374.055        0.603        0.101      100.113       18.012        0.032      323.532      -13.397      871.221
12/10/2013  03:10:00     -117.090       -9.071       -7.063       31.843       25.335       21.917     1013.952      641.882      480.352        0.799        0.107      117.440       15.752        0.018      323.572      -13.332      871.197
12/10/2013  03:11:00     -126.877       -8.028      -10.351       37.063       30.845       22.042     1373.682      951.427      485.847        0.954        0.141      127.130       17.026        0.018      323.597      -13.293      871.181
12/10/2013  03:12:00     -103.079       -9.399       -7.698       40.885       33.184       18.492     1671.554     1101.168      341.945        0.694        0.156      103.507       17.274        0.028      323.632      -13.237      871.175
12/10/2013  03:13:00     -125.480       11.188      -15.335       35.423       42.169       23.706     1254.792     1778.226      561.983        0.985        0.180      125.978       21.590        0.029      323.639      -13.225      871.177
12/10/2013  03:14:00     -131.127        4.069      -15.743       48.301       40.149       25.416     2332.964     1611.979      645.976        1.102        0.230      131.190       20.712        0.025      323.692      -13.140      871.165
12/10/2013  03:15:00     -143.430       -1.221      -15.313       43.883       33.365       19.505     1925.716     1113.206      380.457        1.211        0.171      143.435       16.673        0.014      323.746      -13.053      871.154
12/10/2013  03:16:00     -109.875      -11.335       -7.134       42.479       30.360       21.393     1804.507      921.756      457.675        0.772        0.159      110.458       21.651        0.038      323.711      -13.109      871.131
12/10/2013  03:17:00     -106.371      -20.550      -10.711       29.966       28.181       18.425      897.980      794.166      339.477        0.694        0.102      108.338       11.502        0.011      323.753      -13.040      871.112
12/10/2013  03:18:00     -152.144        0.573      -16.668       27.499       19.057       18.664      756.222      363.177      348.339        1.245        0.073      152.145       15.398        0.010      323.820      -12.934      871.097
12/10/2013  03:19:00     -117.196      -10.042       -7.196       29.623       20.496       17.846      877.547      420.095      318.480        0.775        0.081      117.626       14.422        0.015      323.850      -12.885      871.075
12/10/2013  03:20:00      -83.186      -15.948        1.044       38.045       28.423       16.117     1447.432      807.872      259.763        0.484        0.126       84.701       18.775        0.049      323.807      -12.956      871.065
12/10/2013  03:21:00      -86.984      -25.252       -4.802       21.338       24.712       16.264      455.316      610.666      264.520        0.478        0.067       90.575       11.916        0.017      323.867      -12.857      871.049
12/10/2013  03:22:00      -67.362      -19.213       -1.346       31.377       26.817       18.740      984.539      719.139      351.188        0.348        0.103       70.048       16.917        0.058      323.877      -12.844      871.030
12/10/2013  03:23:00      -83.169       -4.424        1.057       23.121       24.462       16.483      534.582      598.375      271.698        0.417        0.070       83.286       11.155        0.018      323.870      -12.855      871.021
12/10/2013  03:24:00      -79.303      -13.443       -7.658       18.238       23.545       14.473      332.635      554.368      209.468        0.381        0.055       80.434        8.381        0.011      323.920      -12.773      871.011
12/10/2013  03:25:00     -104.098       -9.499       -7.016       17.659       16.532       10.911      311.858      273.311      119.041        0.584        0.035      104.530       10.412        0.010      323.879      -12.839      870.990
12/10/2013  03:26:00     -115.610      -15.169       -4.871       18.775       20.469       11.047      352.518      418.992      122.035        0.726        0.045      116.601        4.480        0.001      323.952      -12.722      870.975
12/10/2013  03:27:00     -104.479      -17.606       -7.397       26.345       22.837       19.964      694.038      521.526      398.580        0.645        0.081      105.952       15.813        0.022      323.875      -12.845      870.968
12/10/2013  03:28:00     -117.202       -3.988       -9.806       24.182       14.479       16.465      584.774      209.633      271.107        0.746        0.053      117.270       12.300        0.011      323.746      -13.054      870.974
12/10/2013  03:29:00     -105.100      -12.830      -12.027       25.209       19.030       13.565      635.501      362.139      184.008        0.627        0.059      105.881       10.718        0.010      323.803      -12.962      870.983
12/10/2013  03:30:00     -108.889      -12.489       -8.611       26.719       18.330       16.136      713.888      335.990      260.361        0.670        0.066      109.603       13.172        0.014      323.924      -12.767      870.989
12/10/2013  03:31:00      -78.204       -3.336        5.511       39.667       18.516       21.398     1573.508      342.830      457.857        0.427        0.119       78.275       25.641        0.107      323.844      -12.895      870.979
12/10/2013  03:32:00      -95.376      -25.160       -3.219       25.502       29.370       14.567      650.345      862.598      212.194        0.573        0.086       98.638       10.863        0.012      323.879      -12.839      870.960
12/10/2013  03:33:00      -86.692       -3.254       -2.574       27.045       17.510       15.468      731.436      306.584      239.254        0.440        0.064       86.753       14.266        0.027      323.820      -12.933      870.943
12/10/2013  03:34:00      -84.804        0.148       -3.978       17.070       15.798        9.523      291.370      249.590       90.690        0.392        0.032       84.804        5.465        0.004      323.749      -13.048      870.935
12/10/2013  03:35:00      -70.236       -6.805       -3.862       20.324       16.870        9.877      413.070      284.612       97.550        0.289        0.040       70.565        8.601        0.015      323.732      -13.075      870.928
12/10/2013  03:36:00      -76.945       -6.111        0.520       19.738       15.393       13.151      389.600      236.952      172.942        0.338        0.040       77.187       11.875        0.024      323.816      -12.940      870.914
12/10/2013  03:37:00      -73.701       -8.189       -0.715       31.881       15.142       14.577     1016.378      229.285      212.489        0.348        0.073       74.154       16.283        0.048      323.853      -12.879      870.880
12/10/2013  03:38:00      -88.560      -13.995       -1.351       39.120       29.485       19.597     1530.384      869.390      384.052        0.541        0.139       89.659       18.638        0.043      323.950      -12.726      870.840
12/10/2013  03:39:00     -100.835      -11.758       -6.464       23.270       21.159       15.746      541.504      447.721      247.940        0.579        0.062      101.519        9.759        0.009      323.854      -12.880      870.800
12/10/2013  03:40:00      -85.300       -0.472       -5.924       25.262       18.687       14.099      638.178      349.219      198.784        0.425        0.059       85.301       14.133        0.027      323.829      -12.919      870.766
12/10/2013  03:41:00      -72.653       -6.814       -0.384       23.839       15.966       12.215      568.281      254.912      149.212        0.315        0.049       72.972        6.907        0.009      323.850      -12.886      870.752
12/10/2013  03:42:00      -63.674       -2.301       -2.384       17.089       18.004       13.315      292.029      324.143      177.294        0.243        0.040       63.715       11.113        0.030      323.803      -12.962      870.757
12/10/2013  03:43:00      -20.684       -7.341        1.061       21.821       12.711       12.527      476.174      161.573      156.932        0.064        0.040       21.948       12.449        0.322      323.843      -12.896      870.761
12/10/2013  03:44:00      -34.418        2.647       -2.516       16.344       13.131       10.954      267.141      172.427      119.996        0.088        0.028       34.519       10.275        0.089      323.821      -12.933      870.757
12/10/2013  03:45:00      -54.634        9.486       -8.318       22.374       12.160       12.477      500.588      147.868      155.676        0.197        0.040       55.452       12.574        0.051      323.749      -13.047      870.745
12/10/2013  03:46:00      -68.767       12.764      -11.144        7.473        9.052       11.683       55.841       81.943      136.499        0.265        0.014       69.942        6.491        0.009      323.742      -13.060      870.730
12/10/2013  03:47:00      -70.480       15.891       -8.142       10.195        9.714        9.378      103.942       94.364       87.956        0.279        0.014       72.249        5.406        0.006      323.763      -13.026      870.719
12/10/2013  03:48:00      -80.547       17.667      -12.103       19.082       15.185       11.203      364.114      230.597      125.501        0.383        0.036       82.462        8.088        0.010      323.800      -12.966      870.732
12/10/2013  03:49:00      -72.414       15.904       -5.742       18.825       14.413       12.027      354.379      207.749      144.650        0.312        0.035       74.140        8.444        0.013      323.808      -12.951      870.746
12/10/2013  03:50:00      -51.413       -4.177       -6.060        9.956       10.007        7.867       99.113      100.146       61.889        0.148        0.013       51.583        3.192        0.004      323.807      -12.956      870.755
12/10/2013  03:51:00      -69.601      -12.144       -8.824       27.462       13.827       12.871      754.185      191.199      165.651        0.309        0.056       70.653       11.370        0.026      323.723      -13.090      870.757
12/10/2013  03:52:00      -79.010      -10.702       -7.430       32.776       25.370       15.403     1074.267      643.632      237.238        0.418        0.098       79.731       16.566        0.043      323.615      -13.263      870.759
12/10/2013  03:53:00      -49.581      -21.973       -0.071       24.959       20.361       16.128      622.944      414.565      260.124        0.212        0.065       54.232       14.239        0.069      323.592      -13.300      870.757
12/10/2013  03:54:00      -38.708       -4.514       -3.525       20.177       13.449       11.363      407.098      180.886      129.107        0.112        0.036       38.970        8.138        0.044      323.558      -13.355      870.754
12/10/2013  03:55:00      -80.159      -10.466       -8.595       17.762       13.613        9.851      315.505      185.303       97.036        0.360        0.030       80.839        5.135        0.004      323.541      -13.381      870.746
12/10/2013  03:56:00      -76.015      -10.089       -8.363       17.180       10.589       11.815      295.158      112.121      139.604        0.325        0.027       76.682       11.354        0.022      323.505      -13.441      870.734
12/10/2013  03:57:00      -50.772      -12.505       -5.015       14.831        8.150        8.989      219.955       66.421       80.802        0.156        0.018       52.290        8.325        0.025      323.520      -13.417      870.701
12/10/2013  03:58:00      -28.202       -1.375        0.809        7.121        4.005        3.573       50.707       16.043       12.766        0.044        0.004       28.236        2.278        0.007      323.864      -12.864      870.684
12/10/2013  03:59:00      -29.830      -10.063       -4.324       10.830        9.946        6.433      117.294       98.927       41.386        0.063        0.013       31.481        6.046        0.037      323.922      -12.769      870.683
12/10/2013  04:00:00      -48.873      -13.402       -5.561       10.515        8.819        7.008      110.564       77.769       49.113        0.142        0.012       50.677        3.955        0.006      323.717      -13.099      870.688
12/10/2013  04:01:00      -52.753      -11.380       -8.587        5.776       10.086        7.837       33.366      101.729       61.414        0.159        0.010       53.966        3.280        0.004      323.672      -13.171      870.678
12/10/2013  04:02:00      -47.434      -11.344       -4.730       11.860        9.090        9.318      140.662       82.634       86.833        0.136        0.016       48.771        5.840        0.014      323.734      -13.074      870.665
12/10/2013  04:03:00      -73.050      -11.463      -10.430       14.482        9.785        7.725      209.732       95.753       59.680        0.297        0.018       73.944        5.562        0.006      323.594      -13.296      870.648
12/10/2013  04:04:00      -83.633      -10.919       -8.745       13.895       12.037       10.155      193.061      144.888      103.120        0.382        0.022       84.343        8.174        0.009      323.552      -13.364      870.643
12/10/2013  04:05:00      -67.885      -19.733       -6.264       16.354       14.474        9.818      267.450      209.507       96.400        0.281        0.029       70.695        9.357        0.018      323.485      -13.472      870.630
12/10/2013  04:06:00      -73.128      -23.430       -9.670       13.426       14.338       10.020      180.259      205.583      100.409        0.324        0.024       76.790        7.907        0.011      323.462      -13.508      870.607
12/10/2013  04:07:00      -78.394      -19.250      -12.124       12.130       14.230        9.090      147.148      202.500       82.624        0.355        0.022       80.723        5.939        0.005      323.498      -13.452      870.590
12/10/2013  04:08:00      -94.695      -29.402       -9.122       14.280       20.530       11.103      203.916      421.487      123.269        0.533        0.037       99.154        8.543        0.007      323.442      -13.541      870.592
12/10/2013  04:09:00     -101.160       -4.752      -12.063       26.225       19.848       17.593      687.770      393.927      309.516        0.590        0.070      101.272       14.777        0.021      323.328      -13.723      870.603
12/10/2013  04:10:00     -109.954      -15.499       -7.830       28.324       15.793       16.956      802.238      249.426      287.518        0.687        0.067      111.041       11.424        0.011      323.336      -13.710      870.613
12/10/2013  04:11:00     -111.697        2.826       -8.554       24.046       17.792       15.456      578.202      316.570      238.886        0.685        0.057      111.733       12.399        0.012      323.305      -13.761      870.633
12/10/2013  04:12:00      -87.489      -22.647       -2.865       31.100       22.710       16.429      967.239      515.754      269.921        0.496        0.088       90.373       18.343        0.041      323.351      -13.687      870.632
12/10/2013  04:13:00     -125.382      -18.972      -10.303       26.121       18.326       14.165      682.325      335.838      200.643        0.870        0.061      126.810       12.439        0.010      323.179      -13.964      870.619
12/10/2013  04:14:00     -114.255      -22.567       -9.472       31.548       25.518       15.957      995.256      651.151      254.638        0.778        0.095      116.462       13.005        0.012      323.198      -13.934      870.593
12/10/2013  04:15:00      -64.676      -17.585       -0.150       34.294       27.080       18.950     1176.072      733.324      359.095        0.338        0.113       67.024       15.624        0.054      323.340      -13.704      870.569
12/10/2013  04:16:00      -96.396      -32.067       -5.567       28.257       23.782       17.070      798.485      565.572      291.394        0.600        0.083      101.589       15.343        0.023      323.476      -13.485      870.547
12/10/2013  04:17:00      -95.329       -5.313       -4.582       32.478       21.845       17.026     1054.836      477.192      289.891        0.548        0.091       95.477       12.610        0.017      323.400      -13.609      870.519
12/10/2013  04:18:00      -95.233       -1.239       -5.027       29.044       12.811       11.851      843.544      164.129      140.457        0.512        0.057       95.241       12.672        0.018      323.417      -13.582      870.516
12/10/2013  04:19:00      -66.397       -5.179       -3.864       17.402       12.019       11.087      302.821      144.453      122.924        0.251        0.029       66.599        7.194        0.012      323.482      -13.477      870.523
12/10/2013  04:20:00      -41.424       -7.353        1.629       24.835       19.961       10.483      616.778      398.427      109.892        0.145        0.056       42.072        8.914        0.045      323.510      -13.432      870.523
12/10/2013  04:21:00      -53.364       -1.482        0.456       25.212       15.380       13.714      635.669      236.552      188.064        0.196        0.053       53.385       10.802        0.041      323.486      -13.472      870.521
12/10/2013  04:22:00      -68.654      -10.331       -2.352       28.375       15.476       13.927      805.166      239.518      193.961        0.303        0.062       69.427       15.591        0.050      323.471      -13.494      870.500
12/10/2013  04:23:00      -61.510       -3.341       -3.734       17.982       16.780       10.283      323.365      281.552      105.737        0.226        0.036       61.601       10.038        0.027      323.463      -13.507      870.482
12/10/2013  04:24:00      -61.453       -9.628       -4.319       12.659       12.954        8.913      160.248      167.812       79.435        0.215        0.020       62.203        5.621        0.008      323.468      -13.499      870.464
12/10/2013  04:25:00      -72.656       -6.168      -12.326        9.688        9.592        9.278       93.857       91.997       86.081        0.287        0.014       72.917        4.448        0.004      323.443      -13.539      870.447
12/10/2013  04:26:00      -65.261       -8.390       -7.865       13.580       11.077        9.927      184.427      122.701       98.541        0.240        0.020       65.798        6.893        0.011      323.452      -13.526      870.441
12/10/2013  04:27:00      -58.687      -16.292       -5.142        7.947        8.483        6.154       63.154       71.966       37.875        0.195        0.009       60.907        2.345        0.001      323.550      -13.366      870.440
12/10/2013  04:28:00      -46.802      -19.171       -6.768       11.007       10.221        6.505      121.148      104.475       42.317        0.144        0.013       50.577        5.240        0.011      323.621      -13.253      870.418
12/10/2013  04:29:00      -40.068      -21.193       -7.634       13.111       12.346       10.854      171.901      152.416      117.815        0.128        0.022       45.328        5.338        0.014      323.592      -13.300      870.400
12/10/2013  04:30:00      -49.293      -20.730       -5.221       13.033       12.993       11.339      169.849      168.824      128.577        0.168        0.023       53.474        7.314        0.019      323.549      -13.371      870.396
12/10/2013  04:31:00      -51.176       -8.455       -6.887        9.337        7.741        5.961       87.177       59.920       35.533        0.146        0.009       51.870        2.093        0.002      323.553      -13.363      870.387
12/10/2013  04:32:00      -48.051      -17.563       -6.719       11.011       10.455        7.373      121.250      109.299       54.365        0.147        0.014       51.160        1.985        0.002      323.615      -13.262      870.385
12/10/2013  04:33:00      -63.600      -12.167       -8.372       10.496       12.440        7.486      110.164      154.741       56.041        0.229        0.016       64.753        2.502        0.001      323.512      -13.428      870.384
12/10/2013  04:34:00      -78.654      -13.460       -6.397       17.646       16.492       11.689      311.381      271.971      136.628        0.356        0.036       79.797        9.225        0.013      323.447      -13.532      870.371
12/10/2013  04:35:00     -105.275       -8.535      -13.903       17.467       18.886       11.735      305.095      356.666      137.715        0.607        0.040      105.621        5.839        0.003      323.330      -13.722      870.352
12/10/2013  04:36:00      -90.943       -0.609      -12.850       30.906       24.766       16.246      955.166      613.362      263.924        0.513        0.092       90.945       15.440        0.029      323.340      -13.704      870.340
12/10/2013  04:37:00      -74.820       -6.382      -13.957       18.391       21.082       14.703      338.247      444.464      216.193        0.342        0.050       75.092       10.963        0.021      323.371      -13.656      870.348
12/10/2013  04:38:00      -70.979       -6.717      -13.249       18.023       13.056       13.285      324.834      170.460      176.483        0.297        0.034       71.296        9.405        0.017      323.381      -13.639      870.359
12/10/2013  04:39:00      -75.481       -9.169      -13.637       14.392       12.874       13.892      207.127      165.746      192.993        0.327        0.028       76.036        6.823        0.008      323.312      -13.749      870.377
12/10/2013  04:40:00      -60.564      -15.561      -14.746       17.280        9.982       11.160      298.609       99.634      124.553        0.233        0.026       62.531        4.476        0.005      323.393      -13.619      870.386
12/10/2013  04:41:00      -27.529        0.953       -6.803       25.523        7.584        9.335      651.408       57.520       87.147        0.080        0.040       27.545       10.948        0.158      323.456      -13.518      870.391
12/10/2013  04:42:00      -13.740      -10.327       -4.517        7.566        9.158        6.237       57.247       83.864       38.898        0.025        0.009       17.188        3.450        0.040      323.551      -13.367      870.386
12/10/2013  04:43:00      -16.576       -5.559       -0.025       14.876        7.342        8.056      221.299       53.910       64.904        0.032        0.017       17.483        4.168        0.057      323.653      -13.200      870.377
12/10/2013  04:44:00       -9.026      -14.134        3.282       11.268       11.731        8.778      126.957      137.609       77.056        0.032        0.017       16.770        8.609        0.264      323.653      -13.203      870.352
12/10/2013  04:45:00      -20.733      -10.945        4.965       27.445       11.154       10.247      753.202      124.414      105.006        0.078        0.049       23.445        9.361        0.159      323.575      -13.329      870.335
12/10/2013  04:46:00      -95.809      -13.179      -11.457       16.244       11.764       11.351      263.877      138.398      128.854        0.501        0.027       96.711        5.704        0.003      323.431      -13.558      870.334
12/10/2013  04:47:00      -92.249       -8.157       -6.415       19.932       15.319       12.009      397.284      234.683      144.212        0.470        0.039       92.608        6.681        0.005      323.356      -13.678      870.322
12/10/2013  04:48:00      -57.558       -4.002        1.196       21.571        7.911        8.862      465.293       62.588       78.534        0.197        0.030       57.697       10.422        0.033      323.372      -13.654      870.323
12/10/2013  04:49:00       -9.246       -6.624       -3.773       27.421        6.508        8.441      751.918       42.355       71.243        0.050        0.043       11.373        9.337        0.674      323.597      -13.293      870.326
12/10/2013  04:50:00       12.747       11.130        1.033       10.174       10.602        7.918      103.520      112.394       62.691        0.028        0.014       16.922        6.978        0.170      323.810      -12.951      870.332
12/10/2013  04:51:00        3.873        8.278       -0.446        8.925        5.029        6.803       79.653       25.296       46.287        0.012        0.008        9.140        6.005        0.432      323.873      -12.848      870.343
12/10/2013  04:52:00      -49.994       -7.368       -0.292       21.833        7.419        7.001      476.662       55.048       49.011        0.157        0.029       50.534        4.579        0.008      323.540      -13.383      870.350
12/10/2013  04:53:00      -92.602       -3.572      -11.252       14.997       11.922       11.589      224.907      142.125      134.312        0.461        0.025       92.671        7.948        0.007      323.384      -13.633      870.347
12/10/2013  04:54:00      -92.471        6.831      -11.357       14.161        9.511       13.254      200.541       90.452      175.680        0.460        0.023       92.723        5.796        0.004      323.344      -13.698      870.359
12/10/2013  04:55:00      -58.095        5.997       -7.899       17.572       11.379        9.800      308.791      129.490       96.032        0.200        0.027       58.404        5.579        0.009      323.286      -13.792      870.381
12/10/2013  04:56:00      -50.347       -3.063      -10.733       12.558        9.224        7.474      157.705       85.076       55.856        0.148        0.015       50.440        2.485        0.002      323.329      -13.723      870.401
12/10/2013  04:57:00      -49.147      -11.787       -7.760       10.329        9.142        6.712      106.695       83.568       45.045        0.142        0.012       50.541        3.628        0.005      323.434      -13.554      870.397
12/10/2013  04:58:00      -65.906      -17.661      -10.909        8.485       12.818        6.613       71.996      164.301       43.737        0.253        0.014       68.232        4.431        0.004      323.499      -13.449      870.371
12/10/2013  04:59:00      -99.586      -10.162      -11.383       19.999       15.740       11.733      399.952      247.743      137.671        0.547        0.039      100.103        8.055        0.006      323.296      -13.774      870.336
12/10/2013  05:00:00     -108.146        1.983      -14.335       12.386        9.622       10.618      153.411       92.583      112.750        0.613        0.018      108.164        6.797        0.004      323.290      -13.785      870.318
12/10/2013  05:01:00      -84.018       -3.160      -12.337       14.179       11.071        8.071      201.044      122.557       65.137        0.380        0.019       84.077        4.282        0.003      323.428      -13.563      870.316
12/10/2013  05:02:00      -89.385       -3.346      -11.528       10.858       11.285       10.625      117.887      127.354      112.890        0.425        0.018       89.448        4.445        0.002      323.420      -13.575      870.321
12/10/2013  05:03:00      -83.860       -6.029      -10.579       13.313        9.606       10.900      177.236       92.276      118.820        0.378        0.019       84.077        6.611        0.006      323.463      -13.507      870.313
12/10/2013  05:04:00      -67.795      -13.282       -3.190       13.581       16.490       10.938      184.446      271.933      119.643        0.268        0.029       69.084        8.648        0.016      323.532      -13.396      870.301
12/10/2013  05:05:00      -56.613      -11.653       -6.206       14.543       14.360       10.589      211.509      206.205      112.125        0.195        0.026       57.800        9.482        0.027      323.539      -13.385      870.278
12/10/2013  05:06:00      -46.693        0.906       -6.341        9.404       10.859        7.915       88.438      117.929       62.648        0.125        0.013       46.701        2.170        0.002      323.565      -13.343      870.250
12/10/2013  05:07:00      -33.007      -11.972       -9.734        7.207        8.180        7.447       51.935       66.910       55.459        0.075        0.009       35.111        1.489        0.002      323.656      -13.195      870.229
12/10/2013  05:08:00      -30.180       -8.176       -0.571        6.859        9.056        6.540       47.051       82.014       42.775        0.057        0.009       31.268        4.184        0.018      323.711      -13.110      870.217
12/10/2013  05:09:00      -44.517        1.907       -3.410       10.282        9.061        6.561      105.727       82.105       43.047        0.111        0.012       44.557        3.267        0.005      323.750      -13.046      870.229
12/10/2013  05:10:00      -54.442       -4.202       -3.024       10.969       10.228        7.768      120.324      104.613       60.339        0.164        0.014       54.604        3.595        0.004      323.629      -13.242      870.258
12/10/2013  05:11:00      -31.882       -2.462        1.693       12.526       11.183       11.789      156.912      125.055      138.991        0.072        0.021       31.977        9.037        0.080      323.609      -13.273      870.289
12/10/2013  05:12:00      -38.931        8.003       -2.860       11.780       17.198       12.543      138.780      295.784      157.338        0.109        0.030       39.745        8.828        0.049      323.525      -13.408      870.326
12/10/2013  05:13:00      -50.270       -3.075       -4.312       20.385       15.665       11.503      415.564      245.401      132.308        0.167        0.040       50.364        9.010        0.032      323.510      -13.432      870.363
12/10/2013  05:14:00      -18.028       -5.368       -5.864       13.714        8.641        7.873      188.073       74.666       61.991        0.036        0.016       18.810        5.358        0.081      323.536      -13.390      870.388
12/10/2013  05:15:00        9.325       11.832       -2.862       10.533        9.934        5.059      110.946       98.684       25.595        0.024        0.012       15.065        4.323        0.082      323.663      -13.188      870.398
12/10/2013  05:16:00       23.576        6.437       -4.734       14.126        8.916        9.049      199.538       79.500       81.882        0.049        0.018       24.439        7.886        0.104      323.861      -12.869      870.395
12/10/2013  05:17:00        6.596        3.724       14.424       12.681        8.080        5.612      160.799       65.280       31.489        0.026        0.013        7.575        5.734        0.573      323.861      -12.868      870.381
12/10/2013  05:18:00       13.157       15.291        8.025       10.042        7.788        9.305      100.833       60.660       86.577        0.036        0.012       20.172        5.725        0.081      323.832      -12.915      870.382
12/10/2013  05:19:00       28.717       16.364        9.642       10.415        5.754        6.634      108.469       33.108       44.011        0.069        0.009       33.052        4.909        0.022      323.862      -12.867      870.389
12/10/2013  05:20:00       28.515       15.368       15.736       14.327       15.502       10.279      205.259      240.304      105.668        0.092        0.028       32.393        5.962        0.034      323.818      -12.938      870.380
12/10/2013  05:21:00       30.862       17.327       13.200       12.229        7.630       10.678      149.541       58.221      114.015        0.087        0.016       35.393        4.351        0.015      323.892      -12.817      870.371
12/10/2013  05:22:00        6.087        5.363       12.018       16.257       11.040        6.541      264.306      121.879       42.790        0.032        0.021        8.113        4.715        0.338      323.838      -12.905      870.367
12/10/2013  05:23:00      -27.438      -14.013       -1.694        7.890        7.750        8.334       62.253       60.065       69.456        0.057        0.010       30.809        6.057        0.039      323.562      -13.350      870.360
12/10/2013  05:24:00      -26.243       -9.211       -5.959        7.072        6.952        5.732       50.016       48.324       32.860        0.047        0.007       27.813        4.108        0.022      323.488      -13.468      870.354
12/10/2013  05:25:00      -25.276      -10.710        0.624        5.943        9.887        9.004       35.325       97.757       81.071        0.048        0.011       27.451        4.481        0.027      323.534      -13.393      870.340
12/10/2013  05:26:00        4.180        7.736       -4.403       16.212       14.583       12.547      262.825      212.678      157.421        0.036        0.032        8.793        9.696        1.216      323.711      -13.109      870.321
12/10/2013  05:27:00       -2.389       -6.127        8.369        5.461        6.020        6.964       29.823       36.235       48.495        0.011        0.006        6.576        4.942        0.565      323.793      -12.977      870.304
12/10/2013  05:28:00       -4.731       -0.561       11.110        4.826        7.848        5.035       23.287       61.588       25.347        0.013        0.006        4.764        4.443        0.870      323.856      -12.876      870.293
12/10/2013  05:29:00       -6.676       11.378       21.222        7.042        9.010        6.171       49.596       81.178       38.086        0.040        0.008       13.192        5.423        0.169      323.858      -12.873      870.286
12/10/2013  05:30:00       17.487        6.477        4.263       14.322       14.271       14.634      205.112      203.669      214.141        0.049        0.031       18.648       14.147        0.576      323.765      -13.024      870.287
12/10/2013  05:31:00       16.301       11.505        5.220        8.439        8.833        6.917       71.220       78.018       47.838        0.031        0.010       19.952        3.937        0.039      323.831      -12.917      870.288
12/10/2013  05:32:00       25.844       26.948        7.419       15.336        7.831        8.953      235.193       61.324       80.150        0.091        0.019       37.337        3.087        0.007      323.830      -12.919      870.311
12/10/2013  05:33:00       15.354       27.777       -0.699       12.163       12.854       11.451      147.951      165.224      131.118        0.073        0.022       31.738        7.722        0.059      323.746      -13.053      870.340
12/10/2013  05:34:00       26.947       17.751        0.497       12.865       10.673       11.550      165.518      113.903      133.410        0.073        0.021       32.268        5.841        0.033      323.787      -12.987      870.352
12/10/2013  05:35:00       15.090       10.459        9.501        9.223        7.985        8.893       85.056       63.761       79.081        0.033        0.011       18.360        5.421        0.087      323.808      -12.952      870.359
12/10/2013  05:36:00       -6.477       13.328       20.661       22.601       11.469        8.296      510.791      131.535       68.819        0.068        0.036       14.818        3.719        0.063      323.730      -13.078      870.361
12/10/2013  05:37:00       -2.770       20.507       11.060       19.223       13.360        7.681      369.515      178.478       58.996        0.058        0.030       20.694        5.400        0.068      323.747      -13.051      870.373
12/10/2013  05:38:00       19.762       10.967       15.088       21.953        9.946        9.449      481.950       98.931       89.281        0.070        0.034       22.602        8.015        0.126      323.800      -12.964      870.396
12/10/2013  05:39:00       35.891       22.682       18.459       15.920       14.313       14.252      253.441      204.875      203.108        0.140        0.033       42.457        9.939        0.055      323.836      -12.907      870.394
12/10/2013  05:40:00        9.760       17.883       26.914       18.205       15.884       10.205      331.431      252.288      104.138        0.091        0.034       20.373       11.724        0.331      323.833      -12.913      870.389
12/10/2013  05:41:00        5.003       16.715       30.009       12.878       14.763        8.050      165.854      217.940       64.795        0.083        0.022       17.447        7.807        0.200      323.822      -12.931      870.373
12/10/2013  05:42:00        1.381       18.760       36.574       14.802       18.501        7.142      219.103      342.278       51.014        0.115        0.031       18.810        4.021        0.046      323.853      -12.881      870.354
12/10/2013  05:43:00       -4.235       18.915       37.681        5.907       16.273        9.205       34.889      264.822       84.738        0.109        0.019       19.383       10.317        0.283      323.860      -12.870      870.353
12/10/2013  05:44:00       10.155        5.093       24.390       13.984       21.116       12.853      195.563      445.899      165.209        0.077        0.040       11.361       10.365        0.832      323.931      -12.755      870.355
12/10/2013  05:45:00       -2.394       10.442       34.957       13.759       29.738       16.220      189.306      884.332      263.080        0.134        0.067       10.713       20.370        3.616      323.959      -12.710      870.356
12/10/2013  05:46:00       -7.042        9.123       21.910        9.306       14.317       12.915       86.607      204.974      166.808        0.054        0.023       11.525        3.988        0.120      323.971      -12.691      870.366
12/10/2013  05:47:00       -7.741        9.102       19.911       18.442       11.301       10.975      340.110      127.719      120.455        0.056        0.029       11.949        8.638        0.523      323.941      -12.741      870.381
12/10/2013  05:48:00       28.585       11.476        6.084       14.949        9.767       12.066      223.459       95.397      145.581        0.073        0.023       30.803        7.661        0.062      323.949      -12.728      870.385
12/10/2013  05:49:00       39.191       28.093       12.356       16.770       15.304       13.442      281.244      234.210      180.680        0.159        0.035       48.220        7.232        0.022      323.947      -12.730      870.376
12/10/2013  05:50:00        3.580        8.189       20.283       11.942       10.282       10.876      142.608      105.724      118.294        0.043        0.018        8.937        4.817        0.290      323.956      -12.716      870.367
12/10/2013  05:51:00       16.450      -13.616       20.594       16.444       32.644       18.850      270.407     1065.639      355.322        0.129        0.085       21.354       18.368        0.740      323.996      -12.651      870.370
12/10/2013  05:52:00       40.487      -49.827       -5.961       26.998       37.853       19.530      728.913     1432.854      381.437        0.335        0.127       64.202       17.523        0.074      324.069      -12.535      870.372
12/10/2013  05:53:00       24.947      -37.959       10.825       24.082       29.053       18.997      579.952      844.049      360.886        0.198        0.089       45.423       21.124        0.216      324.073      -12.526      870.381
12/10/2013  05:54:00      -16.179      -19.335        4.033       12.898       15.337        8.033      166.347      235.213       64.526        0.056        0.023       25.212        1.829        0.005      323.918      -12.776      870.381
12/10/2013  05:55:00      -26.407      -13.348        5.415       13.049       13.527        9.457      170.268      182.975       89.434        0.067        0.022       29.588        6.473        0.048      323.825      -12.926      870.385
12/10/2013  05:56:00      -19.478        7.873        0.244       12.770        8.255       10.926      163.068       68.148      119.378        0.040        0.018       21.009        9.639        0.210      323.823      -12.929      870.395
12/10/2013  05:57:00        0.903        8.285       -1.826       11.242        7.581        7.063      126.388       57.477       49.882        0.015        0.012        8.334        3.302        0.157      323.845      -12.893      870.405
12/10/2013  05:58:00       -0.580        7.650        3.911       12.192        7.979        5.433      148.657       63.659       29.521        0.016        0.012        7.672        2.587        0.114      324.003      -12.641      870.423
12/10/2013  05:59:00        0.212       19.183        4.390       14.246       12.096        8.903      202.937      146.323       79.263        0.041        0.021       19.184        7.656        0.159      323.990      -12.662      870.437
12/10/2013  06:00:00      -20.852       12.624       -0.964       11.548        7.432        6.295      133.360       55.241       39.622        0.041        0.011       24.376        3.379        0.019      323.908      -12.791      870.436
12/10/2013  06:01:00      -16.312       -3.108       -5.414       12.847        6.650        7.572      165.052       44.219       57.338        0.029        0.013       16.605        4.788        0.083      323.741      -13.061      870.454
12/10/2013  06:02:00      -23.157        6.120       -1.163        8.698        5.767        6.938       75.650       33.257       48.133        0.037        0.008       23.953        3.761        0.025      323.650      -13.206      870.479
12/10/2013  06:03:00      -28.683       14.707       -0.975       10.189       11.851        6.074      103.823      140.448       36.893        0.066        0.014       32.234        6.535        0.041      323.687      -13.146      870.499
12/10/2013  06:04:00      -30.823        9.631       -6.691        9.987       14.001        9.091       99.745      196.023       82.638        0.073        0.019       32.292        4.243        0.017      323.634      -13.233      870.518
12/10/2013  06:05:00      -34.472       -1.123       -4.694        9.773       10.269        6.401       95.517      105.460       40.976        0.073        0.012       34.491        5.855        0.029      323.595      -13.296      870.526
12/10/2013  06:06:00      -36.888      -15.837       -7.450       13.873        9.770        6.615      192.456       95.453       43.759        0.100        0.017       40.143        2.611        0.004      323.532      -13.396      870.544
12/10/2013  06:07:00      -46.974      -17.198       -8.687        9.586       10.162        8.018       91.891      103.259       64.282        0.142        0.013       50.023        4.347        0.008      323.481      -13.479      870.575
12/10/2013  06:08:00      -19.137       -7.326       -4.227        9.859        7.703        6.872       97.203       59.340       47.220        0.032        0.010       20.491        5.525        0.073      323.549      -13.368      870.585
12/10/2013  06:09:00      -31.226      -17.632        0.323       13.472        9.273        7.830      181.504       85.983       61.309        0.081        0.016       35.860        4.282        0.014      323.456      -13.519      870.579
12/10/2013  06:10:00      -44.094      -10.710       -2.857        8.348        8.650       10.527       69.690       74.822      110.807        0.116        0.013       45.376        4.729        0.011      323.484      -13.473      870.575
12/10/2013  06:11:00      -36.996       -1.965       -6.447       17.428       14.230       14.243      303.746      202.507      202.854        0.106        0.035       37.048       14.242        0.148      323.441      -13.543      870.552
12/10/2013  06:12:00      -60.242       -7.366       -9.311       18.669       13.342       11.592      348.530      178.021      134.378        0.222        0.033       60.691       11.953        0.039      323.362      -13.670      870.531
12/10/2013  06:13:00      -67.283       -6.642       -8.754       20.336       16.274       11.178      413.535      264.835      124.948        0.273        0.040       67.610        7.657        0.013      323.379      -13.642      870.519
12/10/2013  06:14:00      -72.787       -7.590      -10.156       13.497       11.022        9.989      182.176      121.476       99.787        0.293        0.020       73.182        4.608        0.004      323.421      -13.576      870.512
12/10/2013  06:15:00     -108.298       -8.417      -12.538       15.967       13.766       11.166      254.934      189.496      124.673        0.626        0.028      108.624        7.871        0.005      323.433      -13.554      870.518
12/10/2013  06:16:00      -91.486        0.029       -1.017       29.093       16.343       16.340      846.400      267.083      266.992        0.488        0.069       91.486       17.634        0.037      323.418      -13.579      870.533
12/10/2013  06:17:00      -73.923       -4.769       -3.128       37.936       18.728       19.343     1439.119      350.749      374.133        0.383        0.108       74.076       19.773        0.071      323.460      -13.512      870.537
12/10/2013  06:18:00      -92.330       -4.355       -3.523       26.693       20.000       11.229      712.507      400.015      126.086        0.490        0.062       92.432       10.907        0.014      323.479      -13.481      870.538
12/10/2013  06:19:00     -110.986        0.113      -10.610       19.586       12.329       12.036      383.596      152.010      144.868        0.656        0.034      110.986       10.302        0.009      323.442      -13.541      870.537
12/10/2013  06:20:00      -66.856      -12.165       -1.401       34.243       19.987       17.028     1172.593      399.496      289.955        0.324        0.093       67.954       18.590        0.075      323.456      -13.519      870.541
12/10/2013  06:21:00     -106.558       -9.766      -10.708       26.384       20.913       15.608      696.132      437.340      243.612        0.647        0.069      107.004       12.891        0.015      323.436      -13.551      870.548
12/10/2013  06:22:00      -92.608      -14.380       -5.547       29.713       22.823       14.859      882.875      520.876      220.797        0.522        0.081       93.718       10.267        0.012      323.471      -13.495      870.550
12/10/2013  06:23:00      -59.572      -15.305        1.173       39.123       23.760       15.550     1530.622      564.529      241.797        0.306        0.117       61.506       16.623        0.073      323.504      -13.441      870.545
12/10/2013  06:24:00      -46.545        2.218       -3.188       32.217       25.354       15.481     1037.939      642.804      239.658        0.205        0.096       46.597       17.153        0.136      323.516      -13.424      870.539
12/10/2013  06:25:00      -87.822      -24.761       -6.770       20.908       21.917       16.729      437.152      480.369      279.873        0.478        0.060       91.246       13.389        0.022      323.461      -13.510      870.539
12/10/2013  06:26:00      -93.722      -12.700       -5.980       33.113       25.361       14.799     1096.479      643.203      219.011        0.547        0.098       94.578       13.534        0.020      323.382      -13.637      870.554
12/10/2013  06:27:00      -78.901      -15.226       -5.778       28.437       30.922       18.770      808.648      956.196      352.313        0.430        0.106       80.356       15.872        0.039      323.368      -13.659      870.573
12/10/2013  06:28:00     -107.911        5.573       -8.546       24.028       28.154       16.803      577.326      792.667      282.350        0.670        0.083      108.055        8.672        0.006      323.459      -13.514      870.595
12/10/2013  06:29:00     -108.935        2.621      -10.041       28.469       30.885       21.786      810.476      953.897      474.629        0.711        0.112      108.966       17.045        0.024      323.417      -13.581      870.613
12/10/2013  06:30:00      -86.115      -24.920        2.670       50.854       31.379       26.679     2586.136      984.641      711.750        0.616        0.214       89.649       29.721        0.110      323.333      -13.716      870.632
12/10/2013  06:31:00     -128.033        4.605      -12.155       27.261       27.972       18.845      743.139      782.422      355.140        0.922        0.094      128.116       11.439        0.008      323.258      -13.837      870.644
12/10/2013  06:32:00      -80.804       -3.313        2.145       41.275       29.679       19.021     1703.622      880.872      361.794        0.474        0.147       80.872       20.087        0.062      323.275      -13.808      870.625
12/10/2013  06:33:00      -78.046       -9.419       -4.716       29.027       24.275       19.960      842.591      589.280      398.394        0.402        0.092       78.613       17.985        0.052      323.262      -13.830      870.597
12/10/2013  06:34:00      -65.065      -35.904        3.006       39.582       33.828       20.055     1566.733     1144.336      402.197        0.432        0.156       74.314       21.956        0.087      323.333      -13.716      870.585
12/10/2013  06:35:00      -81.336      -11.169       -8.037       22.791       20.880       12.798      519.409      435.955      163.786        0.396        0.056       82.099        7.395        0.008      323.281      -13.799      870.597
12/10/2013  06:36:00      -85.943        3.174       -8.901       21.205       14.379       18.982      449.650      206.759      360.309        0.425        0.051       86.002       12.010        0.020      323.333      -13.715      870.617
12/10/2013  06:37:00      -97.013       -1.138       -9.369       22.097        9.304       14.294      488.266       86.571      204.317        0.514        0.039       97.019       14.695        0.023      323.317      -13.742      870.642
12/10/2013  06:38:00      -83.269      -10.013       -4.946       18.146       16.107       12.051      329.272      259.451      145.231        0.390        0.037       83.869        9.665        0.013      323.407      -13.597      870.657
12/10/2013  06:39:00      -34.937      -17.043        0.490       25.828       15.293        9.529      667.107      233.862       90.809        0.125        0.050       38.873        9.514        0.060      323.448      -13.532      870.659
12/10/2013  06:40:00      -30.202       -7.366        0.829       13.665       14.502       10.272      186.737      210.298      105.522        0.073        0.025       31.088        8.182        0.069      323.448      -13.531      870.681
12/10/2013  06:41:00      -36.059        6.465       -0.773       27.307       14.451       10.517      745.699      208.827      110.603        0.120        0.053       36.634       12.860        0.123      323.456      -13.519      870.720
12/10/2013  06:42:00      -48.876        3.000       -4.614       15.207       15.017       10.502      231.240      225.501      110.289        0.149        0.028       48.968        8.395        0.029      323.453      -13.523      870.756
12/10/2013  06:43:00      -93.126       17.562       -8.442       32.496       26.521       16.243     1056.021      703.384      263.823        0.554        0.101       94.768        4.484        0.002      323.442      -13.540      870.773
12/10/2013  06:44:00     -109.197       10.407      -10.498       30.112       24.216       16.567      906.704      586.414      274.481        0.695        0.088      109.692       13.483        0.015      323.527      -13.405      870.789
12/10/2013  06:45:00      -77.519        9.925       -0.698       53.475       36.969       23.098     2859.588     1366.675      533.502        0.543        0.238       78.152       24.596        0.099      323.413      -13.587      870.793
12/10/2013  06:46:00     -128.106        1.809      -14.434       37.996       27.529       22.166     1443.671      757.862      491.312        0.966        0.135      128.118       19.556        0.023      323.333      -13.715      870.798
12/10/2013  06:47:00      -52.005      -13.395        0.445       28.520       30.786       17.134      813.370      947.762      293.566        0.247        0.103       53.702       11.714        0.048      323.345      -13.697      870.795
12/10/2013  06:48:00      -86.691      -19.206       -2.834       22.991       25.655       15.608      528.603      658.178      243.625        0.466        0.072       88.793       10.593        0.014      323.233      -13.877      870.799
12/10/2013  06:49:00      -84.590      -42.759       -6.714       25.278       29.218       16.457      638.979      853.673      270.821        0.540        0.088       94.783       13.996        0.022      323.241      -13.863      870.811
12/10/2013  06:50:00      -67.500      -32.848       -3.419       26.161       22.149       16.199      684.384      490.564      262.423        0.354        0.072       75.068       11.467        0.023      323.196      -13.937      870.825
12/10/2013  06:51:00      -81.916      -26.674        4.002       30.640       23.214       16.759      938.818      538.886      280.862        0.460        0.088       86.150       16.879        0.038      323.189      -13.947      870.832
12/10/2013  06:52:00     -106.953      -28.422       -7.217       24.986       16.923       15.450      624.307      286.381      238.697        0.672        0.057      110.665       13.641        0.015      323.250      -13.850      870.828
12/10/2013  06:53:00     -108.868       -4.116       -4.524       27.754       24.883       18.363      770.264      619.145      337.196        0.681        0.086      108.946       12.394        0.013      323.272      -13.813      870.822
12/10/2013  06:54:00     -111.392        5.296       -7.619       23.095       24.559       15.047      533.366      603.153      226.426        0.693        0.068      111.518        8.759        0.006      323.293      -13.780      870.805
12/10/2013  06:55:00     -121.875        7.299      -17.687       20.376       19.993       15.014      415.189      399.723      225.421        0.813        0.052      122.093       10.750        0.008      323.290      -13.786      870.787
12/10/2013  06:56:00     -100.878       -3.101      -10.167       32.830       23.551       21.743     1077.788      554.657      472.741        0.620        0.105      100.926       20.213        0.040      323.329      -13.724      870.777
12/10/2013  06:57:00     -114.107       21.621      -11.947       33.084       28.507       15.823     1094.543      812.652      250.355        0.789        0.108      116.138       10.951        0.009      323.284      -13.795      870.779
12/10/2013  06:58:00     -131.154        6.179       -5.376       25.476       22.191       21.714      649.012      492.458      471.497        0.944        0.081      131.300       16.838        0.016      323.293      -13.780      870.802
12/10/2013  06:59:00     -113.858        2.711      -14.468       27.839       24.639       18.514      775.034      607.073      342.780        0.745        0.086      113.890       11.589        0.010      323.304      -13.763      870.829
12/10/2013  07:00:00     -146.215       28.943      -10.169       42.613       26.497       14.214     1815.830      702.080      202.039        1.252        0.136      149.052       10.740        0.005      323.250      -13.849      870.858
12/10/2013  07:01:00     -134.795       24.868      -12.438       28.629       23.780       13.870      819.603      565.492      192.382        1.026        0.079      137.069        8.284        0.004      323.271      -13.816      870.877
12/10/2013  07:02:00     -102.949      -13.783       -4.884       41.108       23.998       21.487     1689.893      575.882      461.691        0.677        0.136      103.868       21.615        0.043      323.303      -13.764      870.894
12/10/2013  07:03:00     -113.195      -31.318       -8.159       37.507       29.758       19.232     1406.801      885.554      369.853        0.826        0.133      117.448       15.205        0.017      323.219      -13.899      870.897
12/10/2013  07:04:00      -79.223      -33.834       -6.236       37.991       34.920       21.559     1443.319     1219.393      464.806        0.529        0.156       86.145       15.993        0.034      323.253      -13.844      870.887
12/10/2013  07:05:00      -81.112      -40.153       -2.854       23.622       22.721       18.168      558.009      516.238      330.070        0.480        0.070       90.506        7.988        0.008      323.252      -13.847      870.877
12/10/2013  07:06:00      -70.798      -36.509       -3.082       25.584       28.044       14.956      654.555      786.485      223.673        0.401        0.083       79.657       13.882        0.030      323.249      -13.852      870.870
12/10/2013  07:07:00      -92.353      -36.623       -8.107       20.810       22.330       12.135      433.054      498.631      147.255        0.551        0.054       99.350        8.730        0.008      323.249      -13.851      870.851
12/10/2013  07:08:00      -78.421      -40.232       -4.658       24.827       27.182       18.296      616.398      738.850      334.739        0.474        0.084       88.139       10.338        0.014      323.377      -13.646      870.837
12/10/2013  07:09:00      -40.226      -13.392       -2.571       31.391       17.791       16.776      985.415      316.534      281.431        0.169        0.079       42.397       17.801        0.176      323.384      -13.634      870.816
12/10/2013  07:10:00        1.423       -4.254       10.271       20.985       12.076       14.949      440.368      145.836      223.487        0.047        0.040        4.485        7.063        2.480      323.422      -13.573      870.801
12/10/2013  07:11:00      -37.314      -17.895       -0.495       20.933       16.926       12.780      438.194      286.498      163.324        0.130        0.044       41.383       10.866        0.069      323.444      -13.539      870.795
12/10/2013  07:12:00      -47.854      -24.056        0.206       20.564       13.663        8.633      422.862      186.684       74.529        0.178        0.034       53.560        4.230        0.006      323.454      -13.521      870.804
12/10/2013  07:13:00       -4.297      -14.630       -0.097       12.965       12.466        7.679      168.090      155.401       58.961        0.031        0.019       15.248        6.673        0.192      323.634      -13.232      870.806
12/10/2013  07:14:00       -7.647       -6.185       -6.833        9.158        9.378        7.303       83.867       87.941       53.329        0.018        0.011        9.835        7.185        0.534      323.634      -13.232      870.816
12/10/2013  07:15:00      -34.254      -10.069      -11.184       11.032        8.465        7.760      121.715       71.651       60.215        0.083        0.013       35.703        5.786        0.026      323.599      -13.287      870.821
12/10/2013  07:16:00      -26.980       11.858        6.233        7.609       12.584        6.711       57.894      158.363       45.038        0.058        0.013       29.471        4.478        0.023      323.584      -13.311      870.828
12/10/2013  07:17:00      -29.324       37.564        1.030       19.087       15.327       10.204      364.302      234.928      104.126        0.149        0.035       47.655        6.389        0.018      323.660      -13.191      870.848
12/10/2013  07:18:00      -14.349       22.842        4.714       21.210       19.218       10.774      449.873      369.350      116.082        0.084        0.047       26.976        7.910        0.086      323.654      -13.199      870.872
12/10/2013  07:19:00      -34.016        5.831       -4.597       13.447       20.251       11.789      180.835      410.107      138.984        0.097        0.036       34.512       10.245        0.088      323.709      -13.113      870.903
12/10/2013  07:20:00      -47.003        6.793       -6.721       15.300       10.713        7.979      234.093      114.762       63.670        0.136        0.021       47.492        7.328        0.024      323.824      -12.928      870.912
12/10/2013  07:21:00      -72.137       10.707       -6.984        8.972        8.346        6.915       80.494       69.648       47.822        0.278        0.010       72.928        2.818        0.001      323.878      -12.841      870.917
12/10/2013  07:22:00      -81.189       13.185       -7.255        8.858       10.600        6.701       78.470      112.366       44.905        0.353        0.012       82.253        3.866        0.002      323.797      -12.971      870.933
12/10/2013  07:23:00      -68.500       -7.530       -6.566       10.759       10.793        6.170      115.765      116.482       38.066        0.253        0.014       68.912        4.318        0.004      323.612      -13.269      870.950
12/10/2013  07:24:00      -45.965      -23.271       -9.985       10.980       16.650        9.748      120.556      277.226       95.028        0.162        0.025       51.521        5.668        0.012      323.487      -13.470      870.967
12/10/2013  07:25:00      -48.156      -32.167       -5.372       15.808       18.580       15.442      249.891      345.202      238.457        0.211        0.042       57.912        9.062        0.024      323.469      -13.498      870.978
12/10/2013  07:26:00      -10.465       -4.840        0.922       19.832       18.113       10.850      393.320      328.086      117.724        0.049        0.042       11.530        6.607        0.328      323.531      -13.399      870.988
12/10/2013  07:27:00      -45.164      -13.289       -7.527       27.112       19.599       11.544      735.073      384.106      133.262        0.176        0.063       47.078        8.400        0.032      323.472      -13.494      871.006
12/10/2013  07:28:00      -61.147      -18.854       -2.856       28.114       16.848       17.432      790.377      283.845      303.866        0.274        0.069       63.988       10.943        0.029      323.353      -13.685      871.034
12/10/2013  07:29:00      -83.925      -16.538      -11.276       18.611       17.707       13.513      346.359      313.536      182.603        0.414        0.042       85.539       10.734        0.016      323.267      -13.823      871.050
12/10/2013  07:30:00      -96.245        1.063      -12.422       29.132       25.877       20.028      848.682      669.602      401.124        0.567        0.096       96.251       15.131        0.025      323.272      -13.814      871.068
12/10/2013  07:31:00     -111.964       -2.374      -14.077       31.525       16.948       17.242      993.846      287.233      297.270        0.716        0.079      111.989       16.945        0.023      323.240      -13.866      871.084
12/10/2013  07:32:00      -97.935       -7.899      -14.354       19.506       19.370       14.402      380.468      375.192      207.430        0.541        0.048       98.253        9.181        0.009      323.290      -13.783      871.101
12/10/2013  07:33:00      -88.906      -11.865      -13.204       15.031       19.511       14.487      225.924      380.689      209.870        0.452        0.041       89.694        7.497        0.007      323.297      -13.773      871.097
12/10/2013  07:34:00      -83.927      -13.530      -10.485        9.394       14.423       10.621       88.247      208.013      112.799        0.387        0.020       85.010        3.392        0.002      323.343      -13.700      871.107
12/10/2013  07:35:00      -83.578       -9.624       -5.944       18.468       17.234       11.706      341.059      297.004      137.023        0.394        0.039       84.130        9.584        0.013      323.397      -13.613      871.114
12/10/2013  07:36:00      -68.736       -9.184      -11.703       18.235       14.830       14.183      332.509      219.938      201.169        0.285        0.038       69.347        6.725        0.009      323.448      -13.531      871.101
12/10/2013  07:37:00      -76.112      -11.165       -7.925       18.072       11.670        9.502      326.615      136.178       90.292        0.327        0.028       76.927        3.658        0.002      323.519      -13.418      871.091
12/10/2013  07:38:00      -78.365      -12.892       -9.720       21.211       14.054       11.174      449.905      197.506      124.861        0.359        0.039       79.418       11.985        0.023      323.527      -13.403      871.110
12/10/2013  07:39:00      -67.233       -3.306       -2.784       19.020       13.796       11.295      361.774      190.324      127.571        0.261        0.034       67.314       11.035        0.027      323.583      -13.315      871.132
12/10/2013  07:40:00      -60.614        0.971       -3.978       19.882        9.925       11.341      395.288       98.507      128.621        0.216        0.031       60.622       11.229        0.034      323.635      -13.231      871.159
12/10/2013  07:41:00      -56.992        5.351       -3.738       18.572       12.618        9.258      344.925      159.206       85.717        0.194        0.029       57.242        9.736        0.029      323.693      -13.139      871.187
12/10/2013  07:42:00      -31.106       -3.960       -2.362       16.632        6.074        5.487      276.622       36.897       30.112        0.067        0.017       31.357        4.923        0.025      323.836      -12.910      871.214
12/10/2013  07:43:00      -13.284       -7.728       -4.085        8.031        5.350        4.049       64.495       28.625       16.397        0.018        0.005       15.368        3.700        0.058      324.017      -12.618      871.248
12/10/2013  07:44:00       -9.410       -3.568       -1.474        7.502        5.345        4.958       56.280       28.569       24.581        0.011        0.005       10.064        3.690        0.134      324.159      -12.388      871.273
12/10/2013  07:45:00      -28.239       -7.826       -5.859       11.978        6.691        6.381      143.477       44.773       40.722        0.056        0.011       29.303        6.434        0.048      323.970      -12.693      871.297
12/10/2013  07:46:00      -24.038       -3.770       -4.822        8.603        6.339        5.413       74.020       40.188       29.305        0.038        0.007       24.332        2.254        0.009      323.994      -12.654      871.302
12/10/2013  07:47:00      -14.894       -3.109        2.266        6.179        6.736        7.242       38.183       45.367       52.445        0.019        0.007       15.215        3.913        0.066      324.134      -12.429      871.324
12/10/2013  07:48:00       20.988       27.746       17.919       14.782       14.648       12.088      218.499      214.561      146.112        0.106        0.029       34.790        8.482        0.059      324.291      -12.177      871.343
12/10/2013  07:49:00       18.154       13.520       14.071       15.778       11.581       15.438      248.930      134.118      238.318        0.067        0.031       22.636       12.023        0.282      324.380      -12.033      871.368
12/10/2013  07:50:00       32.402       23.957        2.761       20.267       18.587       17.168      410.747      345.467      294.751        0.134        0.053       40.296       13.494        0.112      324.290      -12.177      871.360
12/10/2013  07:51:00       33.521       31.731        7.363       17.148       13.628       12.283      294.070      185.726      150.866        0.141        0.032       46.158        8.410        0.033      324.225      -12.283      871.344
12/10/2013  07:52:00        8.191        3.996       16.329       15.481        9.137        8.351      239.675       83.482       69.737        0.037        0.020        9.114        4.598        0.255      324.480      -11.873      871.331
12/10/2013  07:53:00        0.389        6.647       22.841       10.142       10.460        8.835      102.857      109.420       78.057        0.043        0.015        6.659        7.616        1.308      324.688      -11.538      871.338
12/10/2013  07:54:00      -10.506        8.543       19.403        9.255        8.984        7.173       85.656       80.714       51.446        0.039        0.011       13.541        5.990        0.196      324.636      -11.620      871.355
12/10/2013  07:55:00      -10.054       14.681       10.548        6.229        8.880       12.347       38.797       78.863      152.440        0.035        0.014       17.793        6.366        0.128      324.499      -11.842      871.365
12/10/2013  07:56:00      -21.284       10.262        4.366        8.460       10.047        9.299       71.575      100.938       86.468        0.042        0.013       23.629        7.839        0.110      324.381      -12.032      871.377
12/10/2013  07:57:00       -1.705       -8.870       15.319        7.280       10.581        6.019       52.999      111.952       36.233        0.026        0.010        9.032        3.340        0.137      324.836      -11.297      871.384
12/10/2013  07:58:00        3.367       10.427       22.642       12.932       11.096       11.618      167.227      123.121      134.975        0.053        0.021       10.957        6.959        0.403      324.749      -11.438      871.387
12/10/2013  07:59:00       19.918      -10.810       12.323       14.966       14.427       14.146      223.984      208.145      200.111        0.065        0.032       22.662        9.466        0.174      324.626      -11.637      871.377
12/10/2013  08:00:00       -5.003      -16.509        8.178        9.717       11.176       13.220       94.427      124.904      174.780        0.038        0.020       17.251        8.773        0.259      324.713      -11.496      871.362
12/10/2013  08:01:00      -23.540        4.687        0.687       15.162       19.570       11.849      229.892      382.996      140.400        0.066        0.038       24.002       12.334        0.264      324.606      -11.668      871.381
12/10/2013  08:02:00       -6.100       23.237        8.169       16.065       18.854       17.477      258.086      355.486      305.432        0.078        0.046       24.024       14.504        0.364      324.794      -11.366      871.402
12/10/2013  08:03:00        5.965       26.640       10.109       18.311       18.239       16.088      335.290      332.647      258.823        0.089        0.046       27.300       12.872        0.222      324.761      -11.419      871.409
12/10/2013  08:04:00       13.174       28.320        9.117       24.688       23.128       17.090      609.519      534.914      292.061        0.125        0.072       31.234       15.238        0.238      324.707      -11.506      871.416
12/10/2013  08:05:00       30.996       27.909        3.758       23.827       23.371       19.188      567.741      546.219      368.175        0.162        0.074       41.709       16.555        0.158      324.491      -11.855      871.417
12/10/2013  08:06:00       30.307       17.369       14.142       16.797       13.937       18.327      282.134      194.251      335.895        0.112        0.041       34.931        9.293        0.071      324.570      -11.728      871.423
12/10/2013  08:07:00        1.868        9.967        3.643       24.083        9.792       12.657      580.006       95.891      160.200        0.048        0.042       10.140       11.995        1.399      324.584      -11.704      871.420
12/10/2013  08:08:00      -34.688        4.478      -14.125        9.268       10.400        7.380       85.897      108.163       54.460        0.084        0.012       34.976        3.488        0.010      324.486      -11.862      871.419
12/10/2013  08:09:00      -32.037        8.728       -4.168       12.085       11.277        7.090      146.036      127.165       50.270        0.072        0.016       33.205        3.638        0.012      324.529      -11.795      871.426
12/10/2013  08:10:00      -48.945       -6.218       -1.797       17.192       16.117       11.461      295.557      259.772      131.364        0.156        0.034       49.338       10.051        0.041      324.624      -11.640      871.442
12/10/2013  08:11:00      -80.107      -33.558       -2.667       23.301       37.096       16.891      542.937     1376.149      285.320        0.488        0.110       86.852       18.353        0.045      324.607      -11.668      871.470
12/10/2013  08:12:00      -70.388      -42.587        0.854       34.127       24.824       14.459     1164.626      616.241      209.060        0.438        0.099       82.269       16.336        0.039      324.706      -11.508      871.494
12/10/2013  08:13:00      -80.108      -89.707       -5.981       26.899       21.607       17.115      723.580      466.848      292.933        0.799        0.074      120.269       10.276        0.007      324.700      -11.519      871.505
12/10/2013  08:14:00      -66.094      -68.388       -8.056       15.423       20.007       11.729      237.874      400.299      137.568        0.494        0.039       95.107        8.577        0.008      324.680      -11.551      871.516
12/10/2013  08:15:00       -3.590      -30.766       20.133       20.632       21.688       17.823      425.692      470.351      317.645        0.129        0.061       30.974       13.073        0.178      325.070      -10.922      871.509
12/10/2013  08:16:00       -6.908      -19.793       12.658       14.189       23.757       16.888      201.326      564.378      285.210        0.083        0.053       20.964       17.832        0.724      325.149      -10.793      871.503
12/10/2013  08:17:00       -5.382        0.427       15.688       10.218        7.391       10.765      104.401       54.633      115.880        0.028        0.014        5.399        7.455        1.907      325.283      -10.577      871.500
12/10/2013  08:18:00       12.680       11.233       11.986       24.259       12.789       14.152      588.500      163.548      200.290        0.069        0.048       16.940        8.825        0.271      325.154      -10.785      871.492
12/10/2013  08:19:00       35.556       32.552        6.182       22.484       28.511       23.189      505.550      812.886      537.727        0.211        0.093       48.207       16.607        0.119      324.897      -11.201      871.490
12/10/2013  08:20:00        4.860       25.909       27.873       23.548       17.313       21.361      554.488      299.736      456.294        0.139        0.066       26.360       17.407        0.436      325.265      -10.607      871.503
12/10/2013  08:21:00       -3.664       13.939       25.381       14.769       30.091       20.951      218.111      905.449      438.950        0.121        0.078       14.413       20.569        2.037      325.139      -10.810      871.512
12/10/2013  08:22:00        0.349       -8.502       17.738       16.000       21.997       11.960      255.984      483.861      143.045        0.063        0.044        8.509        3.813        0.201      325.316      -10.523      871.506
12/10/2013  08:23:00       14.981        1.116       22.630       32.340       28.937       26.275     1045.852      837.351      690.375        0.166        0.129       15.023       29.771        3.927      325.259      -10.615      871.489
12/10/2013  08:24:00      -14.958       30.072       56.109       12.311       21.951       20.013      151.558      481.851      400.501        0.265        0.052       33.587       14.485        0.186      325.417      -10.359      871.475
12/10/2013  08:25:00       30.716       27.022       39.896       32.354       41.601       29.168     1046.803     1730.651      850.755        0.345        0.181       40.910       33.436        0.668      325.047      -10.959      871.468
12/10/2013  08:26:00        7.284       17.564       24.471       20.574       28.532       18.596      423.293      814.091      345.827        0.127        0.079       19.015       18.370        0.933      325.348      -10.474      871.454
12/10/2013  08:27:00       33.396       22.009       10.371       23.525       15.415       19.275      553.439      237.636      371.518        0.143        0.058       39.996        6.012        0.023      325.236      -10.653      871.445
12/10/2013  08:28:00       62.504       42.666        3.712       26.149       20.669       23.606      683.762      427.210      557.266        0.370        0.083       75.678       14.954        0.039      325.089      -10.890      871.438
12/10/2013  08:29:00       66.508       55.461        6.500       24.367       21.942       27.586      593.751      481.472      760.971        0.469        0.092       86.598       16.526        0.036      325.078      -10.908      871.430
12/10/2013  08:30:00       38.799       42.852        6.378       28.852       29.984       28.603      832.423      899.063      818.123        0.297        0.127       57.807       21.673        0.141      325.241      -10.646      871.432
12/10/2013  08:31:00       -5.789       61.647       -6.780       40.464       24.061       24.034     1637.316      578.941      577.657        0.334        0.140       61.919       19.882        0.103      325.059      -10.940      871.438
12/10/2013  08:32:00      -34.205       36.237        0.648       27.044       22.817       16.195      731.374      520.614      262.293        0.200        0.076       49.831       15.823        0.101      325.189      -10.729      871.445
12/10/2013  08:33:00       -3.842        3.708       14.604       12.957        9.113       17.156      167.883       83.056      294.335        0.039        0.027        5.340        9.076        2.888      325.651       -9.983      871.438
12/10/2013  08:34:00        0.288        6.156       12.932        8.205       11.198       12.329       67.330      125.391      151.996        0.027        0.017        6.163        7.424        1.451      325.684       -9.929      871.425
12/10/2013  08:35:00       18.759       14.655       17.099       19.723       17.945       21.178      388.978      322.013      448.506        0.101        0.058       23.804       15.105        0.403      325.577      -10.102      871.413
12/10/2013  08:36:00       37.460       37.115        0.769       17.014       17.085       22.756      289.462      291.912      517.854        0.194        0.055       52.733       15.415        0.085      325.249      -10.632      871.410
12/10/2013  08:37:00       61.369       27.450       -1.852       15.490       17.314       16.613      239.955      299.783      275.983        0.267        0.041       67.228        6.872        0.010      325.079      -10.906      871.409
12/10/2013  08:38:00       54.314       42.605       -4.488       24.105       18.070       22.468      581.039      326.530      504.810        0.310        0.071       69.030        9.662        0.020      325.181      -10.741      871.413
12/10/2013  08:39:00       29.936       20.767       18.143       21.490       37.988       19.123      461.806     1443.092      365.703        0.196        0.114       36.434        9.854        0.073      325.619      -10.034      871.416
12/10/2013  08:40:00       66.162       53.054       23.570       38.441       24.864       25.397     1477.733      618.215      645.000        0.524        0.137       84.806       18.401        0.047      325.426      -10.347      871.406
12/10/2013  08:41:00       58.608       50.137       26.732       39.914       23.981       31.026     1593.099      575.089      962.609        0.490        0.157       77.128       23.776        0.095      325.608      -10.052      871.406
12/10/2013  08:42:00       15.940       56.570       81.876       34.392       35.864       25.591     1182.806     1286.196      654.904        0.664        0.156       58.773       20.320        0.120      325.710       -9.889      871.399
12/10/2013  08:43:00      114.752       94.699       27.043       83.160       40.337       55.790     6915.589     1627.081     3112.557        1.726        0.583      148.781       61.266        0.170      325.239      -10.649      871.396
12/10/2013  08:44:00      150.368       93.466       19.384       39.748       40.261       34.320     1579.889     1620.923     1177.829        1.805        0.219      177.049       26.616        0.023      325.140      -10.809      871.397
12/10/2013  08:45:00      135.815      115.825       10.784       38.698       30.145       34.126     1497.570      908.694     1164.591        1.777        0.179      178.497       17.207        0.009      324.925      -11.155      871.410
12/10/2013  08:46:00       91.497       80.679       17.021       50.211       40.127       36.245     2521.179     1610.157     1313.664        1.031        0.272      121.987       21.062        0.030      325.141      -10.806      871.420
12/10/2013  08:47:00      137.639       90.320       -6.717       29.115       35.050       26.178      847.680     1228.478      685.311        1.495        0.138      164.628       13.593        0.007      324.987      -11.054      871.436
12/10/2013  08:48:00      151.829      102.363        5.370       37.466       33.474       31.541     1403.697     1120.491      994.848        1.854        0.176      183.113       13.807        0.006      324.981      -11.064      871.439
12/10/2013  08:49:00      146.280       75.991        8.037       46.298       34.011       27.698     2143.492     1156.727      767.189        1.565        0.203      164.841       10.850        0.004      324.948      -11.118      871.445
12/10/2013  08:50:00      110.243       95.702        1.217       43.719       30.070       32.942     1911.353      904.208     1085.194        1.261        0.195      145.987       16.329        0.013      325.028      -10.989      871.451
12/10/2013  08:51:00      119.131       76.250        3.945       43.864       38.989       28.020     1924.066     1520.116      785.132        1.212        0.211      141.444       22.724        0.026      325.295      -10.558      871.460
12/10/2013  08:52:00       65.828       85.619       24.703       36.922       40.684       41.796     1363.240     1655.222     1746.922        0.852        0.238      108.000       24.476        0.051      325.434      -10.333      871.471
12/10/2013  08:53:00       45.724       61.019       34.396       56.886       53.395       37.565     3235.965     2851.070     1411.136        0.725        0.375       76.250       20.744        0.074      325.573      -10.109      871.472
12/10/2013  08:54:00       75.310       75.097       32.629       73.584       50.853       41.127     5414.569     2586.001     1691.445        1.103        0.485      106.353       45.711        0.185      325.456      -10.298      871.478
12/10/2013  08:55:00      109.453      108.717       26.130       31.919       25.407       30.212     1018.839      645.519      912.785        1.353        0.129      154.271       17.436        0.013      325.265      -10.606      871.481
12/10/2013  08:56:00       30.287       45.186       31.328       32.488       35.659       31.113     1055.446     1271.534      968.037        0.362        0.165       54.398       16.820        0.096      325.672       -9.948      871.489
12/10/2013  08:57:00       14.728       68.065       83.134       38.270       40.560       24.116     1464.563     1645.134      581.585        0.773        0.185       69.640       23.741        0.116      325.496      -10.233      871.499
12/10/2013  08:58:00        3.481       76.250      103.806       44.357       64.183       34.753     1967.567     4119.394     1207.738        1.195        0.365       76.329       29.244        0.147      325.614      -10.043      871.493
12/10/2013  08:59:00       82.035       90.356       83.031       54.854       56.065       43.011     3008.912     3143.237     1849.908        1.489        0.400      122.041       47.023        0.148      325.335      -10.494      871.484
12/10/2013  09:00:00       38.531       89.618       97.934       41.039       39.842       23.050     1684.173     1587.413      531.294        1.145        0.190       97.550       22.652        0.054      325.444      -10.317      871.468
12/10/2013  09:01:00       51.628       80.992       74.136       52.450       39.384       45.955     2751.004     1551.111     2111.866        1.057        0.321       96.048       37.180        0.150      325.429      -10.341      871.462
12/10/2013  09:02:00       89.736       79.516       54.383       52.526       29.165       31.244     2758.937      850.589      976.204        1.096        0.229      119.897       27.631        0.053      325.442      -10.321      871.459
12/10/2013  09:03:00       90.409       53.471       50.916       42.707       55.583       46.330     1823.894     3089.438     2146.475        1.034        0.353      105.038       40.509        0.149      325.422      -10.353      871.444
12/10/2013  09:04:00       43.322       48.657       57.293       38.422       31.490       27.331     1476.217      991.591      746.997        0.537        0.161       65.148       16.514        0.064      325.567      -10.118      871.435
12/10/2013  09:05:00       68.627       65.838       51.458       38.339       18.118       25.037     1469.875      328.275      626.850        0.706        0.121       95.102       19.922        0.044      325.468      -10.280      871.419
12/10/2013  09:06:00      106.560       84.635       49.252       41.669       23.792       29.312     1736.270      566.063      859.181        1.205        0.158      136.081       20.497        0.023      325.455      -10.300      871.389
12/10/2013  09:07:00       54.694       80.862       61.422       42.749       33.043       32.533     1827.442     1091.835     1058.384        0.864        0.199       97.623       23.857        0.060      325.635      -10.009      871.369
12/10/2013  09:08:00       70.666       97.511       80.218       45.819       32.770       31.300     2099.398     1073.896      979.661        1.254        0.208      120.425       17.105        0.020      325.602      -10.062      871.361
12/10/2013  09:09:00       88.425       65.494       54.369       29.218       30.211       39.309      853.698      912.709     1545.213        0.919        0.166      110.038       23.525        0.046      325.573      -10.109      871.380
12/10/2013  09:10:00       67.829       75.459       55.353       31.135       33.625       36.824      969.411     1130.644     1356.039        0.841        0.173      101.463       29.334        0.084      325.557      -10.134      871.383
12/10/2013  09:11:00       65.915       53.771       39.153       44.573       39.768       33.873     1986.740     1581.523     1147.361        0.674        0.236       85.066       17.943        0.044      325.690       -9.920      871.373
12/10/2013  09:12:00      102.889       81.675       28.089       38.920       32.656       31.502     1514.728     1066.440      992.400        1.081        0.179      131.366       16.946        0.017      325.474      -10.269      871.367
12/10/2013  09:13:00       55.023       34.658       14.194       14.677       18.197       21.224      215.403      331.135      450.446        0.271        0.050       65.028       11.475        0.031      325.616      -10.039      871.360
12/10/2013  09:14:00       51.401       50.701       11.089       49.009       35.436       25.568     2401.861     1255.743      653.742        0.482        0.216       72.199       19.769        0.075      325.720       -9.871      871.353
12/10/2013  09:15:00       46.978       76.127       52.398       45.342       38.801       50.987     2055.858     1505.508     2599.675        0.845        0.308       89.455       25.796        0.083      325.959       -9.483      871.339
12/10/2013  09:16:00       57.736       51.821       64.840       35.413       36.911       34.815     1254.112     1362.389     1212.107        0.703        0.191       77.581       26.388        0.116      325.821       -9.709      871.353
12/10/2013  09:17:00       65.540       43.430       33.340       41.755       46.968       33.955     1743.456     2205.980     1152.945        0.620        0.255       78.624       27.248        0.120      325.814       -9.720      871.363
12/10/2013  09:18:00       98.636       71.147       25.983       20.425       18.920       22.807      417.181      357.959      520.154        0.838        0.065      121.618        8.241        0.005      325.584      -10.093      871.370
12/10/2013  09:19:00      101.796       56.066       29.122       29.664       26.417       34.416      879.925      697.841     1184.443        0.856        0.138      116.214       23.345        0.040      325.723       -9.866      871.354
12/10/2013  09:20:00       38.178       34.528        1.413       28.878       25.907       38.606      833.937      671.168     1490.432        0.282        0.150       51.476       23.673        0.212      325.937       -9.520      871.325
12/10/2013  09:21:00      106.874       82.864       45.986       39.853       17.187       31.377     1588.272      295.407      984.495        1.164        0.143      135.235       17.301        0.016      325.871       -9.626      871.297
12/10/2013  09:22:00       62.409       64.906       48.937       58.020       33.066       44.875     3366.282     1093.352     2013.725        0.849        0.324       90.043       43.426        0.233      325.989       -9.436      871.290
12/10/2013  09:23:00       68.048       10.115       39.304       47.849       47.611       33.021     2289.491     2266.839     1090.407        0.596        0.282       68.796       28.035        0.166      325.969       -9.469      871.306
12/10/2013  09:24:00       47.004       45.932       32.854       44.104       33.424       36.934     1945.124     1117.134     1364.144        0.491        0.221       65.720       23.976        0.133      326.162       -9.158      871.315
12/10/2013  09:25:00       98.492       74.180        5.123       25.922       27.422       28.627      671.926      751.966      819.496        0.874        0.112      123.302       15.016        0.015      326.051       -9.336      871.304
12/10/2013  09:26:00       75.369       60.322       -5.352       30.845       22.823       26.652      951.406      520.891      710.352        0.576        0.109       96.536       17.728        0.034      326.233       -9.042      871.289
12/10/2013  09:27:00       40.430       29.495       15.507       39.956       38.072       40.449     1596.495     1449.446     1636.101        0.371        0.234       50.045       30.949        0.382      326.282       -8.963      871.284
12/10/2013  09:28:00       31.109       64.535       -5.882       28.326       33.623       30.531      802.354     1130.531      932.124        0.402        0.143       71.642       24.492        0.117      326.092       -9.271      871.277
12/10/2013  09:29:00       11.441       41.423        4.718       27.376       20.494       20.806      749.458      420.016      432.908        0.174        0.080       42.974       15.170        0.125      326.059       -9.323      871.271
12/10/2013  09:30:00       28.159       32.728       10.360       47.295       23.722       18.437     2236.852      562.749      339.911        0.255        0.157       43.174        9.441        0.048      326.430       -8.722      871.254
12/10/2013  09:31:00      116.083       55.745        0.749       42.997       39.894       38.339     1848.772     1591.571     1469.871        1.075        0.246      128.774       14.915        0.013      326.284       -8.959      871.235
12/10/2013  09:32:00      122.526       73.581        0.860       39.446       31.553       31.907     1555.975      995.595     1018.052        1.200        0.178      142.922       20.444        0.020      325.924       -9.541      871.226
12/10/2013  09:33:00       97.725       63.468        8.646       24.143       16.935       25.194      582.904      286.806      634.730        0.758        0.075      116.526        9.352        0.006      325.944       -9.509      871.227
12/10/2013  09:34:00       50.294       63.814        6.408       33.211       35.257       37.621     1102.992     1243.066     1415.345        0.520        0.188       81.251       22.447        0.076      326.273       -8.977      871.230
12/10/2013  09:35:00       66.518       59.341      -11.124       21.205       21.449       17.705      449.636      460.046      313.472        0.465        0.061       89.141       10.153        0.013      326.240       -9.030      871.227
12/10/2013  09:36:00       32.077       29.421       40.110       18.343       24.410       31.284      336.472      595.838      978.683        0.271        0.096       43.526       10.530        0.059      326.416       -8.745      871.220
12/10/2013  09:37:00       23.246       47.186       78.983       31.752       40.303       30.642     1008.202     1624.355      938.957        0.629        0.179       52.602       29.691        0.319      326.574       -8.489      871.196
12/10/2013  09:38:00       65.109       37.083       72.509       43.346       47.136       31.739     1878.866     2221.806     1007.367        0.799        0.255       74.929       29.603        0.156      326.380       -8.803      871.177
12/10/2013  09:39:00       55.454       87.075       73.878       54.189       31.656       44.488     2936.434     1002.127     1979.227        1.102        0.296      103.233       37.068        0.129      326.234       -9.040      871.162
12/10/2013  09:40:00       75.981       69.698       27.432       31.108       22.599       34.649      967.678      510.723     1200.525        0.703        0.134      103.106       25.173        0.060      326.113       -9.234      871.163
12/10/2013  09:41:00       52.002       44.336       46.074       27.023       18.940       24.487      730.217      358.711      599.590        0.424        0.084       68.336       15.915        0.054      326.273       -8.977      871.157
12/10/2013  09:42:00       10.036       49.687       56.786       24.286       29.607       29.264      589.810      876.562      856.363        0.406        0.116       50.690       15.292        0.091      326.601       -8.447      871.159
12/10/2013  09:43:00       43.215       74.999       76.291       53.556       46.511       37.222     2868.193     2163.263     1385.449        0.986        0.321       86.559       36.645        0.179      326.507       -8.596      871.159
12/10/2013  09:44:00      119.347       90.875       55.742       55.721       33.107       44.360     3104.779     1096.067     1967.790        1.589        0.308      150.007       38.456        0.066      326.364       -8.829      871.162
12/10/2013  09:45:00       92.566       64.422       42.523       37.923       33.121       42.123     1438.191     1096.976     1774.377        0.942        0.215      112.777       27.127        0.058      326.277       -8.969      871.171
12/10/2013  09:46:00      125.654       81.266       14.428       37.178       32.258       33.110     1382.234     1040.577     1096.297        1.306        0.176      149.643       12.159        0.007      326.148       -9.178      871.164
12/10/2013  09:47:00       89.387       49.721        3.014       33.234       45.009       35.311     1104.504     2025.811     1246.895        0.742        0.219      102.285        5.923        0.003      326.330       -8.885      871.167
12/10/2013  09:48:00       37.803       32.440        8.589       32.038       45.350       32.251     1026.422     2056.662     1040.135        0.334        0.206       49.814       25.466        0.261      326.646       -8.373      871.162
12/10/2013  09:49:00       59.023       69.373       -5.214       36.584       22.693       24.312     1338.365      514.980      591.059        0.538        0.122       91.085       19.114        0.044      326.390       -8.787      871.159
12/10/2013  09:50:00       -7.926       58.631       16.330       33.138       42.537       29.621     1098.099     1809.394      877.407        0.378        0.189       59.164       17.174        0.084      326.745       -8.212      871.175
12/10/2013  09:51:00       14.234       -0.710       46.406       34.156       64.106       30.162     1166.647     4109.590      909.723        0.427        0.309       14.251       29.488        4.281      326.947       -7.882      871.188
12/10/2013  09:52:00       59.867       59.345       36.025       59.909       38.496       34.564     3589.059     1481.910     1194.681        0.733        0.313       84.297       34.939        0.172      327.044       -7.727      871.194
12/10/2013  09:53:00       39.611       75.494       58.679       53.360       47.099       44.927     2847.256     2218.283     2018.397        0.890        0.354       85.255       41.741        0.240      327.093       -7.647      871.188
12/10/2013  09:54:00        9.584       33.270       60.371       41.661       50.848       28.295     1735.628     2585.490      800.634        0.498        0.256       34.623       25.315        0.535      327.236       -7.414      871.192
12/10/2013  09:55:00       66.006       45.176       58.350       76.279       45.133       48.014     5818.557     2036.945     2305.383        0.998        0.508       79.986       38.290        0.229      326.897       -7.965      871.195
12/10/2013  09:56:00       96.980       64.983       -1.679       39.013       43.271       33.270     1522.026     1872.350     1106.915        0.907        0.225      116.739       24.461        0.044      326.616       -8.420      871.190
12/10/2013  09:57:00       80.926       58.995       18.672       40.713       33.943       26.889     1657.531     1152.103      723.037        0.695        0.177      100.147       17.340        0.030      326.714       -8.262      871.173
12/10/2013  09:58:00       26.380       78.688       71.318       36.624       39.143       41.263     1341.298     1532.191     1702.615        0.827        0.229       82.993       28.010        0.114      326.842       -8.053      871.159
12/10/2013  09:59:00       80.809       61.216       31.946       65.662       46.051       43.404     4311.472     2120.696     1883.911        0.981        0.416      101.378       34.509        0.116      326.838       -8.061      871.143
12/10/2013  10:00:00       25.119       59.565        0.952       38.697       41.831       31.525     1497.466     1749.853      993.837        0.421        0.212       64.645       24.485        0.143      326.880       -7.993      871.122
12/10/2013  10:01:00       97.315       58.444       -0.787       56.804       33.748       27.625     3226.652     1138.939      763.159        0.901        0.256      113.516       18.295        0.026      326.940       -7.894      871.097
12/10/2013  10:02:00       64.639       59.474       39.177       56.632       38.561       39.593     3207.137     1486.920     1567.603        0.775        0.313       87.837       33.342        0.144      326.927       -7.915      871.085
12/10/2013  10:03:00       11.772       59.431       75.432       29.500       42.825       25.969      870.258     1834.015      674.388        0.637        0.169       60.586       21.128        0.122      327.271       -7.358      871.082
12/10/2013  10:04:00       16.518       46.689       62.447       44.761       49.076       26.352     2003.541     2408.439      694.421        0.573        0.255       49.525       23.469        0.225      327.388       -7.168      871.089
12/10/2013  10:05:00       28.628       79.177       71.504       39.654       34.076       42.562     1572.457     1161.155     1811.496        0.837        0.227       84.194       27.945        0.110      326.933       -7.908      871.087
12/10/2013  10:06:00       99.941       62.071       -6.602       25.807       19.126       16.203      666.011      365.818      262.544        0.759        0.065      117.648       11.225        0.009      326.563       -8.506      871.077
12/10/2013  10:07:00       21.555       31.849        1.174       25.300       18.340       21.966      640.073      336.372      482.513        0.147        0.073       38.458       19.444        0.256      326.964       -7.857      871.057
12/10/2013  10:08:00       60.505       63.265       39.021       71.266       39.966       41.213     5078.808     1597.301     1698.536        0.878        0.419       87.541       45.663        0.272      327.082       -7.666      871.054
12/10/2013  10:09:00      118.392       78.975       -6.193       32.050       27.956       28.165     1027.207      781.552      793.241        1.145        0.130      142.315       15.090        0.011      326.807       -8.112      871.066
12/10/2013  10:10:00       46.715       26.899       -3.071       36.429       25.335       27.081     1327.063      641.869      733.365        0.281        0.135       53.906       24.548        0.207      326.744       -8.213      871.072
12/10/2013  10:11:00       90.834       58.412       46.372       40.683       28.653       32.448     1655.129      820.974     1052.856        0.867        0.176      107.994       18.105        0.028      326.878       -7.996      871.068
12/10/2013  10:12:00       92.565       70.215       26.250       51.047       32.967       44.899     2605.760     1086.850     2015.953        0.995        0.285      116.183       35.427        0.093      326.808       -8.111      871.071
12/10/2013  10:13:00       86.750       69.880        7.510       47.010       39.792       30.095     2209.898     1583.427      905.732        0.858        0.235      111.394       18.827        0.029      326.934       -7.904      871.058
12/10/2013  10:14:00       55.144       80.793       30.806       60.687       55.695       37.643     3682.948     3101.958     1417.002        0.936        0.410       97.818       31.467        0.103      327.083       -7.664      871.053
12/10/2013  10:15:00       23.398       28.535        9.218       52.161       37.256       31.064     2720.820     1388.002      964.983        0.326        0.254       36.901       24.284        0.433      327.125       -7.596      871.038
12/10/2013  10:16:00      -14.722        2.319        9.737       19.978       15.060       12.667      399.125      226.802      160.464        0.055        0.039       14.903        9.750        0.428      327.164       -7.532      871.029
12/10/2013  10:17:00       81.452       46.650       11.769       44.473       30.903       28.197     1977.846      955.006      795.059        0.634        0.186       93.865       20.837        0.049      327.282       -7.340      871.027
12/10/2013  10:18:00      110.931       90.606       14.307       38.704       35.127       35.940     1497.968     1233.940     1291.699        1.237        0.201      143.232       19.740        0.019      326.952       -7.876      871.028
12/10/2013  10:19:00       27.033       44.668       33.921       52.351       36.283       41.080     2740.642     1316.456     1687.577        0.481        0.287       52.211       32.021        0.376      327.318       -7.282      871.015
12/10/2013  10:20:00       36.973       71.635       48.716       57.805       34.103       52.421     3341.404     1163.030     2747.920        0.806        0.363       80.614       41.570        0.266      327.225       -7.433      871.008
12/10/2013  10:21:00       31.114       76.790       -0.571       33.896       42.591       28.022     1148.917     1814.018      785.221        0.531        0.187       82.855       21.654        0.068      327.279       -7.344      870.989
12/10/2013  10:22:00       31.172       25.346       16.555       38.592       38.435       19.234     1489.319     1477.283      369.956        0.261        0.167       40.176       15.610        0.151      327.506       -6.976      870.990
12/10/2013  10:23:00       82.599      102.188      -11.979       33.879       38.446       33.938     1147.765     1478.059     1151.803        1.059        0.189      131.396       18.506        0.020      327.245       -7.400      870.972
12/10/2013  10:24:00       80.517       86.870      -22.599       43.308       28.459       24.708     1875.561      809.929      610.500        0.892        0.165      118.445       23.052        0.038      327.094       -7.647      870.958
12/10/2013  10:25:00       -3.747       45.415        7.601       26.711       23.986       26.451      713.482      575.351      699.630        0.206        0.099       45.569       19.973        0.192      327.359       -7.216      870.940
12/10/2013  10:26:00      118.538       75.979       17.289       46.446       44.041       26.570     2157.258     1939.618      705.983        1.246        0.240      140.798       11.976        0.007      327.015       -7.774      870.935
12/10/2013  10:27:00      110.264       67.688       -9.849       32.571       31.082       29.737     1060.842      966.075      884.282        0.987        0.146      129.382       17.246        0.018      326.850       -8.042      870.922
12/10/2013  10:28:00       18.828        4.629       -2.711       33.762       41.381       20.745     1139.875     1712.383      430.351        0.183        0.164       19.389       22.555        1.353      327.168       -7.526      870.931
12/10/2013  10:29:00       48.826       78.217       63.309       37.859       41.553       37.647     1433.288     1726.634     1417.296        0.854        0.229       92.206       24.261        0.069      327.311       -7.294      870.928
12/10/2013  10:30:00       75.936       62.703       52.382       35.639       33.221       30.120     1270.135     1103.613      907.238        0.786        0.164       98.479       18.492        0.035      327.181       -7.505      870.932
12/10/2013  10:31:00       44.446       93.624       89.759       46.716       36.914       36.750     2182.394     1362.639     1350.557        1.185        0.245      103.639       30.122        0.084      327.395       -7.156      870.910
12/10/2013  10:32:00       15.569       77.900       96.796       35.337       36.154       22.748     1248.674     1307.129      517.481        0.938        0.154       79.441       22.163        0.078      327.367       -7.204      870.914
12/10/2013  10:33:00      159.900      116.547       67.593       37.901       27.548       41.257     1436.516      758.903     1702.174        2.381        0.195      197.867       28.299        0.020      327.115       -7.611      870.904
12/10/2013  10:34:00      136.329       88.675       12.576       44.554       31.993       27.673     1985.048     1023.521      765.812        1.519        0.189      162.630       16.040        0.010      327.300       -7.311      870.902
12/10/2013  10:35:00       63.746       64.303       49.376       71.933       68.972       46.172     5174.330     4757.150     2131.863        1.135        0.603       90.545       41.165        0.207      327.720       -6.628      870.880
12/10/2013  10:36:00      125.224      119.068       21.327       69.047       63.232       47.483     4767.529     3998.255     2254.656        2.066        0.551      172.795       16.392        0.009      327.302       -7.310      870.852
12/10/2013  10:37:00       94.620       81.243        8.323       54.619       43.253       41.714     2983.259     1870.786     1740.051        1.111        0.330      124.713       25.678        0.042      327.467       -7.039      870.849
12/10/2013  10:38:00       59.409       74.065      -11.236       29.840       32.094       29.974      890.422     1030.013      898.466        0.598        0.141       94.948       24.209        0.065      327.340       -7.246      870.846
12/10/2013  10:39:00        7.736       56.759       -0.986       20.192       36.403       23.255      407.736     1325.144      540.777        0.278        0.114       57.283       17.684        0.095      327.436       -7.089      870.832
12/10/2013  10:40:00       -7.991       51.435       -7.581       22.590       28.654       15.085      510.303      821.056      227.544        0.216        0.078       52.052       15.416        0.088      327.569       -6.875      870.805
12/10/2013  10:41:00       19.681       28.259       30.800       50.117       40.832       30.992     2511.750     1667.245      960.519        0.364        0.257       34.438       23.601        0.470      327.910       -6.319      870.775
12/10/2013  10:42:00       53.209       90.449       -9.514       33.834       38.429       29.474     1144.735     1476.814      868.730        0.730        0.175      104.939       23.886        0.052      327.509       -6.973      870.741
12/10/2013  10:43:00       56.111       78.673       48.810       49.173       37.372       38.168     2418.020     1396.644     1456.798        0.849        0.264       96.633       23.996        0.062      327.646       -6.750      870.713
12/10/2013  10:44:00       36.969       17.592       43.666       48.521       31.463       29.118     2354.315      989.951      847.851        0.389        0.210       40.941       21.890        0.286      327.894       -6.346      870.684
12/10/2013  10:45:00       32.380       31.511       28.866       37.693       37.354       29.507     1420.799     1395.328      870.634        0.328        0.184       45.182       20.403        0.204      327.898       -6.339      870.656
12/10/2013  10:46:00      110.359       74.926       56.318       44.256       43.983       40.871     1958.635     1934.547     1670.439        1.326        0.278      133.391       31.018        0.054      327.622       -6.787      870.658
12/10/2013  10:47:00       55.133       48.345       37.759       44.952       31.539       50.103     2020.704      994.722     2510.336        0.616        0.276       73.327       29.122        0.158      327.757       -6.568      870.658
12/10/2013  10:48:00       26.259        8.277       33.167       37.594       37.208       29.683     1413.290     1384.419      881.097        0.277        0.184       27.532       27.145        0.972      328.144       -5.938      870.665
12/10/2013  10:49:00        5.464       44.916       79.466       30.678       33.341       24.224      941.148     1111.632      586.792        0.550        0.132       45.247       22.424        0.246      327.905       -6.327      870.662
12/10/2013  10:50:00       48.836       47.093       66.712       65.516       51.375       34.502     4292.346     2639.370     1190.384        0.859        0.406       67.843       32.983        0.236      327.812       -6.478      870.655
12/10/2013  10:51:00       21.479       99.827      103.942       67.808       57.984       35.199     4597.968     3362.198     1238.992        1.521        0.460      102.112       22.206        0.047      327.766       -6.555      870.632
12/10/2013  10:52:00      111.559       90.543       87.730       51.347       62.486       46.479     2636.491     3904.543     2160.313        1.852        0.435      143.679       44.547        0.096      327.530       -6.938      870.629
12/10/2013  10:53:00       76.571       62.076       72.080       50.574       51.058       49.374     2557.748     2606.905     2437.808        1.126        0.380       98.572       41.595        0.178      327.595       -6.833      870.629
12/10/2013  10:54:00       45.050       52.188       47.522       33.329       46.625       40.673     1110.851     2173.847     1654.320        0.597        0.247       68.943       33.604        0.238      327.978       -6.210      870.609
12/10/2013  10:55:00       18.531       40.879       40.662       28.043       49.007       45.066      786.396     2401.715     2030.981        0.444        0.261       44.883       23.433        0.273      328.086       -6.033      870.589
12/10/2013  10:56:00       86.260       49.770       41.055       35.831       42.527       26.409     1283.867     1808.577      697.435        0.770        0.189       99.588       13.153        0.017      327.510       -6.969      870.575
12/10/2013  10:57:00       44.806       61.519       66.877       31.140       32.964       36.642      969.670     1086.630     1342.655        0.683        0.170       76.106       28.712        0.142      327.776       -6.538      870.559
12/10/2013  10:58:00       90.845      100.430       71.676       55.420       28.284       36.907     3071.361      799.977     1362.110        1.435        0.262      135.421       25.411        0.035      327.881       -6.366      870.552
12/10/2013  10:59:00       80.210       76.396       32.339       43.264       56.842       54.207     1871.775     3231.033     2938.371        1.068        0.402      110.771       42.501        0.147      327.722       -6.626      870.546
12/10/2013  11:00:00       63.328       54.597       36.750       31.858       22.396       27.292     1014.958      501.574      744.829        0.530        0.113       83.614       12.450        0.022      327.740       -6.596      870.538
12/10/2013  11:01:00       15.729       28.364       54.605       30.691       30.512       33.334      941.912      931.007     1111.179        0.351        0.149       32.433       24.340        0.563      328.316       -5.658      870.515
12/10/2013  11:02:00       42.754       54.673       60.020       44.063       37.451       37.937     1941.550     1402.597     1439.225        0.660        0.239       69.404       28.627        0.170      328.217       -5.819      870.503
12/10/2013  11:03:00       54.235       79.435       17.476       50.397       28.090       50.133     2539.845      789.067     2513.272        0.770        0.292       96.185       40.680        0.179      328.222       -5.811      870.479
12/10/2013  11:04:00       80.539       93.910       68.629       83.799       45.337       62.043     7022.198     2055.450     3849.312        1.647        0.646      123.716       64.105        0.268      327.968       -6.226      870.485
12/10/2013  11:05:00       76.304        1.114       32.978       44.807       55.946       37.219     2007.635     3129.907     1385.253        0.672        0.326       76.312       39.369        0.266      327.691       -6.677      870.488
12/10/2013  11:06:00       56.056       36.018        9.692       36.529       49.093       25.284     1334.361     2410.091      639.291        0.446        0.219       66.630       18.035        0.073      327.871       -6.383      870.480
12/10/2013  11:07:00       35.379       46.602        1.646       31.798       43.930       24.133     1011.084     1929.849      582.421        0.347        0.176       58.510       19.199        0.108      328.014       -6.151      870.458
12/10/2013  11:08:00       38.987       60.178       33.500       47.638       42.244       32.064     2269.391     1784.542     1028.108        0.567        0.254       71.704       28.135        0.154      328.295       -5.692      870.440
12/10/2013  11:09:00        3.071       52.681       73.967       38.695       46.892       41.146     1497.335     2198.820     1693.003        0.682        0.269       52.770       33.152        0.395      328.566       -5.249      870.436
12/10/2013  11:10:00      145.812       90.531       21.578       30.705       37.281       41.817      942.797     1389.892     1748.690        1.700        0.204      171.630       23.441        0.019      327.774       -6.541      870.441
12/10/2013  11:11:00       58.229       57.119       28.043       44.615       36.552       51.670     1990.505     1336.072     2669.773        0.672        0.300       81.566       34.136        0.175      327.927       -6.292      870.428
12/10/2013  11:12:00       58.951       63.393       46.299       47.043       58.783       34.106     2213.065     3455.438     1163.245        0.823        0.342       86.567       37.063        0.183      328.094       -6.019      870.400
12/10/2013  11:13:00       18.271       -5.238       42.870       37.781       87.392       44.286     1427.433     7637.310     1961.215        0.661        0.551       19.007       48.758        6.581      328.513       -5.337      870.383
12/10/2013  11:14:00       90.988       96.744       87.275       79.003       45.818       45.676     6241.487     2099.286     2086.276        1.784        0.521      132.809       47.060        0.126      328.210       -5.832      870.368
12/10/2013  11:15:00      109.420       92.105       82.653       68.729       57.954       44.165     4723.672     3358.680     1950.516        1.866        0.502      143.025       39.679        0.077      327.934       -6.281      870.374
12/10/2013  11:16:00       49.528       79.831       91.969       54.475       31.893       32.158     2967.569     1017.136     1034.140        1.115        0.251       93.947       33.912        0.130      328.040       -6.107      870.371
12/10/2013  11:17:00       16.397       74.511       90.197       46.133       63.523       52.771     2128.258     4035.112     2784.828        1.145        0.447       76.294       45.443        0.355      328.113       -5.989      870.375
12/10/2013  11:18:00      107.490       94.063       65.297       64.601       42.316       37.730     4173.298     1790.612     1423.563        1.603        0.369      142.836       32.630        0.052      327.890       -6.353      870.399
12/10/2013  11:19:00      105.269       65.760       21.402       36.729       28.068       28.404     1348.995      787.833      806.786        0.940        0.147      124.121       15.805        0.016      327.806       -6.489      870.407
12/10/2013  11:20:00       41.984       29.595       45.181       43.316       35.780       30.461     1876.305     1280.212      927.888        0.438        0.204       51.366       26.965        0.276      328.222       -5.811      870.381
12/10/2013  11:21:00       86.819       53.380       24.840       71.225       47.292       48.045     5073.033     2236.541     2308.295        1.031        0.481      101.916       36.263        0.127      327.992       -6.187      870.366
12/10/2013  11:22:00       33.374       15.650        6.107       36.503       47.861       32.065     1332.495     2290.707     1028.133        0.302        0.233       36.861       20.106        0.298      328.097       -6.013      870.350
12/10/2013  11:23:00        9.731       37.451       34.902       25.472       45.358       26.160      648.821     2057.355      684.369        0.305        0.170       38.695       15.326        0.157      328.435       -5.463      870.332
12/10/2013  11:24:00       80.047       81.023       33.584       58.676       39.407       45.424     3442.819     1552.880     2063.299        1.058        0.353      113.896       23.971        0.044      328.379       -5.555      870.329
12/10/2013  11:25:00       35.218       50.824       57.667       39.895       50.147       44.220     1591.624     2514.707     1955.408        0.660        0.303       61.833       31.282        0.256      328.439       -5.458      870.334
12/10/2013  11:26:00        2.744       18.735       52.648       30.487       46.711       27.386      929.469     2181.921      749.984        0.350        0.193       18.935       26.452        1.952      328.583       -5.223      870.335
12/10/2013  11:27:00       71.669       57.163       18.715       47.980       44.580       33.641     2302.054     1987.407     1131.713        0.709        0.271       91.674       23.306        0.065      328.408       -5.509      870.323
12/10/2013  11:28:00       -5.368       39.869       34.865       22.205       31.171       40.343      493.063      971.643     1627.575        0.296        0.155       40.229       22.872        0.323      328.684       -5.058      870.314
12/10/2013  11:29:00       -1.339       53.726       97.938       29.493       40.679       27.507      869.845     1654.820      756.616        0.788        0.164       53.743       26.930        0.251      328.653       -5.108      870.308
12/10/2013  11:30:00       -3.527       80.713       99.692       38.829       48.560       28.846     1507.679     2358.059      832.111        1.058        0.235       80.790       24.994        0.096      328.691       -5.048      870.291
12/10/2013  11:31:00      118.693       91.866       54.549       64.170       45.352       50.482     4117.739     2056.778     2548.395        1.711        0.436      150.092       46.769        0.097      328.283       -5.711      870.279
12/10/2013  11:32:00       87.289       67.520       41.624       65.641       40.111       52.088     4308.791     1608.907     2713.108        1.127        0.432      110.356       43.713        0.157      328.516       -5.332      870.277
12/10/2013  11:33:00       63.594       56.453       12.482       36.333       24.505       40.671     1320.099      600.499     1654.160        0.548        0.179       85.036       22.079        0.067      328.273       -5.728      870.273
12/10/2013  11:34:00       12.733       37.663       47.805       25.229       33.772       18.150      636.526     1140.579      329.435        0.299        0.105       39.757        5.104        0.016      328.860       -4.771      870.257
12/10/2013  11:35:00       65.037       80.475       69.541       55.277       46.342       33.516     3055.562     2147.555     1123.323        1.093        0.316      103.470       22.127        0.046      328.387       -5.541      870.250
12/10/2013  11:36:00       56.383       71.029       82.962       73.426       70.727       55.220     5391.374     5002.264     3049.209        1.427        0.672       90.688       53.847        0.353      328.524       -5.320      870.236
12/10/2013  11:37:00       73.010       17.642       28.685       54.130       65.757       35.089     2930.094     4323.929     1231.210        0.747        0.424       75.111       34.061        0.206      328.273       -5.728      870.229
12/10/2013  11:38:00       78.981       56.754       11.725       37.614       29.511       27.765     1414.776      870.918      770.919        0.633        0.153       97.258       16.021        0.027      328.370       -5.569      870.224
12/10/2013  11:39:00       57.384       52.007        9.979       40.964       36.193       34.817     1678.049     1309.964     1212.222        0.515        0.210       77.444       25.370        0.107      328.524       -5.319      870.203
12/10/2013  11:40:00      103.994       67.572       10.439       65.579       31.803       29.020     4300.557     1011.425      842.185        1.082        0.308      124.019       15.912        0.016      328.421       -5.487      870.183
12/10/2013  11:41:00       98.607       57.101       53.959       56.749       50.053       48.445     3220.400     2505.323     2346.911        1.198        0.404      113.947       33.463        0.086      328.558       -5.264      870.162
12/10/2013  11:42:00       38.317      -32.734       31.301       41.010       77.806       47.199     1681.781     6053.748     2227.768        0.674        0.498       50.395       52.779        1.097      328.660       -5.097      870.143
12/10/2013  11:43:00      116.088       99.161       44.842       48.705       36.545       38.991     2372.143     1335.545     1520.286        1.527        0.261      152.674       29.297        0.037      328.178       -5.884      870.129
12/10/2013  11:44:00       14.031       -5.659       18.417       35.675       22.995       31.179     1272.731      528.771      972.130        0.167        0.139       15.130       19.850        1.721      328.776       -4.909      870.109
12/10/2013  11:45:00       -8.663       19.723       57.254       14.087       28.942       20.940      198.436      837.633      438.495        0.261        0.074       21.542       18.862        0.767      329.132       -4.326      870.083
12/10/2013  11:46:00       -4.879       52.695       82.662       23.361       47.320       26.768      545.722     2239.213      716.532        0.657        0.175       52.921       30.502        0.332      329.146       -4.304      870.064
12/10/2013  11:47:00       78.966       93.748       62.399       44.725       43.939       40.392     2000.292     1930.616     1631.482        1.224        0.278      122.574       29.091        0.056      328.415       -5.497      870.040
12/10/2013  11:48:00       63.607       62.828        4.554       38.768       33.597       33.374     1502.989     1128.777     1113.810        0.588        0.187       89.404       27.745        0.096      328.524       -5.320      870.020
12/10/2013  11:49:00       54.649       81.611       -7.897       33.433       30.276       26.325     1117.777      916.623      693.024        0.622        0.136       98.219       19.590        0.040      328.518       -5.328      869.982
12/10/2013  11:50:00       12.639       25.031        9.639       19.264       31.150       21.543      371.118      970.338      464.088        0.134        0.090       28.041       21.729        0.600      328.927       -4.661      869.965
12/10/2013  11:51:00       14.956       31.450       49.741       25.956       30.854       27.291      673.735      951.947      744.816        0.303        0.119       34.825       22.444        0.415      329.160       -4.281      869.928
12/10/2013  11:52:00       17.900       56.966        9.853       49.229       36.201       30.658     2423.493     1310.494      939.931        0.417        0.234       59.712       26.023        0.190      329.075       -4.418      869.907
12/10/2013  11:53:00       38.637       68.827       65.673       44.950       43.549       29.196     2020.494     1896.524      852.391        0.766        0.238       78.930       21.364        0.073      329.030       -4.493      869.874
12/10/2013  11:54:00       63.306       88.607       40.284       59.835       58.845       60.129     3580.200     3462.704     3615.542        1.207        0.533      108.898       48.348        0.197      328.861       -4.770      869.841
12/10/2013  11:55:00       81.948       53.902       25.978       61.105       43.757       37.589     3733.842     1914.662     1412.954        0.868        0.353       98.086       13.430        0.019      328.732       -4.980      869.819
12/10/2013  11:56:00       30.580       20.189       10.429       32.202       32.259       24.317     1036.993     1040.627      591.317        0.206        0.133       36.643       16.651        0.206      328.967       -4.595      869.781
12/10/2013  11:57:00       91.025       78.623       -0.151       47.348       31.673       26.710     2241.817     1003.161      713.446        0.921        0.198      120.279       20.160        0.028      328.744       -4.960      869.765
12/10/2013  11:58:00       68.412       35.286       14.276       38.050       21.368       30.936     1447.836      456.572      957.017        0.449        0.143       76.976       16.653        0.047      328.894       -4.715      869.751
12/10/2013  11:59:00       41.812       76.089       -5.257       38.974       42.440       27.656     1518.956     1801.150      764.845        0.582        0.204       86.821       26.714        0.095      328.829       -4.821      869.738
12/10/2013  12:00:00       47.935       18.901        7.222       26.242       30.559       23.839      688.617      933.838      568.318        0.245        0.110       51.527       21.561        0.175      328.896       -4.712      869.719
12/10/2013  12:01:00       55.392       44.394       24.423       36.313       47.107       30.482     1318.618     2219.077      929.134        0.505        0.223       70.987       15.990        0.051      328.986       -4.565      869.697
12/10/2013  12:02:00       51.204       80.112       36.951       41.444       41.614       66.358     1717.564     1731.690     4403.342        0.913        0.393       95.078       43.361        0.208      329.006       -4.533      869.660
12/10/2013  12:03:00       34.577       94.014      111.931       47.664       68.486       37.934     2271.845     4690.398     1438.952        1.548        0.420      100.170       30.091        0.090      328.985       -4.568      869.623
12/10/2013  12:04:00       88.376       46.514       66.025       45.485       48.258       31.456     2068.895     2328.829      989.456        0.986        0.269       99.869       21.966        0.048      328.758       -4.937      869.589
12/10/2013  12:05:00       77.497      -72.958       -3.826       48.752       38.967       31.478     2376.734     1518.395      990.840        0.811        0.244      106.436       24.250        0.052      328.621       -5.159      869.566
12/10/2013  12:06:00       34.594      -21.054       19.268       47.972       56.709       36.612     2301.285     3215.857     1340.437        0.443        0.343       40.497        8.619        0.045      328.977       -4.580      869.525
12/10/2013  12:07:00      138.339       60.054        5.876       47.933       33.394       29.842     2297.572     1115.136      890.561        1.354        0.215      150.812       18.915        0.016      328.837       -4.810      869.519
12/10/2013  12:08:00       43.443       52.940       10.344       42.435       40.083       32.878     1800.746     1606.683     1080.935        0.464        0.224       68.483       29.522        0.186      329.173       -4.260      869.492
12/10/2013  12:09:00       75.336       80.471       -2.487       47.719       45.533       38.870     2277.103     2073.299     1510.874        0.901        0.293      110.232       33.053        0.090      328.940       -4.640      869.488
12/10/2013  12:10:00       90.583       91.025        7.130       41.297       30.862       33.686     1705.408      952.454     1134.774        1.017        0.190      128.417       16.491        0.016      328.849       -4.789      869.487
12/10/2013  12:11:00      133.168       67.474       15.072       43.059       29.578       33.124     1854.089      874.867     1097.226        1.317        0.191      149.287       21.255        0.020      328.588       -5.216      869.488
12/10/2013  12:12:00       75.689       44.373       22.945       41.640       54.057       29.661     1733.868     2922.192      879.801        0.688        0.277       87.737       28.958        0.109      328.776       -4.908      869.462
12/10/2013  12:13:00       87.368       89.978       13.141       43.095       31.037       32.222     1857.199      963.292     1038.274        0.988        0.193      125.416       25.120        0.040      328.871       -4.753      869.452
12/10/2013  12:14:00       56.530       62.722       68.601       59.891       77.762       51.623     3586.908     6046.969     2664.911        1.206        0.615       84.437       48.765        0.334      329.235       -4.158      869.431
12/10/2013  12:15:00       96.020      121.345       74.271       53.494       44.444       48.822     2861.656     1975.226     2383.553        1.834        0.361      154.740       39.293        0.064      328.871       -4.752      869.421
12/10/2013  12:16:00      147.358       85.178       41.194       37.953       53.391       42.267     1440.423     2850.633     1786.525        1.837        0.304      170.204       30.553        0.032      328.826       -4.826      869.412
12/10/2013  12:17:00       66.587      -24.179       14.925       32.318       62.631       37.649     1044.444     3922.613     1417.455        0.581        0.319       70.841       43.941        0.385      328.910       -4.688      869.396
12/10/2013  12:18:00       18.280      -67.514       10.725       25.825       50.681       27.202      666.909     2568.591      739.949        0.449        0.199       69.945       27.435        0.154      328.946       -4.630      869.352
12/10/2013  12:19:00       40.385       53.020        9.614       33.302       47.278       33.873     1109.015     2235.206     1147.370        0.451        0.225       66.649       31.708        0.226      329.134       -4.323      869.321
12/10/2013  12:20:00       62.580       71.211        4.724       51.173       46.614       33.830     2618.692     2172.858     1144.449        0.747        0.297       94.801       25.400        0.072      329.061       -4.441      869.294
12/10/2013  12:21:00       82.146       33.523       27.245       66.803       40.449       43.184     4462.666     1636.147     1864.821        0.829        0.398       88.723       23.884        0.072      329.108       -4.365      869.281
12/10/2013  12:22:00       55.972       40.482       24.054       34.668       25.999       35.453     1201.855      675.953     1256.889        0.424        0.157       69.078       19.091        0.076      329.203       -4.210      869.272
12/10/2013  12:23:00       64.703       57.616       15.994       42.604       33.689       24.351     1815.082     1134.969      592.972        0.565        0.177       86.637       15.051        0.030      329.101       -4.377      869.244
12/10/2013  12:24:00       62.677       50.295        9.680       27.183       34.419       28.923      738.900     1184.689      836.561        0.466        0.138       80.362       16.129        0.040      329.021       -4.508      869.248
12/10/2013  12:25:00       35.785       37.645        5.911       20.490       19.649       27.559      419.829      386.076      759.514        0.215        0.078       51.939       15.006        0.083      329.081       -4.410      869.240
12/10/2013  12:26:00       52.086       34.979       11.766       36.612       33.256       33.018     1340.433     1105.962     1090.177        0.381        0.177       62.742       19.430        0.096      329.101       -4.376      869.229
12/10/2013  12:27:00       92.173       65.013       63.085       72.309       58.045       49.939     5228.590     3369.271     2493.941        1.389        0.555      112.795       47.874        0.180      329.210       -4.200      869.225
12/10/2013  12:28:00      107.873       64.563       12.070       52.174       35.167       26.181     2722.113     1236.705      685.456        1.030        0.232      125.718       12.904        0.011      329.054       -4.454      869.227
12/10/2013  12:29:00       69.079       58.460       -7.446       34.571       27.902       27.455     1195.146      778.512      753.787        0.549        0.136       90.495       16.604        0.034      329.021       -4.508      869.228
12/10/2013  12:30:00       88.212       58.588       12.589       34.628       22.948       27.416     1199.081      526.597      751.645        0.692        0.124      105.896       13.802        0.017      328.961       -4.607      869.238
12/10/2013  12:31:00       64.341       19.025        4.129       42.864       24.099       26.393     1837.360      580.744      696.566        0.382        0.156       67.095       13.502        0.040      329.029       -4.495      869.241
12/10/2013  12:32:00       47.102       66.322      -11.325       31.490       30.647       23.884      991.602      939.210      570.466        0.462        0.125       81.346       17.285        0.045      329.271       -4.100      869.236
12/10/2013  12:33:00       50.382       41.632       -6.925       45.457       34.900       25.126     2066.295     1218.003      631.309        0.412        0.196       65.357       16.346        0.063      329.452       -3.803      869.231
12/10/2013  12:34:00       -3.810        5.297       29.944       21.811       46.155       28.115      475.717     2130.271      790.448        0.217        0.170        6.525       18.460        8.004      329.835       -3.177      869.220
12/10/2013  12:35:00       -6.019       41.533       82.155       32.193       46.254       30.697     1036.418     2139.393      942.332        0.631        0.206       41.967       28.062        0.447      329.544       -3.652      869.208
12/10/2013  12:36:00       94.263       57.593       39.326       37.708       53.511       54.522     1421.873     2863.431     2972.668        1.050        0.363      110.465       52.002        0.222      329.068       -4.431      869.199
12/10/2013  12:37:00       93.071       24.732       12.215       50.724       46.757       41.017     2572.962     2186.259     1682.401        0.793        0.322       96.301       30.384        0.100      329.170       -4.264      869.179
12/10/2013  12:38:00       33.630       48.049       35.180       55.360       30.024       41.280     3064.768      901.436     1704.020        0.517        0.284       58.649       34.724        0.351      329.512       -3.704      869.145
12/10/2013  12:39:00       25.912       76.802       78.341       28.371       34.900       31.004      804.895     1218.023      961.257        0.785        0.149       81.055       24.911        0.094      329.430       -3.841      869.127
12/10/2013  12:40:00       82.076      111.479       96.785       46.850       46.808       44.931     2194.910     2190.996     2018.839        1.747        0.320      138.434       29.254        0.045      329.334       -3.996      869.096
12/10/2013  12:41:00       81.602      116.208      108.786       55.917       44.431       45.240     3126.744     1974.072     2046.645        1.957        0.357      141.998       33.880        0.057      329.223       -4.179      869.052
12/10/2013  12:42:00       92.251       15.517       59.313       59.436       43.733       44.521     3532.696     1912.553     1982.118        0.985        0.371       93.547       36.086        0.149      329.217       -4.189      869.043
12/10/2013  12:43:00       32.926       13.017       33.262       36.085       28.587       22.915     1302.102      817.232      525.089        0.250        0.132       35.406       16.904        0.228      329.497       -3.731      869.046
12/10/2013  12:44:00       90.463       88.748       60.115       62.429       51.290       56.622     3897.427     2630.692     3206.092        1.470        0.487      126.727       42.680        0.113      329.450       -3.806      869.026
12/10/2013  12:45:00      101.146       65.300       66.936       66.940       58.117       47.773     4480.959     3377.563     2282.223        1.456        0.507      120.393       38.635        0.103      329.436       -3.830      869.018
12/10/2013  12:46:00      110.066       86.913       33.330       30.718       31.341       44.016      943.621      982.231     1937.377        1.232        0.193      140.244       18.821        0.018      329.282       -4.082      869.012
12/10/2013  12:47:00      104.067       67.106       10.600       54.889       40.270       37.677     3012.767     1621.657     1419.566        1.075        0.303      123.827       12.334        0.010      329.485       -3.749      869.004
12/10/2013  12:48:00      175.888       88.373       39.404       63.022       46.600       56.233     3971.764     2171.529     3162.187        2.480        0.465      196.841       33.627        0.029      329.452       -3.806      868.990
12/10/2013  12:49:00      168.601       69.407       30.104       74.700       52.433       47.322     5580.025     2749.242     2239.418        2.236        0.528      182.328       34.097        0.035      329.442       -3.823      868.966
12/10/2013  12:50:00       80.332       44.454       40.078       75.726       51.930       41.214     5734.463     2696.687     1698.624        1.008        0.506       91.812       28.038        0.093      329.506       -3.715      868.973
12/10/2013  12:51:00      115.294       55.444       27.245       46.285       38.475       46.320     2142.334     1480.355     2145.575        1.144        0.288      127.933       23.787        0.035      329.444       -3.817      868.956
12/10/2013  12:52:00      136.857       81.985       16.193       52.570       36.749       39.728     2763.623     1350.456     1578.301        1.570        0.285      159.535       23.021        0.021      329.592       -3.575      868.917
12/10/2013  12:53:00      155.212       91.345       19.869       58.823       42.585       48.601     3460.176     1813.508     2362.095        2.023        0.382      180.096       29.557        0.027      329.586       -3.587      868.891
12/10/2013  12:54:00      149.162       87.379       17.732       78.454       45.510       49.301     6155.081     2071.178     2430.550        2.043        0.533      172.871       45.566        0.069      329.631       -3.514      868.871
12/10/2013  12:55:00       77.306       59.494       11.121       88.034       63.663       35.747     7750.047     4052.921     1277.816        1.136        0.654       97.549       35.877        0.135      329.741       -3.332      868.862
12/10/2013  12:56:00        3.800       35.990       49.897       35.002       29.087       27.531     1225.129      846.047      757.979        0.331        0.141       36.190       21.301        0.346      330.149       -2.664      868.854
12/10/2013  12:57:00       77.827       76.975       58.181       65.763       50.172       39.574     4324.716     2517.224     1566.069        1.189        0.420      109.464       37.111        0.115      329.832       -3.182      868.858
12/10/2013  12:58:00       60.312       50.312       63.386       61.019       70.520       58.070     3723.343     4973.021     3372.154        1.113        0.603       78.543       55.539        0.500      329.872       -3.117      868.863
12/10/2013  12:59:00      130.793       96.634       25.946       63.588       47.512       48.848     4043.394     2257.421     2386.087        1.790        0.434      162.619       31.240        0.037      329.656       -3.473      868.854
12/10/2013  13:00:00       85.526       56.301       17.936       64.309       44.746       42.097     4135.597     2002.182     1772.128        0.936        0.395      102.393       27.259        0.071      329.785       -3.260      868.834
12/10/2013  13:01:00       59.537       35.543       -3.208       54.656       51.507       28.065     2987.286     2652.955      787.625        0.562        0.321       69.339       24.335        0.123      329.651       -3.478      868.818
12/10/2013  13:02:00        8.478       12.345        2.494       46.510       51.145       24.514     2163.221     2615.831      600.913        0.280        0.269       14.976       18.124        1.465      329.954       -2.982      868.801
12/10/2013  13:03:00        4.798      -51.987       29.332       44.599       63.451       41.530     1989.037     4026.067     1724.778        0.566        0.387       52.208       45.892        0.773      330.203       -2.574      868.802
12/10/2013  13:04:00       41.104      -69.837       12.268       43.943       54.399       46.892     1930.965     2959.239     2198.840        0.690        0.354       81.035       38.881        0.230      329.973       -2.953      868.813
12/10/2013  13:05:00       86.221      -51.068       -1.900       45.618       54.678       35.261     2080.972     2989.679     1243.371        0.818        0.316      100.210       37.991        0.144      329.705       -3.390      868.839
12/10/2013  13:06:00       36.718       -6.456       24.396       44.965       36.679       35.084     2021.875     1345.340     1230.874        0.329        0.230       37.281        5.403        0.021      330.000       -2.907      868.853
12/10/2013  13:07:00       76.426      -55.982       30.173       62.223       58.989       40.316     3871.737     3479.676     1625.357        0.943        0.449       94.737       43.448        0.210      329.877       -3.108      868.872
12/10/2013  13:08:00       45.499      -46.752       10.518       68.780       55.931       38.372     4730.717     3128.270     1472.374        0.685        0.467       65.237       36.807        0.318      329.743       -3.327      868.871
12/10/2013  13:09:00       35.309      -58.016       -1.329       51.455       55.290       36.236     2647.584     3057.008     1313.056        0.581        0.351       67.916       32.345        0.227      329.896       -3.078      868.874
12/10/2013  13:10:00        1.823       10.689       52.400       17.624       25.578       17.162      310.603      654.248      294.520        0.206        0.063       10.844       11.186        1.064      330.205       -2.571      868.875
12/10/2013  13:11:00       -9.050       44.640       75.708       20.023       31.064       20.394      400.920      964.996      415.903        0.479        0.089       45.548       20.324        0.199      330.176       -2.619      868.882
12/10/2013  13:12:00       54.332       82.986       70.210       51.116       44.008       32.603     2612.842     1936.712     1062.959        1.019        0.281       99.190       24.063        0.059      329.797       -3.240      868.877
12/10/2013  13:13:00      169.349       85.645       15.836       32.841       34.183       27.114     1078.544     1168.496      735.184        1.962        0.149      189.774       11.286        0.004      329.409       -3.876      868.869
12/10/2013  13:14:00      124.809       70.813       22.074       40.260       45.949       39.556     1620.897     2111.322     1564.694        1.319        0.265      143.498       23.055        0.026      329.656       -3.470      868.857
12/10/2013  13:15:00      136.183       87.864       43.028       41.687       31.369       37.483     1737.824      984.032     1405.010        1.612        0.206      162.067       11.522        0.005      329.579       -3.595      868.847
12/10/2013  13:16:00      127.654       62.261       15.093       37.114       36.498       27.457     1377.454     1332.098      753.905        1.193        0.173      142.028       14.731        0.011      329.644       -3.491      868.834
12/10/2013  13:17:00      105.803       66.748       20.142       48.965       31.904       37.813     2397.575     1017.857     1429.824        1.045        0.242      125.099       22.435        0.032      329.738       -3.336      868.821
12/10/2013  13:18:00       73.256       55.781       10.744       45.845       41.772       43.561     2101.751     1744.925     1897.566        0.717        0.287       92.076       23.193        0.063      329.683       -3.426      868.799
12/10/2013  13:19:00       66.564       40.247        9.302       47.780       33.216       20.602     2282.926     1103.285      424.431        0.497        0.191       77.785        9.180        0.014      329.829       -3.186      868.792
12/10/2013  13:20:00      139.654       70.754       16.014       53.611       38.450       38.696     2874.151     1478.369     1497.379        1.531        0.292      156.555       14.967        0.009      329.808       -3.222      868.788
12/10/2013  13:21:00      174.194      108.672       28.040       36.945       32.464       36.000     1364.945     1053.892     1295.987        2.333        0.186      205.312       13.792        0.005      329.606       -3.554      868.788
12/10/2013  13:22:00      165.782      113.085       22.718       42.369       30.861       39.572     1795.123      952.395     1565.921        2.255        0.216      200.679       20.846        0.011      329.700       -3.400      868.783
12/10/2013  13:23:00       47.959       37.952       77.211       59.828       71.761       59.391     3579.345     5149.633     3527.302        1.098        0.613       61.159       52.653        0.741      329.916       -3.046      868.765
12/10/2013  13:24:00       53.440       62.694       39.012       37.755       61.359       49.173     1425.404     3764.880     2417.998        0.796        0.380       82.379       42.037        0.260      329.762       -3.296      868.770
12/10/2013  13:25:00       31.126        1.311       15.803       25.489       49.326       26.832      649.665     2433.057      719.947        0.251        0.190       31.154       24.092        0.598      330.094       -2.752      868.748
12/10/2013  13:26:00       46.322       62.823       40.378       73.957       33.520       41.128     5469.671     1123.611     1691.517        0.800        0.414       78.054       38.334        0.241      330.090       -2.760      868.713
12/10/2013  13:27:00       56.125       40.782        2.698       51.196       29.959       29.582     2621.033      897.568      875.119        0.461        0.220       69.378       32.735        0.223      329.966       -2.963      868.678
12/10/2013  13:28:00       91.118       71.404       25.249       65.639       42.657       35.975     4308.514     1819.660     1294.225        1.073        0.371      115.763       22.166        0.037      329.962       -2.970      868.642
12/10/2013  13:29:00       55.933       19.547       35.684       52.818       54.843       36.642     2789.700     3007.715     1342.667        0.596        0.357       59.250       30.350        0.262      330.204       -2.573      868.633
12/10/2013  13:30:00       68.801     -101.319        8.247       49.087       59.355       37.816     2409.558     3522.970     1430.023        1.121        0.368      122.471       43.306        0.125      330.102       -2.740      868.626
12/10/2013  13:31:00       61.950     -103.799        7.815       53.190       96.433       44.691     2829.164     9299.316     1997.320        1.440        0.706      120.881       52.514        0.189      330.114       -2.722      868.622
12/10/2013  13:32:00       20.724       40.939       54.684       36.456       44.011       34.449     1329.037     1936.969     1186.717        0.477        0.223       45.886       22.545        0.241      330.196       -2.588      868.610
12/10/2013  13:33:00       46.302      -67.039        8.360       58.674       38.965       26.220     3442.627     1518.248      687.484        0.618        0.282       81.474       24.002        0.087      330.205       -2.570      868.592
12/10/2013  13:34:00       44.823       79.633       79.068       77.435       66.063       60.853     5996.204     4364.375     3703.090        1.433        0.703       91.381       52.918        0.335      330.154       -2.654      868.573
12/10/2013  13:35:00       73.668      108.382       80.646       71.018       57.102       51.106     5043.491     3260.642     2611.775        1.729        0.546      131.048       47.701        0.132      329.931       -3.020      868.560
12/10/2013  13:36:00       79.185       35.097       44.953       46.646       47.572       39.865     2175.835     2263.111     1589.179        0.777        0.301       86.615       34.693        0.160      329.894       -3.082      868.562
12/10/2013  13:37:00       44.015       66.820       75.187       49.641       41.276       38.651     2464.269     1703.726     1493.935        0.886        0.283       80.014       40.247        0.253      330.025       -2.867      868.541
12/10/2013  13:38:00       34.617      109.490      107.373       38.988       31.087       25.738     1520.046      966.393      662.464        1.393        0.157      114.832       25.171        0.048      329.960       -2.971      868.524
12/10/2013  13:39:00       83.626       96.048       58.504       41.118       22.845       28.150     1690.696      521.912      792.412        1.132        0.150      127.352       26.794        0.044      329.846       -3.159      868.526
12/10/2013  13:40:00       61.971       52.752       28.909       55.076       47.384       25.316     3033.315     2245.262      640.911        0.669        0.296       81.382       21.236        0.068      329.860       -3.136      868.531
12/10/2013  13:41:00       37.487     -100.510        1.322       47.831       45.118       24.324     2287.787     2035.651      591.678        0.821        0.246      107.273       24.785        0.053      330.064       -2.802      868.524
12/10/2013  13:42:00       45.830      -74.290       -2.003       42.199       59.900       27.313     1780.750     3588.001      745.991        0.687        0.306       87.289       26.183        0.090      330.395       -2.260      868.509
12/10/2013  13:43:00        2.068      -61.491        3.371       42.681       34.861       24.101     1821.662     1215.308      580.839        0.371        0.181       61.526       21.902        0.127      330.246       -2.503      868.482
12/10/2013  13:44:00       -2.491      -67.010       11.933       41.541       37.507       28.320     1725.645     1406.774      802.043        0.429        0.197       67.056       25.887        0.149      330.405       -2.243      868.459
12/10/2013  13:45:00       11.845      -86.464       23.662       31.294       42.387       21.304      979.288     1796.634      453.876        0.570        0.161       87.271       16.372        0.035      330.277       -2.452      868.449
12/10/2013  13:46:00       14.140       -7.816       10.840       23.568       43.086       25.175      555.431     1856.374      633.795        0.171        0.152       16.157       18.574        1.322      330.496       -2.093      868.453
12/10/2013  13:47:00       16.053       20.006       26.751       24.524       38.011       29.589      601.418     1444.822      875.487        0.215        0.146       25.651       24.912        0.943      330.435       -2.194      868.462
12/10/2013  13:48:00       62.993       64.401       19.996       28.987       19.208       24.940      840.236      368.949      622.011        0.517        0.092       90.086       10.052        0.012      330.165       -2.637      868.471
12/10/2013  13:49:00       49.469       62.695        5.710       25.845       33.787       34.017      667.946     1141.547     1157.185        0.469        0.148       79.862       11.392        0.020      330.226       -2.535      868.489
12/10/2013  13:50:00       70.725       39.980        2.039       35.543       31.652       25.232     1263.303     1001.861      636.633        0.475        0.145       81.243       19.982        0.060      330.293       -2.427      868.496
12/10/2013  13:51:00       34.510       66.396        8.535       35.171       32.081       32.207     1237.009     1029.161     1037.274        0.449        0.165       74.829       23.761        0.101      330.278       -2.452      868.503
12/10/2013  13:52:00       -0.169       86.741       -6.264       26.176       34.377       26.389      685.190     1181.745      696.384        0.506        0.128       86.741       16.455        0.036      330.120       -2.710      868.515
12/10/2013  13:53:00       41.657       48.940       -9.768       31.356       26.649       19.640      983.190      710.144      385.748        0.315        0.104       64.269       14.427        0.050      330.217       -2.552      868.511
12/10/2013  13:54:00       82.399       56.536       -2.051       38.411       26.330       21.579     1475.392      693.262      465.647        0.631        0.132       99.930       14.000        0.020      330.214       -2.558      868.491
12/10/2013  13:55:00       78.744       82.153       -7.490       48.404       26.715       27.002     2342.955      713.683      729.090        0.840        0.189      113.797       16.384        0.021      330.094       -2.754      868.488
12/10/2013  13:56:00       45.298       60.761        9.290       32.816       26.020       35.205     1076.869      677.046     1239.423        0.441        0.150       75.788       20.149        0.071      330.178       -2.614      868.481
12/10/2013  13:57:00        9.321        2.830       18.174       15.281       37.000       20.842      233.521     1369.027      434.370        0.123        0.102        9.742        5.994        0.379      330.437       -2.191      868.483
12/10/2013  13:58:00       76.791       59.834       15.877       66.425       37.413       26.128     4412.307     1399.755      682.682        0.811        0.325       97.350       13.283        0.019      330.343       -2.345      868.470
12/10/2013  13:59:00       57.655       52.449       -8.943       27.870       28.918       19.520      776.717      836.276      381.038        0.407        0.100       77.942       10.308        0.017      330.135       -2.685      868.464
12/10/2013  14:00:00       59.468       78.701       -1.521       42.504       30.724       29.349     1806.611      943.982      861.379        0.667        0.181       98.642       20.496        0.043      330.167       -2.634      868.457
12/10/2013  14:01:00       89.348       49.622        3.051       31.047       28.632       23.787      963.893      819.776      565.822        0.640        0.117      102.203        8.196        0.006      330.124       -2.703      868.457
12/10/2013  14:02:00       76.624       73.286        5.651       30.152       22.577       25.888      909.163      509.720      670.193        0.668        0.104      106.029       13.707        0.017      330.131       -2.693      868.440
12/10/2013  14:03:00       71.855       56.436       20.535       36.804       49.980       39.080     1354.571     2498.038     1527.262        0.707        0.269       91.368       24.153        0.070      330.184       -2.605      868.437
12/10/2013  14:04:00       49.463       51.573       47.328       40.172       31.801       30.485     1613.758     1011.313      929.323        0.545        0.178       71.458       24.868        0.121      330.342       -2.346      868.441
12/10/2013  14:05:00       13.916       58.731       79.119       50.217       64.144       43.108     2521.705     4114.411     1858.280        0.920        0.425       60.358       44.204        0.536      330.414       -2.229      868.432
12/10/2013  14:06:00       95.083       76.772       49.012       66.088       34.848       50.071     4367.574     1214.404     2507.112        1.271        0.404      122.208       49.902        0.167      330.244       -2.507      868.421
12/10/2013  14:07:00       21.655       60.885       65.357       41.913       41.095       23.925     1756.695     1688.780      572.391        0.623        0.201       64.622       15.514        0.058      330.511       -2.068      868.409
12/10/2013  14:08:00       68.589       86.533       85.461       53.040       51.267       30.676     2813.205     2628.304      941.030        1.294        0.319      110.419       26.296        0.057      330.411       -2.232      868.402
12/10/2013  14:09:00       85.107       66.662       47.253       64.245       56.210       52.763     4127.472     3159.556     2783.938        1.199        0.504      108.106       43.162        0.159      330.440       -2.187      868.392
12/10/2013  14:10:00      101.114       71.584       19.667       47.723       42.289       42.414     2277.492     1788.326     1798.936        1.080        0.293      123.889       26.990        0.047      330.408       -2.240      868.376
12/10/2013  14:11:00       14.177       44.243       57.822       29.661       34.420       25.846      879.788     1184.717      668.037        0.412        0.137       46.459       15.308        0.109      330.713       -1.737      868.369
12/10/2013  14:12:00      105.790       60.168       48.706       55.774       50.137       42.344     3110.689     2513.724     1793.003        1.230        0.371      121.703       33.910        0.078      330.335       -2.359      868.365
12/10/2013  14:13:00      109.553       67.365       50.896       34.952       31.543       37.366     1221.662      994.965     1396.197        1.137        0.181      128.608       21.516        0.028      330.319       -2.383      868.350
12/10/2013  14:14:00       79.095       68.455       77.117       66.114       52.030       40.224     4371.008     2707.093     1617.962        1.279        0.435      104.605       39.530        0.143      330.320       -2.384      868.329
12/10/2013  14:15:00       72.687       81.914       64.050       61.730       39.172       55.934     3810.561     1534.442     3128.634        1.228        0.424      109.514       40.763        0.139      330.375       -2.292      868.311
12/10/2013  14:16:00      135.961      118.787       61.930       52.324       41.863       42.492     2737.766     1752.545     1805.581        2.136        0.315      180.543       33.177        0.034      330.223       -2.543      868.310
12/10/2013  14:17:00      111.482       49.512       28.062       50.166       47.816       37.951     2516.671     2286.331     1440.293        1.095        0.312      121.982       29.965        0.060      330.257       -2.486      868.311
12/10/2013  14:18:00      155.335       97.730       35.691       61.424       40.529       43.222     3772.947     1642.622     1868.117        2.112        0.364      183.521       34.855        0.036      330.327       -2.374      868.316
12/10/2013  14:19:00       92.376       67.964       14.823       37.848       42.204       33.391     1432.468     1781.164     1114.959        0.885        0.216      114.684       21.869        0.036      330.322       -2.378      868.328
12/10/2013  14:20:00      112.506       67.645       12.106       53.679       58.782       42.695     2881.398     3455.295     1822.841        1.277        0.408      131.276       23.708        0.033      330.340       -2.350      868.322
12/10/2013  14:21:00       80.430       79.272       28.539       38.066       32.039       33.982     1449.017     1026.529     1154.743        0.860        0.182      112.929       32.038        0.080      330.213       -2.558      868.315
12/10/2013  14:22:00       73.941       61.407       77.696       66.588       55.101       44.500     4433.904     3036.153     1980.282        1.236        0.473       96.115       47.458        0.244      330.400       -2.253      868.296
12/10/2013  14:23:00       87.845       94.136       63.961       57.023       60.925       56.553     3251.665     3711.912     3198.295        1.541        0.508      128.757       47.987        0.139      330.344       -2.344      868.272
12/10/2013  14:24:00       99.750       54.466       44.014       53.483       55.161       38.143     2860.382     3042.691     1454.862        1.110        0.368      113.651       30.604        0.073      330.318       -2.385      868.258
12/10/2013  14:25:00       79.341       48.947       49.515       52.243       36.043       39.852     2729.332     1299.110     1588.209        0.838        0.281       93.225       33.365        0.128      330.267       -2.469      868.232
12/10/2013  14:26:00       88.965       61.643       42.194       41.446       39.211       36.857     1717.770     1537.489     1358.434        0.905        0.231      108.234       32.614        0.091      330.224       -2.539      868.216
12/10/2013  14:27:00       66.567       96.816       83.345       37.378       32.106       35.958     1397.109     1030.764     1293.010        1.224        0.186      117.492       20.004        0.029      330.341       -2.349      868.189
12/10/2013  14:28:00       78.168       89.837       68.273       51.976       58.916       38.812     2701.546     3471.077     1506.368        1.326        0.384      119.084       32.682        0.075      330.311       -2.397      868.166
12/10/2013  14:29:00      103.716       88.791       62.348       54.544       36.696       40.286     2975.033     1346.627     1622.991        1.424        0.297      136.532       26.901        0.039      330.322       -2.380      868.155
12/10/2013  14:30:00       28.911       69.951       83.466       49.374       48.492       38.349     2437.839     2351.452     1470.669        0.948        0.313       75.690       39.796        0.276      330.354       -2.327      868.159
12/10/2013  14:31:00      118.808      103.745       76.428       66.066       59.773       52.992     4364.727     3572.767     2808.177        2.073        0.537      157.729       45.476        0.083      330.264       -2.475      868.163
12/10/2013  14:32:00       68.510      133.926      100.587       46.524       42.252       43.399     2164.498     1785.254     1883.482        1.929        0.292      150.432       27.323        0.033      330.316       -2.389      868.168
12/10/2013  14:33:00       74.057       74.873       53.515       35.526       45.250       49.073     1262.069     2047.522     2408.172        0.983        0.286      105.311       40.622        0.149      330.353       -2.326      868.182
12/10/2013  14:34:00      102.795      103.389       66.904       54.489       40.472       39.414     2969.102     1637.978     1553.502        1.595        0.308      145.795       32.736        0.050      330.286       -2.439      868.174
12/10/2013  14:35:00       64.318       93.093       92.757       42.475       40.561       32.640     1804.101     1645.177     1065.387        1.296        0.226      113.151       27.315        0.058      330.328       -2.369      868.180
12/10/2013  14:36:00       44.805       31.357       38.785       51.971       40.353       23.507     2700.986     1628.379      552.587        0.469        0.244       54.688       25.179        0.212      330.465       -2.145      868.184
12/10/2013  14:37:00       49.379       49.403       47.134       51.029       45.435       54.865     2603.934     2064.345     3010.158        0.739        0.384       69.850       38.650        0.306      330.441       -2.183      868.189
12/10/2013  14:38:00        4.254       -9.518       21.438       34.341       42.690       31.395     1179.311     1822.439      985.651        0.228        0.199       10.425       28.843        7.654      330.578       -1.960      868.179
12/10/2013  14:39:00        1.482       28.896       43.609       27.477       51.025       35.794      755.008     2603.506     1281.217        0.369        0.232       28.934       36.501        1.592      330.690       -1.775      868.159
12/10/2013  14:40:00       66.148        0.961       19.890       42.615       73.255       30.991     1816.076     5366.241      960.429        0.646        0.407       66.155       27.040        0.167      330.476       -2.126      868.154
12/10/2013  14:41:00       52.039      -40.734       16.729       28.768       72.627       34.568      827.598     5274.623     1194.971        0.597        0.365       66.085       37.817        0.327      330.468       -2.140      868.154
12/10/2013  14:42:00       31.961       65.443       66.488       49.083       32.278       33.964     2409.155     1041.838     1153.520        0.716        0.230       72.830       35.388        0.236      330.479       -2.122      868.166
12/10/2013  14:43:00       57.170      -66.814       -2.695       51.308       76.507       32.747     2632.514     5853.377     1072.351        0.865        0.478       87.935       43.992        0.250      330.495       -2.095      868.195
12/10/2013  14:44:00       36.351      -76.246        6.412       27.843       47.529       21.242      775.209     2259.017      451.232        0.533        0.174       84.468       21.131        0.063      330.696       -1.767      868.220
12/10/2013  14:45:00       57.995      -87.311        8.165       36.021       59.875       32.416     1297.541     3584.958     1050.825        0.849        0.297      104.817       32.412        0.096      330.621       -1.889      868.231
12/10/2013  14:46:00       21.594        3.612       49.618       24.369       72.845       41.881      593.833     5306.447     1754.060        0.530        0.383       21.894       51.407        5.513      330.610       -1.906      868.235
12/10/2013  14:47:00       56.433       60.262       32.587       36.074       26.844       24.187     1301.335      720.625      585.027        0.524        0.130       82.560       19.965        0.058      330.460       -2.153      868.228
12/10/2013  14:48:00       34.540       23.504       16.999       21.004       13.757       18.391      441.180      189.264      338.226        0.150        0.048       41.779       14.988        0.129      330.541       -2.019      868.233
12/10/2013  14:49:00       40.091       32.924        0.373       21.164       22.135       13.736      447.903      489.975      188.679        0.191        0.056       51.878       14.235        0.075      330.499       -2.088      868.247
12/10/2013  14:50:00       49.008       28.663        6.853       28.993       24.815       15.703      840.583      615.790      246.586        0.249        0.085       56.774       13.112        0.053      330.467       -2.144      868.248
12/10/2013  14:51:00       45.256       21.434       39.846       33.372       35.453       32.120     1113.673     1256.930     1031.681        0.375        0.170       50.075       31.818        0.404      330.576       -1.962      868.243
12/10/2013  14:52:00       24.989       52.599       77.275       46.346       54.037       39.486     2147.968     2920.003     1559.144        0.799        0.331       58.233       41.280        0.503      330.669       -1.811      868.227
12/10/2013  14:53:00       43.596       61.953       52.996       42.435       33.049       36.834     1800.693     1092.237     1356.757        0.640        0.212       75.755       35.368        0.218      330.716       -1.732      868.220
12/10/2013  14:54:00       41.355       62.554       43.781       32.074       33.860       33.717     1028.759     1146.526     1136.819        0.543        0.166       74.988       25.919        0.119      330.772       -1.641      868.204
12/10/2013  14:55:00       62.948       64.838       68.707       51.155       42.619       39.416     2616.811     1816.371     1553.609        0.944        0.299       90.368       34.303        0.144      330.627       -1.879      868.198
12/10/2013  14:56:00      139.235       89.593       40.379       59.980       47.018       51.010     3597.548     2210.717     2601.990        1.873        0.421      165.569       44.143        0.071      330.457       -2.159      868.203
12/10/2013  14:57:00      134.867       94.106       35.833       41.422       40.270       32.981     1715.807     1621.686     1087.765        1.638        0.221      164.454       21.259        0.017      330.423       -2.213      868.209
12/10/2013  14:58:00       74.645      -18.969       11.628       23.223       30.336       24.226      539.316      920.251      586.901        0.406        0.102       77.017       22.769        0.087      330.420       -2.217      868.215
12/10/2013  14:59:00       41.297      -12.815       21.435       26.999       62.961       29.084      728.957     3964.121      845.854        0.393        0.277       43.239       34.825        0.649      330.582       -1.952      868.213
12/10/2013  15:00:00       66.701       68.381       22.767       34.770       24.724       27.465     1208.940      611.273      754.323        0.611        0.129       95.525       24.517        0.066      330.530       -2.038      868.210
12/10/2013  15:01:00        8.130       31.073       42.812       23.405       28.456       24.211      547.812      809.767      586.166        0.240        0.097       32.119       21.118        0.432      330.785       -1.619      868.214
12/10/2013  15:02:00       50.226       47.328       17.269       27.985       25.470       23.546      783.183      648.736      554.436        0.352        0.099       69.011       14.879        0.046      330.578       -1.959      868.220
12/10/2013  15:03:00       96.168       50.455       24.469       40.171       42.907       47.189     1613.686     1841.047     2226.839        0.904        0.284      108.600       31.877        0.086      330.564       -1.983      868.221
12/10/2013  15:04:00       29.967       72.595       77.447       39.450       54.162       44.486     1556.320     2933.553     1979.013        0.932        0.323       78.537       43.721        0.310      330.626       -1.881      868.222
12/10/2013  15:05:00      108.151       99.106       69.828       33.663       24.375       35.819     1133.181      594.163     1283.021        1.470        0.151      146.692       19.802        0.018      330.447       -2.173      868.206
12/10/2013  15:06:00       54.557        9.907       33.922       35.827       42.842       30.905     1283.565     1835.472      955.137        0.415        0.204       55.449       31.915        0.331      330.472       -2.134      868.185
12/10/2013  15:07:00       77.918       61.808       34.355       45.677       34.401       34.807     2086.357     1183.404     1211.524        0.778        0.224       99.456       31.533        0.101      330.506       -2.078      868.158
12/10/2013  15:08:00       98.301       38.123        3.563       41.181       43.270       31.854     1695.900     1872.256     1014.708        0.786        0.229      105.434       10.463        0.010      330.469       -2.140      868.149
12/10/2013  15:09:00       33.120       51.256       41.309       40.957       38.529       28.891     1677.497     1484.484      834.665        0.471        0.200       61.025       11.623        0.036      330.613       -1.902      868.142
12/10/2013  15:10:00       60.568       56.859       53.527       51.043       36.491       34.496     2605.371     1331.577     1189.993        0.745        0.256       83.074       28.055        0.114      330.576       -1.964      868.142
12/10/2013  15:11:00       93.680      -98.850      -19.800       52.409       60.033       46.433     2746.750     3603.913     2156.069        1.372        0.425      136.188       48.537        0.127      330.509       -2.072      868.149
12/10/2013  15:12:00       33.489       11.900       37.295       45.332       48.919       38.350     2054.988     2393.049     1470.727        0.429        0.296       35.540       43.925        1.528      330.510       -2.070      868.177
12/10/2013  15:13:00       42.990      -46.115        8.685       42.853       44.876       37.457     1836.357     2013.811     1403.025        0.465        0.263       63.045       29.213        0.215      330.623       -1.886      868.199
12/10/2013  15:14:00       65.676      -46.975       11.830       38.092       33.295       34.243     1450.984     1108.573     1172.557        0.520        0.187       80.746       21.733        0.072      330.535       -2.030      868.208
12/10/2013  15:15:00       15.300       14.149       42.933       20.167       27.010       14.432      406.709      729.541      208.297        0.181        0.067       20.839       11.744        0.318      330.555       -1.998      868.220
12/10/2013  15:16:00       -3.759      -54.001        5.032       26.473       22.778       24.863      700.804      518.822      618.151        0.240        0.092       54.132       12.334        0.052      330.725       -1.719      868.225
12/10/2013  15:17:00       18.616      -55.578        0.492       26.467       38.526       31.665      700.479     1484.233     1002.681        0.331        0.159       58.613       30.572        0.272      330.709       -1.745      868.217
12/10/2013  15:18:00        7.425        6.542       34.152       21.052       16.842       16.496      443.203      283.643      272.116        0.113        0.050        9.896       11.735        1.406      330.716       -1.734      868.219
12/10/2013  15:19:00       51.103       31.777       25.728       40.113       26.221       22.396     1609.039      687.516      501.590        0.354        0.140       60.177       26.535        0.194      330.567       -1.979      868.233
12/10/2013  15:20:00       80.637       21.231       18.492       42.220       32.171       34.979     1782.525     1034.983     1223.543        0.567        0.202       83.385       23.275        0.078      330.567       -1.976      868.265
12/10/2013  15:21:00       32.265       56.115       -1.250       23.783       27.604       23.086      565.630      761.990      532.979        0.303        0.093       64.730       20.177        0.097      330.515       -2.063      868.303
12/10/2013  15:22:00       94.914       57.779       -1.923       71.627       30.265       21.594     5130.364      915.941      466.289        0.943        0.326      111.117       20.553        0.034      330.399       -2.254      868.349
12/10/2013  15:23:00      126.611       61.689       27.132       46.106       39.987       31.791     2125.792     1598.925     1010.695        1.265        0.237      140.840       20.618        0.021      330.421       -2.217      868.366
12/10/2013  15:24:00      138.365       73.724       13.202       34.270       30.540       27.130     1174.438      932.678      736.061        1.380        0.142      156.781       13.608        0.008      330.461       -2.152      868.376
12/10/2013  15:25:00      109.016       76.104        8.720       21.804       19.154       19.951      475.417      366.874      398.025        0.950        0.062      132.952       11.591        0.008      330.372       -2.300      868.380
12/10/2013  15:26:00      102.950       77.645       13.898       32.565       28.324       32.289     1060.473      802.236     1042.608        0.986        0.145      128.947       20.278        0.025      330.414       -2.228      868.357
12/10/2013  15:27:00       94.812       75.684       34.374       35.906       25.902       35.861     1289.276      670.926     1285.994        0.957        0.162      121.315       26.074        0.046      330.537       -2.027      868.330
12/10/2013  15:28:00       91.461       65.292       12.394       36.085       27.830       33.170     1302.147      774.536     1100.240        0.798        0.159      112.375       22.707        0.041      330.522       -2.052      868.317
12/10/2013  15:29:00       93.656       55.084        9.256       41.051       28.634       28.262     1685.200      819.917      798.713        0.760        0.165      108.654       25.926        0.057      330.523       -2.050      868.316
12/10/2013  15:30:00      106.627       67.841       10.320       33.671       22.849       19.916     1133.727      522.067      396.655        0.906        0.103      126.379        7.774        0.004      330.500       -2.088      868.336
12/10/2013  15:31:00      100.853       59.706       11.151       38.909       25.343       25.624     1513.918      642.248      656.570        0.834        0.141      117.202       16.561        0.020      330.521       -2.054      868.347
12/10/2013  15:32:00      110.638       65.804        8.259       30.733       29.796       24.422      944.526      887.825      596.455        0.953        0.121      128.728       15.195        0.014      330.494       -2.097      868.367
12/10/2013  15:33:00      125.368       58.609        2.377       29.531       25.536       17.001      872.074      652.091      289.045        1.049        0.091      138.391       11.197        0.007      330.484       -2.114      868.355
12/10/2013  15:34:00       95.084       67.833       11.702       19.985       29.128       24.567      399.393      848.465      603.549        0.781        0.093      116.800       12.734        0.012      330.542       -2.019      868.334
12/10/2013  15:35:00      108.660       77.030        5.395       33.143       25.488       24.432     1098.457      649.645      596.919        1.006        0.117      133.194       15.941        0.014      330.528       -2.041      868.335
12/10/2013  15:36:00       30.107       71.109       66.015       44.926       29.976       39.638     2018.308      898.577     1571.207        0.740        0.224       77.220       33.754        0.191      330.609       -1.908      868.346
12/10/2013  15:37:00       28.016        6.379       34.700       29.607       20.822       18.711      876.560      433.542      350.100        0.184        0.083       28.733       13.462        0.220      330.701       -1.759      868.378
12/10/2013  15:38:00       33.620       47.572       25.997       43.416       23.910       27.857     1884.988      571.701      776.016        0.365        0.162       58.253       28.019        0.231      330.694       -1.770      868.391
12/10/2013  15:39:00       67.436       55.845        7.849       29.479       22.337       23.011      869.029      498.946      529.485        0.481        0.095       87.557       18.614        0.045      330.569       -1.975      868.406
12/10/2013  15:40:00       96.521       68.663       10.854       30.383       24.587       25.958      923.122      604.539      673.809        0.817        0.110      118.452       21.952        0.034      330.527       -2.043      868.393
12/10/2013  15:41:00      117.208       48.474       12.494       41.659       30.640       29.290     1735.471      938.837      857.916        0.989        0.177      126.836       25.711        0.041      330.499       -2.088      868.378
12/10/2013  15:42:00      113.442       66.147       20.863       31.444       21.126       23.266      988.732      446.293      541.325        0.983        0.099      131.318       16.928        0.017      330.499       -2.089      868.359
12/10/2013  15:43:00       87.775       70.384        2.501       29.359       23.682       20.935      861.929      560.843      438.283        0.726        0.093      112.510       14.520        0.017      330.519       -2.056      868.368
12/10/2013  15:44:00       91.830       53.850       18.616       22.830       26.258       23.975      521.196      689.504      574.799        0.673        0.089      106.455       13.353        0.016      330.553       -2.001      868.385
12/10/2013  15:45:00       80.829       30.877        8.085       23.630       14.712       16.986      558.367      216.445      288.528        0.431        0.053       86.525        8.834        0.010      330.585       -1.948      868.410
12/10/2013  15:46:00       66.282       43.395        9.947       23.343       26.330       22.181      544.875      693.247      491.977        0.405        0.087       79.224       17.046        0.046      330.576       -1.962      868.426
12/10/2013  15:47:00       64.363       47.405       11.984       20.150       20.905       21.345      406.041      437.023      455.626        0.392        0.065       79.937        8.622        0.012      330.551       -2.003      868.439
12/10/2013  15:48:00      112.969       59.714        4.292       27.479       21.111       19.164      755.092      445.660      367.250        0.896        0.078      127.780       15.871        0.015      330.536       -2.028      868.418
12/10/2013  15:49:00      102.166       57.545        5.133       26.252       21.697       25.178      689.153      470.739      633.945        0.778        0.090      117.257       13.880        0.014      330.590       -1.939      868.394
12/10/2013  15:50:00       58.834       51.791       34.683       22.849       14.267       21.506      522.058      203.549      462.511        0.427        0.059       78.382       14.107        0.032      330.554       -1.999      868.361
12/10/2013  15:51:00       29.082       46.437       42.577       33.970       23.007       22.301     1153.947      529.308      497.321        0.350        0.109       54.792       19.874        0.132      330.702       -1.757      868.331
12/10/2013  15:52:00       55.109       87.037       72.921       38.667       36.271       24.407     1495.147     1315.568      595.697        0.967        0.170      103.017       17.619        0.029      330.685       -1.783      868.323
12/10/2013  15:53:00       17.337       56.896       85.050       36.565       32.707       22.644     1336.989     1069.756      512.758        0.684        0.146       59.479       19.021        0.102      330.621       -1.889      868.345
12/10/2013  15:54:00       72.716       35.053       35.842       30.568       34.754       29.665      934.410     1207.846      880.035        0.541        0.151       80.724       20.603        0.065      330.528       -2.042      868.385
12/10/2013  15:55:00       77.646       47.747       26.556       31.939       14.179       21.464     1020.080      201.058      460.690        0.535        0.084       91.152       12.731        0.020      330.481       -2.117      868.428
12/10/2013  15:56:00       92.681       53.053       20.959       16.955       17.488       16.109      287.484      305.840      259.509        0.635        0.043      106.791        6.428        0.004      330.492       -2.103      868.443
12/10/2013  15:57:00       89.787       31.652       14.720       33.620       28.682       30.052     1130.272      822.655      903.115        0.607        0.143       95.203       12.417        0.017      330.595       -1.931      868.455
12/10/2013  15:58:00       54.201       30.361        6.907       29.171       21.993       20.596      850.967      483.705      424.208        0.283        0.088       62.125       12.155        0.038      330.611       -1.905      868.469
12/10/2013  15:59:00       71.638       64.285        1.848       34.046       18.923       23.366     1159.151      358.094      545.982        0.567        0.103       96.253       16.536        0.030      330.565       -1.982      868.480
12/10/2013  16:00:00       71.376       55.080       23.189       19.449       20.142       19.679      378.252      405.691      387.245        0.492        0.059       90.157        7.343        0.007      330.575       -1.964      868.494
12/10/2013  16:01:00       62.816       37.715       12.912       21.549       18.714       18.748      464.341      350.201      351.481        0.335        0.058       73.269       10.087        0.019      330.580       -1.956      868.487
12/10/2013  16:02:00       46.138       35.565       31.092       23.060       20.896       21.888      531.762      436.634      479.102        0.290        0.072       58.255        8.998        0.024      330.634       -1.867      868.476
12/10/2013  16:03:00       -0.367       -0.791       18.853       22.912       28.086       13.395      524.966      788.825      179.433        0.092        0.075        0.872       15.113      300.425      330.736       -1.701      868.452
12/10/2013  16:04:00       -5.041      -52.619       10.924       14.510       17.750       19.037      210.551      315.065      362.394        0.190        0.044       52.859       11.983        0.051      330.761       -1.659      868.436
12/10/2013  16:05:00        7.960      -47.646       -7.417       18.124       14.123       11.111      328.489      199.465      123.460        0.152        0.033       48.306        8.850        0.034      330.699       -1.760      868.431
12/10/2013  16:06:00        0.133        3.705        5.743       18.010        9.275       14.306      324.347       86.023      204.663        0.033        0.031        3.708        8.273        4.979      330.757       -1.667      868.415
12/10/2013  16:07:00        8.483       18.916       15.970       19.748       16.008        7.726      389.981      256.246       59.693        0.070        0.035       20.731        2.334        0.013      330.731       -1.709      868.414
12/10/2013  16:08:00       35.933       37.132        7.469       14.730       11.687       14.246      216.974      136.590      202.938        0.164        0.028       51.672        6.781        0.017      330.592       -1.934      868.414
12/10/2013  16:09:00       50.313       30.430       11.675       13.850       10.782       10.337      191.828      116.249      106.845        0.200        0.021       58.800        6.468        0.012      330.536       -2.029      868.407
12/10/2013  16:10:00       36.142       34.546        4.910       16.253       17.126        9.961      264.162      293.294       99.220        0.159        0.033       49.997        9.570        0.037      330.583       -1.950      868.409
12/10/2013  16:11:00       12.299       18.868       -2.822       12.996       11.242        8.639      168.895      126.386       74.629        0.044        0.018       22.522        5.615        0.062      330.593       -1.933      868.402
12/10/2013  16:12:00       -1.940       15.525       -5.154       19.425       15.767        8.053      377.319      248.598       64.845        0.048        0.035       15.646        7.064        0.204      330.577       -1.959      868.414
12/10/2013  16:13:00      -19.084       10.924       -3.409       23.227       10.275        8.059      539.482      105.579       64.953        0.060        0.036       21.990        8.317        0.143      330.567       -1.975      868.403
12/10/2013  16:14:00      -26.468      -38.855      -12.130       35.783       21.950       10.437     1280.423      481.801      108.925        0.211        0.094       47.013        8.592        0.033      330.744       -1.688      868.390
12/10/2013  16:15:00       -6.792        5.996        3.204       15.975       14.226       11.589      255.212      202.389      134.295        0.034        0.030        9.060        9.389        1.074      330.779       -1.632      868.355
12/10/2013  16:16:00      -50.687       -6.955        6.653       21.932       27.490       17.921      481.022      755.718      321.149        0.211        0.078       51.162       18.283        0.128      330.740       -1.694      868.339
12/10/2013  16:17:00       16.325        9.081       11.811        8.817       20.777       10.198       77.743      431.685      104.005        0.055        0.031       18.681        6.796        0.132      330.774       -1.639      868.330
12/10/2013  16:18:00        2.406       16.068       14.646       20.928       11.390       12.405      437.967      129.735      153.873        0.060        0.036       16.247       11.840        0.531      330.716       -1.733      868.340
12/10/2013  16:19:00       -1.949       15.278        3.340        9.206       15.279       11.098       84.754      233.452      123.175        0.034        0.022       15.402        9.374        0.370      330.738       -1.699      868.339
12/10/2013  16:20:00       16.791       29.011       10.313       27.782       15.740       12.723      771.816      247.732      161.883        0.121        0.059       33.519        2.018        0.004      330.703       -1.754      868.332
12/10/2013  16:21:00       70.231       32.614       16.512       19.486       16.116       15.048      379.694      259.734      226.447        0.357        0.043       77.434        9.683        0.016      330.612       -1.904      868.321
12/10/2013  16:22:00       30.778       37.250        5.396       17.421       11.316        9.669      303.486      128.045       93.492        0.144        0.026       48.320        5.903        0.015      330.561       -1.986      868.318
12/10/2013  16:23:00       60.103       42.027       26.005       13.690       12.804       12.048      187.421      163.933      145.157        0.328        0.025       73.339        2.716        0.001      330.565       -1.981      868.343
12/10/2013  16:24:00       37.367       -2.678       13.766       39.815       22.359       17.146     1585.197      499.914      293.996        0.199        0.119       37.462       19.474        0.270      330.648       -1.844      868.339
12/10/2013  16:25:00       30.458       26.849        1.143       14.788       10.839       10.094      218.676      117.490      101.881        0.104        0.022       40.602        5.640        0.019      330.594       -1.933      868.340
12/10/2013  16:26:00       70.347       52.139        7.332       24.937       19.366       11.504      621.834      375.061      132.347        0.442        0.056       87.562        6.499        0.006      330.551       -2.004      868.330
12/10/2013  16:27:00       87.380       52.704        5.002       21.753       18.772       18.283      473.187      352.392      334.277        0.580        0.058      102.044        7.130        0.005      330.539       -2.025      868.307
12/10/2013  16:28:00       75.775       44.260        0.385       20.109       11.742       12.709      404.372      137.873      161.525        0.420        0.035       87.754        7.507        0.007      330.538       -2.026      868.291
12/10/2013  16:29:00       95.871       52.760       18.985       23.924       19.987       25.497      572.357      399.463      650.106        0.698        0.081      109.430       12.400        0.013      330.594       -1.932      868.283
12/10/2013  16:30:00       87.917       64.923       31.041       32.965       21.683       22.456     1086.722      470.168      504.260        0.748        0.103      109.291       18.987        0.030      330.560       -1.989      868.270
12/10/2013  16:31:00       19.698       29.050       38.193       31.322       42.624       21.003      981.040     1816.824      441.143        0.296        0.162       35.099       19.870        0.320      330.610       -1.907      868.262
12/10/2013  16:32:00       23.130        9.972       36.035       22.731       49.736       20.785      516.718     2473.646      432.019        0.268        0.171       25.188       24.965        0.982      330.688       -1.780      868.256
12/10/2013  16:33:00       18.362       26.601       41.104       28.215       28.171       21.146      796.059      793.604      447.168        0.239        0.102       32.323       15.320        0.225      330.692       -1.771      868.250
12/10/2013  16:34:00       20.064       14.960       36.699       22.586       33.257       20.083      510.117     1106.041      403.326        0.200        0.101       25.027       19.572        0.612      330.643       -1.851      868.240
12/10/2013  16:35:00       85.738       54.483       36.931       35.586       22.249       26.838     1266.378      495.007      720.273        0.708        0.124      101.585       23.162        0.052      330.620       -1.891      868.234
12/10/2013  16:36:00      104.608       52.186       44.597       29.173       35.204       25.519      851.072     1239.329      651.198        0.920        0.137      116.903       15.476        0.018      330.567       -1.978      868.210
12/10/2013  16:37:00       69.573       64.550       43.415       23.256       31.166       21.015      540.855      971.302      441.622        0.642        0.098       94.906       12.391        0.017      330.605       -1.915      868.186
12/10/2013  16:38:00       81.419       49.026       36.064       48.361       30.286       27.784     2338.796      917.248      771.974        0.718        0.201       95.039       23.936        0.063      330.577       -1.961      868.174
12/10/2013  16:39:00       83.226       37.750       20.528       29.182       20.495       19.249      851.591      420.061      370.522        0.521        0.082       91.387        6.513        0.005      330.607       -1.912      868.159
12/10/2013  16:40:00      104.493       44.039       16.751       34.371       22.976       25.883     1181.379      527.896      669.952        0.776        0.119      113.395       13.067        0.013      330.581       -1.956      868.178
12/10/2013  16:41:00       92.021       44.245        7.878       33.248       31.417       23.245     1105.447      987.017      540.352        0.656        0.132      102.105       16.999        0.028      330.541       -2.022      868.202
12/10/2013  16:42:00       99.726       51.745       17.439       25.027       19.133       18.499      626.374      366.068      342.227        0.713        0.067      112.351        8.428        0.006      330.534       -2.033      868.237
12/10/2013  16:43:00       91.998       63.424       25.915       27.243       25.911       33.411      742.208      671.386     1116.306        0.784        0.126      111.742       17.385        0.024      330.533       -2.033      868.265
12/10/2013  16:44:00       30.874       58.696       64.239       34.948       24.401       19.672     1221.342      595.394      387.005        0.536        0.110       66.321       20.735        0.098      330.530       -2.039      868.264
12/10/2013  16:45:00       29.713       60.242       48.684       28.798       33.374       22.878      829.326     1113.836      523.421        0.467        0.123       67.171       20.403        0.092      330.533       -2.034      868.262
12/10/2013  16:46:00       27.289       54.925       43.200       38.621       22.626       23.607     1491.552      511.958      557.268        0.409        0.128       61.331       25.279        0.170      330.549       -2.008      868.269
12/10/2013  16:47:00      129.022       66.793       11.429       32.580       28.509       24.350     1061.451      812.751      592.911        1.185        0.123      145.286       17.799        0.015      330.447       -2.174      868.302
12/10/2013  16:48:00      118.338       72.674       18.431       26.896       26.895       25.670      723.388      723.320      658.944        1.086        0.105      138.871       15.000        0.012      330.440       -2.186      868.343
12/10/2013  16:49:00      113.945       66.452       26.030       27.733       19.235       22.833      769.102      369.968      521.336        0.987        0.083      131.907       16.370        0.015      330.442       -2.181      868.378
12/10/2013  16:50:00       96.522       63.679        5.990       24.044       21.110       17.655      578.114      445.627      311.701        0.737        0.067      115.635       11.531        0.010      330.406       -2.242      868.406
12/10/2013  16:51:00       68.139       61.037        8.465       22.949       26.427       21.916      526.634      698.408      480.312        0.507        0.085       91.479       12.275        0.018      330.415       -2.226      868.418
12/10/2013  16:52:00       88.525       75.106       13.564       33.714       28.696       25.338     1136.608      823.455      641.997        0.813        0.130      116.093       19.772        0.029      330.352       -2.331      868.428
12/10/2013  16:53:00       73.378       36.331        6.861       27.531       25.888       23.755      757.929      670.205      564.282        0.437        0.100       81.880       16.817        0.042      330.395       -2.260      868.452
12/10/2013  16:54:00       81.096       55.673       13.704       26.008       20.184       20.670      676.419      407.402      427.257        0.569        0.076       98.367       10.681        0.012      330.343       -2.343      868.462
12/10/2013  16:55:00      104.956       68.475       17.577       34.289       28.271       23.322     1175.704      799.236      543.921        0.927        0.126      125.318       17.207        0.019      330.331       -2.365      868.460
12/10/2013  16:56:00      106.438       79.830       11.149       40.974       32.379       31.969     1678.849     1048.374     1021.988        1.079        0.187      133.048       19.813        0.022      330.296       -2.423      868.450
12/10/2013  16:57:00      117.407       49.831       12.646       33.875       29.963       26.147     1147.482      897.801      683.652        0.958        0.136      127.544       19.823        0.024      330.291       -2.430      868.450
12/10/2013  16:58:00       78.532       55.082        5.463       30.997       22.294       19.516      960.839      497.010      380.883        0.553        0.092       95.924       17.658        0.034      330.279       -2.447      868.485
12/10/2013  16:59:00       77.023       35.869        7.635       20.812       17.195       16.086      433.124      295.685      258.758        0.413        0.049       84.966        8.241        0.009      330.326       -2.373      868.521
12/10/2013  17:00:00       56.833       47.916        5.053       31.672       29.295       25.147     1003.090      858.199      632.365        0.402        0.125       74.337       18.543        0.062      330.320       -2.383      868.542
12/10/2013  17:01:00       76.836       56.411        2.836       15.669       17.373       14.476      245.507      301.826      209.548        0.493        0.038       95.320        7.116        0.006      330.321       -2.383      868.548
12/10/2013  17:02:00       59.997       43.004       16.393       34.090       25.990       23.711     1162.094      675.465      562.197        0.406        0.120       73.817       15.194        0.042      330.357       -2.320      868.521
12/10/2013  17:03:00      104.510       58.134       12.593       26.735       20.003       19.868      714.786      400.129      394.757        0.798        0.075      119.590       17.898        0.022      330.327       -2.371      868.476
12/10/2013  17:04:00       56.654       67.635       35.585       32.975       20.555       25.429     1087.345      422.501      646.611        0.560        0.108       88.228       20.489        0.054      330.354       -2.327      868.419
12/10/2013  17:05:00       70.019       58.744       40.783       56.614       36.541       39.372     3205.103     1335.261     1550.142        0.805        0.305       91.398       38.007        0.173      330.354       -2.326      868.383
12/10/2013  17:06:00       86.656       35.520       20.664       45.964       34.581       32.213     2112.682     1195.827     1037.704        0.677        0.217       93.654       25.646        0.075      330.319       -2.384      868.366
12/10/2013  17:07:00       97.429       52.763       18.757       24.085       27.636       24.841      580.090      763.768      617.056        0.729        0.098      110.799       17.689        0.025      330.286       -2.438      868.360
12/10/2013  17:08:00       95.949       47.135       21.118       44.688       37.870       22.160     1997.023     1434.146      491.045        0.790        0.196      106.901       16.678        0.024      330.280       -2.446      868.349
12/10/2013  17:09:00       75.577       48.041       26.118       45.587       29.080       25.545     2078.162      845.672      652.538        0.614        0.179       89.553       16.089        0.032      330.274       -2.458      868.337
12/10/2013  17:10:00       67.536       49.839       37.328       25.840       30.267       30.957      667.714      916.079      958.367        0.549        0.127       83.935       13.644        0.026      330.344       -2.344      868.321
12/10/2013  17:11:00       94.774       73.199       30.456       33.596       31.656       37.671     1128.686     1002.109     1419.086        0.941        0.177      119.751       27.392        0.052      330.323       -2.376      868.306
12/10/2013  17:12:00       83.904       66.796       30.425       33.973       18.300       27.090     1154.153      334.896      733.855        0.732        0.111      107.246       21.136        0.039      330.277       -2.450      868.273
12/10/2013  17:13:00       72.753       65.056       46.599       31.127       19.027       22.420      968.918      362.035      502.647        0.676        0.092       97.598       19.442        0.040      330.328       -2.369      868.255
12/10/2013  17:14:00       42.378       44.220       44.197       40.210       32.125       24.679     1616.810     1032.035      609.071        0.448        0.163       61.248       20.023        0.107      330.311       -2.396      868.236
12/10/2013  17:15:00       61.492       57.999       56.257       52.675       28.052       25.932     2774.706      786.939      672.462        0.727        0.212       84.529       30.200        0.128      330.318       -2.385      868.229
12/10/2013  17:16:00       84.126       40.613       34.647       40.544       39.618       27.058     1643.801     1569.579      732.127        0.694        0.197       93.416       15.005        0.026      330.290       -2.433      868.234
12/10/2013  17:17:00       83.930       33.100       13.756       39.755       28.412       25.116     1580.479      807.233      630.796        0.567        0.151       90.221        8.903        0.010      330.253       -2.494      868.257
12/10/2013  17:18:00       94.048       48.904       17.635       38.919       26.450       23.712     1514.722      699.585      562.266        0.716        0.139      106.004       16.897        0.025      330.240       -2.515      868.275
12/10/2013  17:19:00      108.858       51.901        7.929       40.063       29.036       27.031     1605.059      843.072      730.677        0.889        0.159      120.597       14.238        0.014      330.268       -2.467      868.285
12/10/2013  17:20:00       77.125       49.999       30.457       49.947       27.917       27.018     2494.669      779.375      729.946        0.669        0.200       91.914       27.949        0.092      330.240       -2.512      868.299
12/10/2013  17:21:00       64.935       31.678       15.209       30.272       23.903       22.709      916.421      571.330      515.708        0.373        0.100       72.250       16.071        0.049      330.258       -2.483      868.303
12/10/2013  17:22:00       91.584       39.586       22.018       29.172       26.058       28.254      850.977      679.034      798.288        0.638        0.116       99.773       21.143        0.045      330.247       -2.501      868.296
12/10/2013  17:23:00      100.118       60.709       15.454       27.238       20.451       22.702      741.901      418.243      515.375        0.781        0.084      117.086       13.229        0.013      330.277       -2.453      868.290
12/10/2013  17:24:00       89.385       41.357        7.777       29.250       22.973       22.724      855.539      527.762      516.359        0.583        0.095       98.489       13.917        0.020      330.245       -2.504      868.284
12/10/2013  17:25:00       88.816       36.067       22.373       33.412       19.027       26.443     1116.385      362.020      699.237        0.593        0.109       95.860       19.360        0.041      330.216       -2.551      868.302
12/10/2013  17:26:00       80.124       59.242       11.164       19.114       17.614       21.395      365.347      310.264      457.743        0.559        0.057       99.647        9.072        0.008      330.188       -2.599      868.318
12/10/2013  17:27:00       83.011       36.126        9.419       28.212       21.231       23.235      795.938      450.768      539.879        0.504        0.089       90.531       16.138        0.032      330.211       -2.559      868.358
12/10/2013  17:28:00       98.815       58.063        0.860       34.425       20.435       21.803     1185.096      417.600      475.386        0.761        0.104      114.611       13.933        0.015      330.238       -2.517      868.367
12/10/2013  17:29:00       64.361       52.558       18.027       21.311       22.403       23.033      454.162      501.886      530.513        0.436        0.074       83.095       11.750        0.020      330.306       -2.404      868.365
12/10/2013  17:30:00       99.715       60.573       28.425       42.217       29.060       29.970     1782.297      844.476      898.210        0.897        0.176      116.671       24.095        0.043      330.312       -2.395      868.350
12/10/2013  17:31:00       66.779       69.599       21.238       25.677       18.014       19.739      659.313      324.506      389.617        0.556        0.069       96.455       10.127        0.011      330.221       -2.545      868.363
12/10/2013  17:32:00       58.072       22.585       17.807       19.989       16.750       19.134      399.548      280.578      366.116        0.262        0.052       62.309        9.958        0.026      330.211       -2.558      868.405
12/10/2013  17:33:00       83.597       58.847       13.375       31.192       20.501       18.005      972.915      420.275      324.197        0.617        0.086      102.233        7.889        0.006      330.211       -2.560      868.426
12/10/2013  17:34:00      102.069       61.530       22.130       18.574       15.678       20.640      344.999      245.785      425.999        0.786        0.051      119.180       12.027        0.010      330.215       -2.556      868.421
12/10/2013  17:35:00      101.033       71.152       30.290       37.431       24.775       36.553     1401.077      613.799     1336.142        0.977        0.168      123.573       25.498        0.043      330.268       -2.467      868.386
12/10/2013  17:36:00       95.904       47.646       25.942       42.323       36.177       31.063     1791.278     1308.780      964.927        0.810        0.203      107.088       25.867        0.058      330.244       -2.507      868.332
12/10/2013  17:37:00       39.843       60.563       71.469       28.605       29.731       21.900      818.242      883.960      479.594        0.627        0.109       72.494        9.539        0.017      330.278       -2.451      868.307
12/10/2013  17:38:00       48.377       60.893       47.893       18.111       24.142       25.548      328.022      582.841      652.686        0.495        0.078       77.771       18.212        0.055      330.240       -2.513      868.349
12/10/2013  17:39:00       40.980       34.341       15.293       23.099       14.428       19.078      533.557      208.164      363.966        0.210        0.055       53.467       11.181        0.044      330.249       -2.497      868.398
12/10/2013  17:40:00       32.739       34.321       26.332       14.786       14.758       16.843      218.619      217.809      283.703        0.183        0.036       47.432        9.661        0.041      330.268       -2.466      868.439
12/10/2013  17:41:00       39.897       35.554       31.213       19.540       13.697       15.652      381.821      187.613      244.980        0.232        0.041       53.441        6.508        0.015      330.275       -2.456      868.443
12/10/2013  17:42:00       56.569       54.345       54.267       31.209       26.440       21.789      973.991      699.069      474.774        0.562        0.107       78.444       13.829        0.031      330.286       -2.439      868.402
12/10/2013  17:43:00       41.011       81.085       84.515       39.922       43.841       25.044     1593.786     1922.012      627.200        0.977        0.207       90.867       19.841        0.048      330.260       -2.481      868.369
12/10/2013  17:44:00       82.160       78.006       47.213       32.093       39.273       42.204     1029.957     1542.382     1781.144        0.971        0.218      113.292       31.832        0.079      330.217       -2.553      868.371
12/10/2013  17:45:00       77.133       38.337       25.482       30.277       25.292       19.381      916.691      639.710      375.605        0.500        0.097       86.135       14.220        0.027      330.211       -2.560      868.411
12/10/2013  17:46:00       50.902       23.442       16.382       22.040       25.258       19.870      485.747      637.947      394.805        0.246        0.076       56.041        9.461        0.028      330.178       -2.616      868.453
12/10/2013  17:47:00       80.156       48.412       22.755       15.139       11.955       15.840      229.182      142.913      250.902        0.495        0.031       93.642       10.601        0.013      330.138       -2.687      868.484
12/10/2013  17:48:00       76.465       45.029       16.631       13.132       10.547       15.811      172.458      111.230      249.985        0.434        0.027       88.739        7.932        0.008      330.163       -2.643      868.482
12/10/2013  17:49:00       63.722       40.451       19.348       24.729       22.129       24.867      611.518      489.709      618.376        0.390        0.086       75.477       17.111        0.051      330.244       -2.507      868.450
12/10/2013  17:50:00       35.743       43.864       29.510       21.576       17.809       18.453      465.521      317.153      340.519        0.260        0.056       56.583       15.320        0.073      330.274       -2.458      868.414
12/10/2013  17:51:00       37.245       41.105       31.794       35.834       16.859       18.364     1284.100      284.220      337.228        0.300        0.095       55.469       19.468        0.123      330.272       -2.461      868.393
12/10/2013  17:52:00       55.269       55.648       36.594       29.356       19.758       18.371      861.787      390.381      337.510        0.454        0.079       78.431       15.345        0.038      330.239       -2.514      868.356
12/10/2013  17:53:00       88.255       59.767       26.072       32.060       20.230       27.746     1027.822      409.250      769.866        0.712        0.110      106.589       16.913        0.025      330.228       -2.535      868.309
12/10/2013  17:54:00      114.418       90.891       41.084       43.019       20.871       34.255     1850.619      435.601     1173.376        1.325        0.173      146.126       25.016        0.029      330.186       -2.602      868.237
12/10/2013  17:55:00       36.816       93.607       93.667       43.421       40.539       31.746     1885.363     1643.395     1007.828        1.171        0.227      100.587       29.002        0.083      330.210       -2.563      868.143
12/10/2013  17:56:00       73.780      119.333      113.014       54.055       49.829       43.833     2921.980     2482.906     1921.341        1.989        0.366      140.299       31.661        0.051      330.145       -2.671      868.034
12/10/2013  17:57:00      106.086      135.489      118.035       53.867       43.774       40.094     2901.629     1916.178     1607.531        2.498        0.321      172.080       23.979        0.019      330.113       -2.724      867.910
12/10/2013  17:58:00        7.661      105.098      126.426       39.476       45.777       41.421     1558.352     2095.542     1715.735        1.623        0.268      105.377       35.648        0.114      330.186       -2.602      867.826
12/10/2013  17:59:00       11.883      -27.199       48.477       32.441       99.651       42.518     1052.406     9930.241     1807.780        0.801        0.640       29.681       53.932        3.302      330.222       -2.544      867.857
12/10/2013  18:00:00        1.676      -62.403        9.596       39.747       44.733       18.041     1579.832     2001.065      325.493        0.395        0.195       62.425       15.086        0.058      330.349       -2.335      868.041
12/10/2013  18:01:00      -77.122       36.216       -9.633       27.682       29.507       14.698      766.317      870.679      216.030        0.460        0.093       85.202       14.040        0.027      330.261       -2.479      868.311
12/10/2013  18:02:00     -101.710      101.110      -22.829       22.497       28.638       17.080      506.133      820.138      291.740        1.135        0.081      143.416       12.277        0.007      330.226       -2.538      868.563
12/10/2013  18:03:00      -74.243       47.654       -4.853       21.136       30.420       16.634      446.736      925.388      276.680        0.473        0.082       88.221       14.307        0.026      330.191       -2.595      868.707
12/10/2013  18:04:00      -64.558       41.802      -13.047       23.145       18.735       10.825      535.673      351.012      117.170        0.354        0.050       76.910        7.366        0.009      330.183       -2.606      868.690
12/10/2013  18:05:00       -7.099        5.613       -0.208       10.906       15.133       10.547      118.943      229.016      111.234        0.027        0.023        9.049       10.384        1.317      330.178       -2.617      868.581
12/10/2013  18:06:00       25.685       40.373       41.791       30.222       22.821       20.123      913.343      520.814      404.931        0.294        0.092       47.851       15.444        0.104      330.199       -2.579      868.469
12/10/2013  18:07:00       45.321       41.122       29.346       26.842       15.994       21.916      720.489      255.803      480.302        0.303        0.073       61.197       14.076        0.053      330.201       -2.579      868.426
12/10/2013  18:08:00       34.264       59.264       45.820       34.607       22.403       30.012     1197.617      501.906      900.696        0.469        0.130       68.456       24.338        0.126      330.242       -2.510      868.455
12/10/2013  18:09:00       49.248       44.102       39.562       24.017       22.966       26.530      576.834      527.455      703.835        0.387        0.090       66.109       11.973        0.033      330.193       -2.591      868.503
12/10/2013  18:10:00       77.881       54.712       25.132       26.105       16.788       21.875      681.479      281.845      478.514        0.557        0.072       95.178        8.344        0.008      330.165       -2.636      868.519
12/10/2013  18:11:00       85.742       65.314       29.652       24.286       16.117       24.685      589.805      259.771      609.374        0.698        0.073      107.785       13.082        0.015      330.175       -2.621      868.496
12/10/2013  18:12:00       54.081       52.167       41.285       28.363       24.590       24.405      804.471      604.667      595.589        0.468        0.100       75.141       21.120        0.079      330.161       -2.644      868.437
12/10/2013  18:13:00       29.169       98.843       77.490       30.269       27.144       17.988      916.190      736.803      323.580        0.930        0.099      103.057        5.793        0.003      330.161       -2.644      868.354
12/10/2013  18:14:00       63.497       71.153       57.398       46.619       30.128       16.826     2173.315      907.696      283.119        0.788        0.168       95.366       15.170        0.025      330.164       -2.639      868.282
12/10/2013  18:15:00        8.440       -5.813       38.884       28.905       43.797       26.735      835.519     1918.172      714.757        0.254        0.173       10.248       27.233        7.062      330.223       -2.541      868.240
12/10/2013  18:16:00       12.940        1.655       42.585       26.129       30.004       23.486      682.705      900.215      551.578        0.206        0.107       13.045       16.179        1.538      330.211       -2.562      868.218
12/10/2013  18:17:00        3.161       29.525       62.656       24.577       25.661       21.758      604.027      658.484      473.418        0.327        0.087       29.694       15.141        0.260      330.206       -2.570      868.207
12/10/2013  18:18:00       27.751       21.990       62.762       26.039       32.575       20.297      678.033     1061.155      411.978        0.367        0.108       35.407       17.295        0.239      330.208       -2.566      868.213
12/10/2013  18:19:00       51.163       60.615       58.505       30.831       21.254       19.837      950.562      451.746      393.506        0.575        0.090       79.321        9.977        0.016      330.166       -2.637      868.228
12/10/2013  18:20:00       81.396       68.631       33.978       13.166       13.856       16.320      173.353      191.984      266.344        0.656        0.032      106.468        5.442        0.003      330.143       -2.677      868.238
12/10/2013  18:21:00       63.603       52.097       43.920       25.723       19.001       24.005      661.684      361.030      576.216        0.514        0.080       82.216       18.954        0.053      330.181       -2.611      868.237
12/10/2013  18:22:00       47.840       45.417       38.957       49.735       24.786       24.449     2473.558      614.334      597.758        0.478        0.184       65.965       28.045        0.181      330.160       -2.647      868.218
12/10/2013  18:23:00       22.549       43.250       58.850       27.607       30.309       16.971      762.165      918.659      288.007        0.391        0.098       48.775       16.051        0.108      330.151       -2.660      868.204
12/10/2013  18:24:00        1.815      -22.923       25.208       20.698       26.564       17.398      428.394      705.621      302.702        0.130        0.072       22.994       16.899        0.540      330.303       -2.410      868.215
12/10/2013  18:25:00      -12.873      -24.113        2.921       15.557       15.376       13.779      242.018      236.429      189.864        0.071        0.033       27.334        5.774        0.045      330.332       -2.363      868.252
12/10/2013  18:26:00      -66.306        2.057       -5.873       21.012       30.175       15.031      441.523      910.531      225.930        0.301        0.079       66.338       11.114        0.028      330.314       -2.394      868.296
12/10/2013  18:27:00      -58.826      -32.710        7.578       58.180       49.693       23.403     3384.866     2469.351      547.713        0.549        0.320       67.308       22.875        0.115      330.246       -2.503      868.355
12/10/2013  18:28:00     -136.651      -20.990       -7.860       32.655       54.144       17.910     1066.341     2931.602      320.765        1.175        0.216      138.253       16.567        0.014      330.258       -2.483      868.391
12/10/2013  18:29:00     -121.215        8.408      -12.061       40.272       18.974       15.483     1621.843      359.995      239.733        0.856        0.111      121.507       11.402        0.009      330.252       -2.496      868.393
12/10/2013  18:30:00      -26.271       21.190        3.321       44.873       22.640       18.424     2013.625      512.575      339.461        0.201        0.143       33.752       17.199        0.260      330.196       -2.585      868.374
12/10/2013  18:31:00       -7.375      105.731      -14.551       24.252       32.325       17.879      588.156     1044.874      319.646        0.670        0.098      105.987       13.156        0.015      330.248       -2.499      868.341
12/10/2013  18:32:00       -9.372       66.134        1.261       18.729       38.011       14.622      350.776     1444.815      213.801        0.324        0.100       66.795       16.800        0.063      330.256       -2.489      868.328
12/10/2013  18:33:00       14.998       40.560      -11.304       16.800       24.058       14.022      282.238      578.766      196.615        0.153        0.053       43.244       13.493        0.097      330.159       -2.648      868.313
12/10/2013  18:34:00      -39.152       -3.434       -5.292       46.587       11.770        9.486     2170.362      138.527       89.978        0.199        0.120       39.302        5.842        0.022      330.170       -2.629      868.311
12/10/2013  18:35:00      -70.942      -33.435       -0.784       31.998       35.214       16.175     1023.865     1240.035      261.624        0.434        0.126       78.426       13.365        0.029      330.261       -2.480      868.314
12/10/2013  18:36:00     -108.939      -39.089       -7.998       16.221       14.488       12.890      263.133      209.904      166.154        0.705        0.032      115.740        7.905        0.005      330.184       -2.605      868.297
12/10/2013  18:37:00      -66.951      -37.635        0.570       21.714       20.893       10.936      471.517      436.527      119.599        0.346        0.051       76.804        7.103        0.009      330.284       -2.442      868.253
12/10/2013  18:38:00      -20.256      -29.614        6.301       23.557       30.787       16.321      554.913      947.810      266.383        0.155        0.088       35.879       13.304        0.137      330.318       -2.386      868.202
12/10/2013  18:39:00      -48.419      -78.340       -3.776       20.009        8.902       11.759      400.355       79.243      138.284        0.456        0.031       92.096        9.832        0.011      330.235       -2.519      868.138
12/10/2013  18:40:00      -36.487      -32.041        1.811       28.289       23.386       14.475      800.266      546.920      209.538        0.196        0.078       48.558       11.636        0.057      330.306       -2.405      868.090
12/10/2013  18:41:00      -49.584      -15.396       14.782       41.916       31.457       21.273     1756.968      989.549      452.528        0.306        0.160       51.919       18.543        0.128      330.308       -2.402      868.058
12/10/2013  18:42:00      -22.537       -6.786       18.203       44.906       26.970       25.365     2016.533      727.359      643.368        0.214        0.169       23.536       21.568        0.840      330.284       -2.441      868.034
12/10/2013  18:43:00      -22.768      -18.132       13.446       30.694       26.442       21.767      942.103      699.155      473.803        0.157        0.106       29.106       19.366        0.443      330.333       -2.361      868.035
12/10/2013  18:44:00      -27.075      -17.399       -5.898       27.240       15.878       16.759      742.009      252.115      280.877        0.117        0.064       32.184       10.889        0.114      330.303       -2.410      868.040
12/10/2013  18:45:00      -37.080      -30.740       -0.072       37.831       29.827       21.794     1431.190      889.670      474.998        0.256        0.140       48.165       17.172        0.127      330.299       -2.416      868.037
12/10/2013  18:46:00      -10.610      -38.554      -10.872       28.138       23.875       19.818      791.741      570.010      392.764        0.174        0.088       39.987        7.629        0.036      330.333       -2.362      868.023
12/10/2013  18:47:00       -4.629      -13.383        7.826       18.200       28.023       17.078      331.236      785.266      291.652        0.083        0.070       14.161       17.776        1.576      330.369       -2.303      867.986
12/10/2013  18:48:00       -4.743      -26.673        5.276       16.894       30.321       20.978      285.393      919.369      440.082        0.120        0.082       27.092       21.505        0.630      330.347       -2.339      867.947
12/10/2013  18:49:00       -9.859      -15.262        6.266       34.826       35.966       24.108     1212.870     1293.544      581.207        0.173        0.154       18.169       17.547        0.933      330.344       -2.344      867.924
12/10/2013  18:50:00       -2.073       24.160       12.650       20.473       16.992       22.399      419.149      288.727      501.720        0.098        0.060       24.249       13.080        0.291      330.293       -2.426      867.935
12/10/2013  18:51:00      -10.584       24.479       33.170       17.798       22.345       19.209      316.770      499.320      368.979        0.150        0.059       26.670       15.045        0.318      330.273       -2.459      867.964
12/10/2013  18:52:00        2.537       35.767       51.755       17.895       25.803       19.907      320.226      665.788      396.272        0.267        0.069       35.857       15.135        0.178      330.307       -2.402      867.999
12/10/2013  18:53:00       -7.058       34.212       53.488       20.942       33.521       25.354      438.563     1123.642      642.812        0.314        0.110       34.933       13.775        0.156      330.241       -2.513      868.022
12/10/2013  18:54:00        7.428       43.045       66.039       22.334       30.094       16.341      498.825      905.660      267.042        0.397        0.084       43.681       15.318        0.123      330.216       -2.554      868.028
12/10/2013  18:55:00       42.602       72.058       71.154       40.325       38.617       30.578     1626.133     1491.271      935.007        0.806        0.203       83.709       20.897        0.062      330.142       -2.676      868.009
12/10/2013  18:56:00       80.013       86.517       70.462       48.156       35.063       37.161     2318.964     1229.385     1380.926        1.189        0.246      117.844       27.212        0.053      330.130       -2.695      867.963
12/10/2013  18:57:00       64.770       76.108       83.879       34.233       30.218       18.774     1171.903      913.139      352.452        0.973        0.122       99.938        3.213        0.001      330.124       -2.704      867.915
12/10/2013  18:58:00       64.236       67.695       61.740       46.021       33.088       31.317     2117.915     1094.834      980.758        0.836        0.210       93.322       23.526        0.064      330.112       -2.725      867.882
12/10/2013  18:59:00       88.444       49.834       30.373       42.236       44.622       47.691     1783.844     1991.152     2274.390        0.864        0.302      101.517       27.773        0.075      330.053       -2.819      867.861
12/10/2013  19:00:00       91.955       69.238       44.078       44.086       33.018       43.747     1943.574     1090.160     1913.764        1.007        0.247      115.107       30.117        0.068      330.043       -2.836      867.857
12/10/2013  19:01:00       59.285       59.578       60.433       34.550       33.228       25.636     1193.697     1104.069      657.208        0.684        0.148       84.049       16.898        0.040      330.073       -2.788      867.846
12/10/2013  19:02:00       69.383       53.714       43.241       34.078       28.460       27.768     1161.280      809.966      771.069        0.616        0.137       87.745       13.399        0.023      330.090       -2.762      867.837
12/10/2013  19:03:00       47.343       44.873       45.610       34.794       28.124       19.831     1210.591      790.936      393.249        0.436        0.120       65.231       12.839        0.039      330.100       -2.744      867.837
12/10/2013  19:04:00       67.283       35.243       25.874       28.780       21.636       25.245      828.276      468.134      637.327        0.419        0.097       75.954        9.867        0.017      330.078       -2.780      867.841
12/10/2013  19:05:00       84.159       59.368       10.090       23.345       23.740       20.010      544.997      563.590      400.383        0.611        0.075      102.992       14.482        0.020      330.016       -2.881      867.850
12/10/2013  19:06:00       61.176       53.861       10.361       20.857       17.295       19.070      435.021      299.111      363.656        0.392        0.055       81.508        8.461        0.011      330.004       -2.900      867.870
12/10/2013  19:07:00       53.701       44.090       -0.155       25.351       24.669       20.809      642.689      608.570      433.002        0.326        0.084       69.482       17.285        0.062      329.990       -2.922      867.893
12/10/2013  19:08:00       76.036       68.068        0.316       25.980       22.847       17.986      674.954      522.001      323.513        0.597        0.076      102.053       14.461        0.020      329.971       -2.954      867.907
12/10/2013  19:09:00      101.334       79.459        8.443       37.489       28.383       26.495     1405.405      805.582      701.971        0.978        0.146      128.772       22.937        0.032      329.945       -2.999      867.919
12/10/2013  19:10:00      124.550       81.878        3.302       30.574       27.694       26.154      934.789      766.966      684.012        1.231        0.119      149.053       18.995        0.016      329.897       -3.078      867.935
12/10/2013  19:11:00      124.299       64.414       -2.082       42.725       32.790       25.504     1825.449     1075.202      650.447        1.158        0.178      139.998       14.897        0.011      329.859       -3.137      867.978
12/10/2013  19:12:00      101.770       62.963        5.452       37.348       27.793       21.501     1394.870      772.444      462.276        0.849        0.131      119.673        8.846        0.005      329.829       -3.187      868.014
12/10/2013  19:13:00       48.145       70.852        2.800       36.093       32.643       24.553     1302.730     1065.569      602.843        0.516        0.149       85.662       20.704        0.058      329.841       -3.166      868.045
12/10/2013  19:14:00       29.006       56.990       -6.795       16.837       30.576       17.809      283.480      934.874      317.152        0.284        0.077       63.947       17.391        0.074      329.846       -3.159      868.069
12/10/2013  19:15:00       36.189       53.160       -6.509       15.923       29.579       17.043      253.555      874.900      290.452        0.280        0.071       64.308       14.812        0.053      329.873       -3.115      868.091
12/10/2013  19:16:00       33.526       48.012       -1.314       17.699       19.900       14.266      313.257      395.990      203.527        0.217        0.046       58.559        8.464        0.021      329.875       -3.113      868.090
12/10/2013  19:17:00       32.663       25.356        6.209       16.217       15.884       16.636      262.993      252.305      276.768        0.127        0.040       41.350       11.438        0.077      329.882       -3.100      868.084
12/10/2013  19:18:00       40.786       29.692        5.854       18.823       10.881       12.146      354.294      118.393      147.530        0.160        0.031       50.449        8.257        0.027      329.878       -3.106      868.066
12/10/2013  19:19:00       53.697       19.605       16.266       26.033       21.514       18.950      677.693      462.863      359.089        0.252        0.075       57.164       16.422        0.083      329.911       -3.054      868.044
12/10/2013  19:20:00       60.411       27.984       32.804       28.042       19.911       21.585      786.358      396.446      465.909        0.358        0.082       66.578       15.936        0.057      329.951       -2.988      868.030
12/10/2013  19:21:00       99.659       47.808       11.101       29.550       19.054       16.988      873.178      363.073      288.594        0.693        0.076      110.533        9.759        0.008      329.907       -3.063      868.051
12/10/2013  19:22:00       98.328       50.945       -4.049       23.005       21.097       13.866      529.230      445.103      192.278        0.672        0.058      110.742        6.353        0.003      329.891       -3.088      868.098
12/10/2013  19:23:00       60.683       57.146       -0.723       31.735       21.052       16.689     1007.093      443.208      278.528        0.434        0.086       83.355       11.385        0.019      329.883       -3.100      868.158
12/10/2013  19:24:00       35.520       65.575        1.871       27.798       33.146       23.683      772.746     1098.685      560.864        0.400        0.122       74.577       20.725        0.077      329.837       -3.174      868.217
12/10/2013  19:25:00       48.344       76.716       -2.721       21.969       30.260       21.004      482.655      915.694      441.162        0.503        0.092       90.678       16.773        0.034      329.819       -3.204      868.255
12/10/2013  19:26:00       65.536       51.616        2.177       22.995       13.246       17.030      528.754      175.454      290.033        0.398        0.050       83.422       10.113        0.015      329.831       -3.183      868.267
12/10/2013  19:27:00       62.484       42.747        0.755       33.981       26.789       22.316     1154.687      717.674      498.002        0.405        0.119       75.707        9.794        0.017      329.820       -3.200      868.249
12/10/2013  19:28:00      104.632       55.613        9.547       33.914       27.254       30.261     1150.176      742.791      915.748        0.847        0.140      118.494       21.696        0.034      329.798       -3.237      868.195
12/10/2013  19:29:00      148.370       84.563       14.620       26.126       25.042       25.413      682.590      627.106      645.821        1.567        0.098      170.776       16.523        0.009      329.798       -3.238      868.129
12/10/2013  19:30:00      156.457       80.458       11.225       30.902       29.077       24.582      954.953      845.467      604.286        1.674        0.120      175.933       15.423        0.008      329.746       -3.323      868.067
12/10/2013  19:31:00      151.004       73.683       16.847       46.361       39.565       33.171     2149.305     1565.361     1100.337        1.666        0.241      168.022       23.291        0.019      329.737       -3.337      868.024
12/10/2013  19:32:00       82.688       48.261        7.598       45.052       33.977       26.308     2029.716     1154.438      692.119        0.655        0.194       95.741       24.585        0.066      329.681       -3.429      868.005
12/10/2013  19:33:00       78.851       41.631        9.509       33.297       31.058       17.827     1108.704      964.625      317.796        0.522        0.120       89.166        9.689        0.012      329.661       -3.462      868.006
12/10/2013  19:34:00       57.447       37.362        3.797       14.707       18.702       13.864      216.305      349.763      192.208        0.273        0.038       68.528        4.998        0.005      329.652       -3.476      868.022
12/10/2013  19:35:00       27.663       20.457        7.333       20.563       11.659       15.979      422.825      135.931      255.344        0.103        0.041       34.405        4.930        0.021      329.693       -3.411      868.030
12/10/2013  19:36:00       14.064        5.400       -6.451       15.082       20.905        9.892      227.453      437.006       97.849        0.052        0.038       15.065       13.100        0.756      329.706       -3.387      868.037
12/10/2013  19:37:00      -21.484       -4.677        1.016        8.143       11.230        9.535       66.313      126.111       90.919        0.038        0.014       21.987        6.440        0.086      329.713       -3.376      868.043
12/10/2013  19:38:00       -8.778        2.729       -6.195       15.115       11.195       11.174      228.477      125.333      124.869        0.030        0.024        9.193        7.601        0.684      329.766       -3.292      868.042
12/10/2013  19:39:00       14.726       14.463        3.813       10.248       12.019       11.634      105.025      144.465      135.350        0.041        0.019       20.640        4.687        0.052      329.780       -3.270      868.038
12/10/2013  19:40:00        2.332       11.629       -0.787        4.457       10.767        4.330       19.863      115.930       18.750        0.015        0.008       11.860        4.739        0.160      329.781       -3.268      868.029
12/10/2013  19:41:00        6.004        7.519        1.971        4.652        5.716        5.858       21.637       32.676       34.318        0.009        0.004        9.622        3.678        0.146      329.811       -3.217      868.019
12/10/2013  19:42:00        1.271       14.315       -2.866        8.052        4.846        5.267       64.838       23.483       27.739        0.017        0.006       14.372        3.342        0.054      329.807       -3.225      868.012
12/10/2013  19:43:00       -9.001       16.992        3.470        5.405        7.832        5.634       29.218       61.337       31.740        0.025        0.006       19.229        3.057        0.025      329.819       -3.203      868.020
12/10/2013  19:44:00      -18.744       15.106       -1.453        7.683        4.925        7.286       59.022       24.256       53.080        0.036        0.007       24.073        4.540        0.036      329.819       -3.202      868.036
12/10/2013  19:45:00        6.789       16.615        4.273       13.553        5.624        7.665      183.680       31.633       58.748        0.031        0.014       17.948        5.724        0.102      329.838       -3.172      868.064
12/10/2013  19:46:00       26.625       23.363       12.896        7.465        6.167        7.742       55.733       38.035       59.946        0.079        0.008       35.422        5.565        0.025      329.841       -3.167      868.083
12/10/2013  19:47:00       33.462       25.080        2.052        8.306        9.586        7.680       68.993       91.892       58.978        0.099        0.011       41.817        6.332        0.023      329.848       -3.155      868.089
12/10/2013  19:48:00       23.499       19.493        4.795       11.712       14.252        8.835      137.167      203.109       78.054        0.069        0.021       30.532        8.487        0.077      329.831       -3.183      868.093
12/10/2013  19:49:00       44.347       23.808       -0.347       18.928       21.956       12.854      358.279      482.074      165.220        0.177        0.050       50.334       11.823        0.055      329.794       -3.243      868.096
12/10/2013  19:50:00        8.893       45.042        5.891       25.230       41.285       23.689      636.541     1704.466      561.177        0.252        0.145       45.912       28.411        0.383      329.499       -3.727      868.109
12/10/2013  19:51:00        2.542       16.634       10.439       32.574       22.923       13.227     1061.085      525.462      174.941        0.108        0.088       16.827       11.028        0.430      329.484       -3.751      868.117
12/10/2013  19:52:00       29.294       38.869        6.821       21.350       24.184       19.736      455.836      584.863      389.502        0.192        0.072       48.671       17.616        0.131      329.461       -3.789      868.131
12/10/2013  19:53:00       67.742       47.017       -0.063       21.660       11.748       12.379      469.142      138.014      153.229        0.378        0.038       82.459        8.775        0.011      329.470       -3.772      868.135
12/10/2013  19:54:00       95.317       63.207       -2.183       18.539       17.451       18.018      343.709      304.537      324.662        0.703        0.049      114.370       11.311        0.010      329.527       -3.680      868.141
12/10/2013  19:55:00       75.234       38.552        5.707       33.612       22.674       19.569     1129.790      514.126      382.934        0.460        0.101       84.536       16.303        0.037      329.492       -3.736      868.141
12/10/2013  19:56:00       41.595       29.901       -1.980       17.699       16.384       14.126      313.248      268.450      199.550        0.170        0.039       51.228       10.090        0.039      329.477       -3.763      868.131
12/10/2013  19:57:00       37.910       25.556        1.245       11.782       15.112        9.209      138.826      228.367       84.811        0.127        0.023       45.720        6.875        0.023      329.466       -3.780      868.115
12/10/2013  19:58:00       38.581       28.926       -3.193       17.402       16.519       13.269      302.829      272.866      176.060        0.154        0.038       48.220       12.424        0.066      329.483       -3.749      868.088
12/10/2013  19:59:00       46.509       31.765       -1.598       12.560       15.667       13.912      157.748      245.465      193.553        0.189        0.030       56.322       10.500        0.035      329.482       -3.753      868.073
12/10/2013  20:00:00       36.532       43.170       -3.363       15.091       10.246        7.983      227.734      104.973       63.721        0.180        0.020       56.553        7.093        0.016      329.471       -3.770      868.072
12/10/2013  20:01:00       43.351       29.958       -5.006       19.937       16.490       16.735      397.499      271.934      280.054        0.188        0.047       52.695       11.588        0.048      329.481       -3.755      868.064
12/10/2013  20:02:00       30.910       28.141       -0.615       22.948       15.677       13.001      526.598      245.773      169.030        0.134        0.047       41.801        8.139        0.038      329.457       -3.794      868.056
12/10/2013  20:03:00       16.146       54.366       -3.848       14.994       21.004       12.914      224.832      441.153      166.766        0.203        0.042       56.713       12.446        0.048      329.459       -3.791      868.055
12/10/2013  20:04:00        8.643       60.013       -9.321       12.633       10.356        4.539      159.583      107.246       20.607        0.203        0.014       60.632        5.130        0.007      329.517       -3.697      868.058
12/10/2013  20:05:00       12.051       56.840       -7.626        8.152        6.604        4.491       66.462       43.607       20.173        0.178        0.007       58.103        2.834        0.002      329.527       -3.683      868.056
12/10/2013  20:06:00        8.922       50.597       -8.760       18.802       19.762       12.043      353.526      390.517      145.045        0.180        0.044       51.378       11.501        0.050      329.529       -3.678      868.043
12/10/2013  20:07:00       -6.699       48.380        0.497       20.406       18.520       13.316      416.390      342.981      177.323        0.166        0.047       48.841       12.121        0.062      329.521       -3.692      868.033
12/10/2013  20:08:00       13.893       60.242       -4.644       10.866       10.529        7.719      118.079      110.869       59.585        0.207        0.014       61.824        5.019        0.007      329.585       -3.586      868.033
12/10/2013  20:09:00       28.934       62.241       -9.147       12.254       13.835       10.389      150.163      191.399      107.929        0.262        0.022       68.637        8.142        0.014      329.581       -3.590      868.044
12/10/2013  20:10:00       17.410       42.986       -0.614       13.396       18.574       11.216      179.445      345.005      125.790        0.140        0.033       46.377       12.170        0.069      329.563       -3.622      868.062
12/10/2013  20:11:00       -0.884       61.952       -8.891        5.886        7.476        6.959       34.647       55.888       48.429        0.203        0.007       61.958        3.493        0.003      329.627       -3.520      868.069
12/10/2013  20:12:00       -1.820       37.801       -9.137       16.090       16.948        7.451      258.875      287.232       55.521        0.106        0.030       37.845        5.669        0.022      329.579       -3.595      868.078
12/10/2013  20:13:00        3.443       26.280       -1.665       12.295       18.802        9.757      151.176      353.504       95.208        0.065        0.030       26.505        3.811        0.021      329.592       -3.576      868.095
12/10/2013  20:14:00        9.634       44.225      -10.482        8.729       16.954        6.633       76.188      287.450       44.002        0.128        0.020       45.263        8.107        0.032      329.608       -3.549      868.103
12/10/2013  20:15:00       -3.619       11.442       -4.020        4.009        5.357        2.443       16.073       28.701        5.968        0.011        0.003       12.000        1.221        0.010      329.638       -3.499      868.106
12/10/2013  20:16:00      -18.946       -8.487        2.357       20.696       16.658        9.745      428.308      277.477       94.975        0.062        0.040       20.760        8.517        0.168      329.517       -3.699      868.107
12/10/2013  20:17:00      -35.027        7.373       -9.274       16.830       14.121        9.156      283.239      199.413       83.825        0.097        0.028       35.795        5.341        0.022      329.259       -4.120      868.113
12/10/2013  20:18:00      -43.298        4.009       -1.744       19.188       15.976       16.121      368.162      255.236      259.878        0.139        0.044       43.484       14.822        0.116      329.194       -4.225      868.134
12/10/2013  20:19:00      -37.249       -3.741       -4.471       23.368       14.688        9.316      546.059      215.728       86.781        0.113        0.042       37.436        9.474        0.064      329.207       -4.203      868.160
12/10/2013  20:20:00      -59.976      -21.049       -9.501       20.931       15.336        9.722      438.110      235.188       94.510        0.245        0.038       63.563        7.241        0.013      329.207       -4.203      868.180
12/10/2013  20:21:00      -82.697       -8.007      -10.090       17.043       20.236       14.461      290.451      409.496      209.134        0.396        0.045       83.084        6.770        0.007      329.145       -4.307      868.189
12/10/2013  20:22:00      -18.303       -7.333       -5.891       29.541       18.917       12.751      872.649      357.856      162.590        0.091        0.070       19.717       12.391        0.395      329.108       -4.366      868.186
12/10/2013  20:23:00      -41.543        7.816       -6.773       16.861       15.020       14.541      284.308      225.598      211.449        0.128        0.036       42.271        9.322        0.049      329.145       -4.306      868.180
12/10/2013  20:24:00        5.049       36.729        7.598       26.929       19.012       12.627      725.194      361.460      159.432        0.134        0.062       37.075       11.793        0.101      329.462       -3.787      868.184
12/10/2013  20:25:00       18.335       55.504       -2.185       14.350       24.936       13.086      205.916      621.796      171.234        0.221        0.050       58.454       14.682        0.063      329.448       -3.811      868.203
12/10/2013  20:26:00        3.038       96.017      -12.486       10.606       16.080        8.556      112.497      258.562       73.207        0.491        0.022       96.065        5.447        0.003      329.434       -3.834      868.225
12/10/2013  20:27:00        5.107       79.801      -12.239        5.597       11.488        4.925       31.321      131.983       24.257        0.337        0.009       79.965        2.035        0.001      329.477       -3.762      868.239
12/10/2013  20:28:00        1.809       71.371      -10.616        3.187       10.537        4.265       10.155      111.035       18.194        0.267        0.007       71.394        3.566        0.002      329.501       -3.722      868.264
12/10/2013  20:29:00       -5.315       38.232        5.711       17.327       24.118       16.009      300.219      581.665      256.275        0.133        0.057       38.600       12.158        0.099      329.359       -3.957      868.309
12/10/2013  20:30:00      -37.105       -4.585       -6.591        9.928       14.020        8.198       98.560      196.557       67.213        0.090        0.018       37.388        3.505        0.009      329.245       -4.141      868.355
12/10/2013  20:31:00      -33.084       -4.576       -6.880       13.058       15.219        7.606      170.500      231.633       57.850        0.081        0.023       33.399        4.198        0.016      329.272       -4.098      868.405
12/10/2013  20:32:00      -58.889       15.488       -9.881       16.463       14.937       10.464      271.040      223.124      109.488        0.220        0.030       60.892        8.219        0.018      329.329       -4.006      868.436
12/10/2013  20:33:00      -34.035        2.094       -5.397       14.075       19.443       11.416      198.100      378.040      130.335        0.095        0.035       34.099        7.095        0.043      329.285       -4.077      868.454
12/10/2013  20:34:00      -82.715        3.938       -6.167       26.673       18.628       14.761      711.447      347.016      217.895        0.409        0.064       82.809       15.190        0.034      329.252       -4.131      868.463
12/10/2013  20:35:00      -40.720       22.969       -5.605       19.609       27.749       13.364      384.496      770.029      178.599        0.177        0.067       46.752        9.557        0.042      329.370       -3.938      868.471
12/10/2013  20:36:00        6.398       49.981        7.461       21.418       29.404       17.309      458.711      864.616      299.611        0.211        0.081       50.389       17.023        0.114      329.512       -3.707      868.495
12/10/2013  20:37:00       28.771       90.398      -13.161       13.170       20.792       15.212      173.461      432.290      231.408        0.500        0.042       94.866       14.554        0.024      329.489       -3.743      868.514
12/10/2013  20:38:00       13.658       62.876       -9.859       12.606       14.315        8.431      158.912      204.906       71.085        0.234        0.022       64.342        5.751        0.008      329.429       -3.842      868.522
12/10/2013  20:39:00       14.484       60.226       -7.371       13.382       21.353       10.138      179.087      455.955      102.789        0.231        0.037       61.943        6.212        0.010      329.419       -3.859      868.509
12/10/2013  20:40:00      -27.939       25.945       -0.520       24.742       38.434       15.383      612.155     1477.210      236.626        0.189        0.116       38.128        8.179        0.046      329.356       -3.959      868.497
12/10/2013  20:41:00      -37.636      -15.472       -3.970       13.000       15.012        9.227      168.989      225.346       85.129        0.108        0.024       40.692        7.161        0.031      329.285       -4.076      868.476
12/10/2013  20:42:00      -54.625      -23.623      -13.758       10.667       11.205        8.960      113.787      125.562       80.281        0.203        0.016       59.514        7.196        0.015      329.346       -3.976      868.451
12/10/2013  20:43:00      -42.042      -26.422       -1.488       16.346       10.788       10.570      267.178      116.380      111.726        0.148        0.025       49.655        9.163        0.034      329.371       -3.937      868.427
12/10/2013  20:44:00      -73.461      -20.365       -5.566       28.104       20.720       12.509      789.863      429.326      156.468        0.361        0.069       76.232       14.377        0.036      329.291       -4.067      868.422
12/10/2013  20:45:00      -86.642      -12.551        0.189       41.590       22.610       17.430     1729.757      511.204      303.818        0.510        0.127       87.546       19.510        0.050      329.241       -4.148      868.428
12/10/2013  20:46:00      -79.436       -3.255       -4.350       35.030       21.225       16.424     1227.090      450.481      269.732        0.414        0.097       79.502       16.612        0.044      329.213       -4.193      868.444
12/10/2013  20:47:00      -81.457        2.534       -8.739       27.186       17.131       16.056      739.078      293.459      257.798        0.400        0.065       81.496       16.920        0.043      329.187       -4.237      868.464
12/10/2013  20:48:00      -41.459       -5.832       -4.679       23.989       16.122       10.228      575.455      259.904      104.609        0.136        0.047       41.867        7.757        0.034      329.245       -4.143      868.471
12/10/2013  20:49:00       -6.915        5.642       11.429       19.920       21.486       12.467      396.822      461.637      155.428        0.061        0.051        8.925       12.754        2.042      329.231       -4.165      868.483
12/10/2013  20:50:00      -23.811        7.522       -1.352       18.392       11.960       10.934      338.254      143.051      119.542        0.061        0.030       24.971        9.208        0.136      329.317       -4.026      868.495
12/10/2013  20:51:00      -43.096       -3.657       -1.971       17.714       18.029        9.079      313.775      325.061       82.430        0.130        0.036       43.251        7.893        0.033      329.360       -3.955      868.496
12/10/2013  20:52:00      -75.606      -19.815       -5.763       15.970        8.459        8.204      255.054       71.547       67.310        0.327        0.020       78.160        2.769        0.001      329.278       -4.090      868.495
12/10/2013  20:53:00     -102.583      -23.822      -12.668       15.796       15.565       11.745      249.511      242.270      137.938        0.594        0.031      105.313        6.338        0.004      329.308       -4.040      868.485
12/10/2013  20:54:00     -110.815      -19.626      -14.710       16.033       10.826        9.458      257.071      117.209       89.462        0.667        0.023      112.540        4.898        0.002      329.252       -4.131      868.468
12/10/2013  20:55:00      -87.350      -38.615      -12.814       22.109       19.825       13.433      488.796      393.039      180.445        0.517        0.053       95.505       10.189        0.011      329.325       -4.011      868.454
12/10/2013  20:56:00      -38.923      -43.188       -1.776       35.469       23.333       17.916     1258.040      544.427      320.992        0.275        0.106       58.140       17.761        0.093      329.317       -4.025      868.431
12/10/2013  20:57:00      -41.257      -27.502        0.153       41.248       24.252       20.555     1701.404      588.162      422.493        0.258        0.136       49.583       19.981        0.162      329.268       -4.104      868.413
12/10/2013  20:58:00      -91.238      -48.316       -5.387       39.883       17.841       11.598     1590.658      318.301      134.504        0.637        0.102      103.242       15.033        0.021      329.271       -4.099      868.401
12/10/2013  20:59:00      -85.578      -40.190       -5.863       42.961       19.415       11.206     1845.672      376.929      125.565        0.566        0.117       94.545       11.718        0.015      329.278       -4.087      868.398
12/10/2013  21:00:00      -57.463      -58.503       -2.304       39.743       25.207       19.040     1579.504      635.374      362.506        0.465        0.129       82.003       18.876        0.053      329.256       -4.124      868.412
12/10/2013  21:01:00      -71.422      -28.814       -3.460       35.866       24.632       14.129     1286.364      606.744      199.638        0.402        0.105       77.015        7.707        0.010      329.222       -4.180      868.438
12/10/2013  21:02:00      -32.262       -5.861       -3.748       20.188       12.103       12.306      407.558      146.477      151.447        0.090        0.035       32.790        7.768        0.056      329.119       -4.347      868.464
12/10/2013  21:03:00      -77.248      -30.097       -0.538       38.224       35.740       13.968     1461.095     1277.320      195.101        0.490        0.147       82.904       17.693        0.046      329.077       -4.417      868.469
12/10/2013  21:04:00     -103.245      -78.952        2.118       42.978       42.882       25.442     1847.132     1838.892      647.303        1.061        0.217      129.973       28.940        0.050      328.971       -4.590      868.467
12/10/2013  21:05:00     -106.687      -46.101       -3.309       32.668       34.953       18.713     1067.169     1221.746      350.169        0.808        0.132      116.221       11.818        0.010      328.938       -4.644      868.464
12/10/2013  21:06:00     -109.117      -28.140        0.949       40.612       32.674       16.799     1649.337     1067.587      282.216        0.785        0.150      112.687       12.676        0.013      328.930       -4.657      868.462
12/10/2013  21:07:00     -119.335      -13.006      -12.020       29.005       26.504       14.774      841.309      702.477      218.259        0.816        0.088      120.041       10.856        0.008      328.923       -4.669      868.476
12/10/2013  21:08:00     -136.250       31.207      -14.887       28.331       27.799       17.781      802.659      772.811      316.146        1.083        0.095      139.779       13.202        0.009      328.880       -4.739      868.495
12/10/2013  21:09:00     -135.592       38.935      -11.152       27.010       23.530       16.862      729.529      553.682      284.321        1.080        0.078      141.071       13.880        0.010      328.919       -4.675      868.530
12/10/2013  21:10:00     -127.416       19.040      -11.588       18.451       21.292       15.743      340.444      453.343      247.853        0.889        0.052      128.831        9.246        0.005      328.979       -4.577      868.548
12/10/2013  21:11:00      -78.800      -20.214      -11.374       17.384       30.874       17.817      302.211      953.227      317.459        0.416        0.079       81.351        8.270        0.010      328.955       -4.615      868.547
12/10/2013  21:12:00     -118.675      -24.940      -11.768       40.301       32.495       18.951     1624.133     1055.938      359.140        0.894        0.152      121.267       16.269        0.018      328.943       -4.634      868.535
12/10/2013  21:13:00     -102.534      -19.299      -10.141       21.537       19.273       14.336      463.857      371.437      205.517        0.601        0.052      104.335       10.616        0.010      328.988       -4.563      868.540
12/10/2013  21:14:00      -91.486      -37.142      -14.484       25.051       18.113       16.962      627.538      328.068      287.699        0.560        0.062       98.738       15.313        0.024      329.100       -4.379      868.559
12/10/2013  21:15:00      -56.271       -2.797       -5.176       28.252       26.552       13.408      798.196      705.027      179.771        0.244        0.084       56.340       11.858        0.044      328.998       -4.546      868.571
12/10/2013  21:16:00     -134.831        8.548      -19.825       23.146       13.879       13.026      535.723      192.623      169.688        0.977        0.045      135.101        6.273        0.002      328.971       -4.590      868.578
12/10/2013  21:17:00     -140.768       -4.756      -17.371       14.123       18.722       12.592      199.470      350.531      158.548        1.042        0.035      140.849        5.132        0.001      328.958       -4.610      868.577
12/10/2013  21:18:00     -117.036      -10.295      -11.283       25.868       25.419       18.865      669.149      646.138      355.870        0.780        0.084      117.488       14.405        0.015      328.908       -4.694      868.581
12/10/2013  21:19:00     -137.375       -5.749      -14.983       17.526       22.578       15.446      307.157      509.773      238.582        1.009        0.053      137.496        5.722        0.002      328.909       -4.691      868.573
12/10/2013  21:20:00     -160.703       -6.810      -19.444       34.850       25.985       19.390     1214.498      675.241      375.969        1.426        0.113      160.848       19.161        0.014      328.835       -4.812      868.566
12/10/2013  21:21:00     -159.298      -21.716      -19.614       26.230       27.589       18.254      687.987      761.175      333.190        1.401        0.089      160.771       15.427        0.009      328.785       -4.893      868.555
12/10/2013  21:22:00     -114.634      -29.502       -3.511       39.723       22.581       18.516     1577.914      509.910      342.859        0.823        0.122      118.369       19.997        0.029      328.770       -4.917      868.553
12/10/2013  21:23:00     -107.670      -55.814       -7.260       40.952       26.995       17.631     1677.101      728.750      310.858        0.874        0.136      121.276       11.675        0.009      328.846       -4.795      868.567
12/10/2013  21:24:00     -139.569      -49.499      -10.567       28.268       33.480       21.573      799.077     1120.903      465.387        1.221        0.119      148.087       19.020        0.016      328.888       -4.725      868.587
12/10/2013  21:25:00     -124.384      -24.572      -14.444       26.303       19.690       16.412      691.826      387.696      269.352        0.882        0.067      126.788       13.785        0.012      328.951       -4.624      868.609
12/10/2013  21:26:00     -116.031      -15.741      -10.839       36.510       20.862       15.541     1332.982      435.208      241.537        0.792        0.100      117.094       18.375        0.025      328.929       -4.659      868.641
12/10/2013  21:27:00     -114.388        4.685      -12.496       29.604       23.669       16.538      876.418      560.202      273.508        0.749        0.086      114.484       11.921        0.011      328.782       -4.898      868.676
12/10/2013  21:28:00     -115.269        5.775       -4.945       31.265       21.935       19.449      977.524      481.152      378.270        0.759        0.092      115.413       18.044        0.024      328.780       -4.901      868.675
12/10/2013  21:29:00      -95.340      -13.710       -5.934       29.804       16.445       19.732      888.290      270.426      389.334        0.543        0.077       96.320       19.765        0.042      328.766       -4.925      868.663
12/10/2013  21:30:00      -90.158      -28.073        0.749       27.448       20.289       15.058      753.378      411.657      226.744        0.515        0.070       94.428       10.010        0.011      328.796       -4.876      868.658
12/10/2013  21:31:00      -82.537      -27.751       -5.345       31.974       21.075       12.982     1022.334      444.164      168.525        0.462        0.082       87.077       12.675        0.021      328.857       -4.776      868.663
12/10/2013  21:32:00      -58.642      -35.002       -3.645       18.059       21.507       11.071      326.130      462.558      122.569        0.279        0.046       68.294        8.697        0.016      328.933       -4.653      868.677
12/10/2013  21:33:00      -50.290       -1.601        0.885       20.456       13.465       10.193      418.458      181.319      103.900        0.162        0.035       50.316        9.254        0.034      328.802       -4.867      868.699
12/10/2013  21:34:00      -62.725       -6.156       -2.167       21.612       14.989       12.602      467.087      224.661      158.810        0.241        0.043       63.027       11.385        0.033      328.783       -4.896      868.706
12/10/2013  21:35:00      -24.543      -15.569       -3.482       15.491       17.259        8.444      239.985      297.866       71.304        0.073        0.030       29.065        6.457        0.049      328.756       -4.938      868.715
12/10/2013  21:36:00      -10.650      -16.600       -3.265        9.317        9.823        8.997       86.814       96.493       80.940        0.033        0.013       19.723        3.714        0.035      328.844       -4.797      868.726
12/10/2013  21:37:00        3.085      -12.847       -2.714        9.319        6.875       12.724       86.848       47.269      161.904        0.024        0.015       13.212        4.836        0.134      328.818       -4.839      868.728
12/10/2013  21:38:00      -35.384       -2.616       -1.781       10.284       12.217        7.686      105.766      149.264       59.081        0.079        0.016       35.480        7.180        0.041      328.787       -4.890      868.725
12/10/2013  21:39:00      -42.438        0.290       -5.164        7.350        8.156        5.422       54.018       66.524       29.399        0.099        0.007       42.439        4.375        0.011      328.757       -4.939      868.719
12/10/2013  21:40:00      -39.083      -13.385       -9.127        9.159        9.443        7.585       83.895       89.174       57.534        0.101        0.012       41.311        4.352        0.011      328.683       -5.060      868.715
12/10/2013  21:41:00      -30.741      -13.749       -8.760        8.385        7.502        9.561       70.302       56.275       91.407        0.071        0.011       33.676        4.922        0.021      328.679       -5.066      868.721
12/10/2013  21:42:00      -19.691       -8.153       -5.375        9.221       11.270        7.077       85.021      127.006       50.087        0.037        0.013       21.312        4.801        0.051      328.737       -4.971      868.731
12/10/2013  21:43:00       -3.567       -0.268       -2.906        8.674        3.023        4.893       75.232        9.136       23.943        0.006        0.005        3.577        5.640        2.485      328.693       -5.042      868.743
12/10/2013  21:44:00        8.049       15.666        5.961        9.759       16.207       10.515       95.232      262.667      110.568        0.041        0.023       17.613        9.624        0.299      328.721       -4.998      868.755
12/10/2013  21:45:00       -9.331       17.159        0.676       13.354        9.809        6.776      178.339       96.210       45.915        0.035        0.016       19.532        4.616        0.056      328.615       -5.170      868.769
12/10/2013  21:46:00      -32.989      -10.175        0.460       16.219       12.113        7.932      263.043      146.714       62.916        0.083        0.024       34.523        9.753        0.080      328.446       -5.446      868.781
12/10/2013  21:47:00      -48.684      -15.815      -10.394       13.568       11.368        7.578      184.094      129.242       57.427        0.155        0.019       51.188        5.225        0.010      328.345       -5.612      868.802
12/10/2013  21:48:00      -76.373       -9.270      -13.395       13.249        9.079        8.075      175.545       82.436       65.199        0.321        0.016       76.934        5.251        0.005      328.103       -6.005      868.807
12/10/2013  21:49:00      -88.054      -13.951       -6.342       31.545       20.944       17.712      995.093      438.670      313.725        0.487        0.087       89.152       17.262        0.037      327.996       -6.179      868.815
12/10/2013  21:50:00     -101.014       -8.394      -11.554       35.577       25.088       17.437     1265.754      629.387      304.060        0.630        0.110      101.362       15.294        0.023      327.889       -6.354      868.818
12/10/2013  21:51:00     -117.832       -5.518      -12.205       35.558       24.419       22.951     1264.380      596.277      526.753        0.823        0.119      117.961       19.622        0.028      327.873       -6.379      868.820
12/10/2013  21:52:00      -95.933      -12.466      -10.353       41.763       25.179       17.729     1744.121      633.988      314.323        0.608        0.135       96.740        8.706        0.008      327.839       -6.437      868.836
12/10/2013  21:53:00      -62.981      -19.554        2.932       36.938       34.843       22.677     1364.400     1214.036      514.249        0.372        0.155       65.946       17.838        0.073      327.822       -6.463      868.859
12/10/2013  21:54:00      -49.873      -14.492        1.737       30.036       31.945       20.119      902.179     1020.503      404.769        0.251        0.116       51.936       15.605        0.090      327.825       -6.459      868.885
12/10/2013  21:55:00      -79.145      -26.677       -6.579       40.100       29.689       18.227     1607.984      881.433      332.216        0.492        0.141       83.520       12.598        0.023      327.768       -6.552      868.896
12/10/2013  21:56:00      -92.871      -46.631        1.355       31.918       35.261       22.066     1018.770     1243.339      486.913        0.677        0.137      103.920       16.565        0.025      327.751       -6.578      868.893
12/10/2013  21:57:00     -139.067      -28.404      -13.429       39.048       41.989       24.554     1524.742     1763.100      602.902        1.211        0.195      141.938       20.765        0.021      327.689       -6.680      868.893
12/10/2013  21:58:00      -93.934      -55.604      -16.155       42.031       38.398       23.533     1766.584     1474.394      553.811        0.798        0.190      109.158       19.872        0.033      327.742       -6.594      868.888
12/10/2013  21:59:00      -98.568      -32.858       -5.396       28.509       32.478       24.427      812.768     1054.815      596.685        0.664        0.123      103.900       10.116        0.009      327.771       -6.545      868.893
12/10/2013  22:00:00     -100.646      -20.338       -9.288       23.376       22.455       21.690      546.430      504.218      470.473        0.607        0.076      102.680        9.023        0.008      327.705       -6.652      868.914
12/10/2013  22:01:00      -84.636      -30.840      -18.984       39.683       37.082       17.197     1574.755     1375.104      295.729        0.586        0.162       90.080       16.858        0.035      327.767       -6.552      868.923
12/10/2013  22:02:00      -70.465      -25.704      -10.873       29.673       26.871       20.174      880.469      722.036      407.005        0.388        0.100       75.006       16.196        0.047      327.785       -6.525      868.939
12/10/2013  22:03:00      -62.268       -6.463       -4.052       43.638       22.187       16.850     1904.272      492.271      283.931        0.331        0.134       62.603       16.352        0.068      327.823       -6.461      868.960
12/10/2013  22:04:00      -88.516       -2.067       -8.919       25.347       21.771       18.508      642.465      473.973      342.553        0.469        0.073       88.540        7.992        0.008      327.763       -6.559      868.981
12/10/2013  22:05:00      -36.552       -8.538        5.461       27.162       19.181       12.914      737.768      367.927      166.781        0.136        0.064       37.536        7.455        0.039      327.725       -6.621      868.992
12/10/2013  22:06:00      -69.839      -29.328       -3.058       32.547       19.686       13.115     1059.305      387.519      172.014        0.368        0.081       75.747       14.363        0.036      327.782       -6.527      868.999
12/10/2013  22:07:00      -73.651      -15.837      -10.365       19.319       17.384       12.531      373.205      302.215      157.031        0.331        0.042       75.335        6.451        0.007      327.894       -6.347      869.012
12/10/2013  22:08:00      -37.041       14.924       -0.035       20.483       13.430        7.934      419.543      180.355       62.945        0.113        0.033       39.934        8.790        0.048      327.927       -6.291      869.010
12/10/2013  22:09:00       -3.748        5.958       -4.094        8.494        9.961        7.817       72.153       99.225       61.107        0.015        0.012        7.039        3.021        0.184      328.052       -6.087      868.987
12/10/2013  22:10:00      -21.617        2.254       -3.351       17.387        8.892        7.312      302.310       79.075       53.469        0.046        0.022       21.735        5.674        0.068      327.976       -6.211      868.970
12/10/2013  22:11:00      -42.299       10.948       -3.784        9.176        7.178        6.751       84.206       51.523       45.571        0.105        0.009       43.693        2.290        0.003      328.223       -5.810      868.972
12/10/2013  22:12:00      -25.160       14.079        6.414        7.887        8.634        9.066       62.201       74.549       82.194        0.055        0.011       28.831        6.849        0.056      328.227       -5.802      868.985
12/10/2013  22:13:00      -16.136       19.795        5.350       11.133        7.758        6.940      123.945       60.187       48.168        0.046        0.012       25.538        4.825        0.036      328.232       -5.794      868.998
12/10/2013  22:14:00      -41.063       -6.268       -2.213       12.235       13.355        7.207      149.691      178.353       51.935        0.106        0.019       41.539        6.400        0.024      328.229       -5.800      869.009
12/10/2013  22:15:00      -50.021      -21.412      -12.830       11.232        7.529        6.445      126.151       56.686       41.544        0.167        0.011       54.411        1.776        0.001      328.147       -5.934      869.023
12/10/2013  22:16:00      -57.594       -6.482       -6.950       14.546       17.396        6.681      211.591      302.621       44.629        0.198        0.028       57.958        5.761        0.010      328.136       -5.951      869.028
12/10/2013  22:17:00      -67.695        4.119       -5.573       11.969       11.863        8.695      143.252      140.724       75.600        0.250        0.018       67.821        7.544        0.012      328.117       -5.982      869.030
12/10/2013  22:18:00      -69.434       12.830       -6.430       10.628        9.215        6.404      112.960       84.918       41.009        0.263        0.012       70.609        2.637        0.001      328.064       -6.069      869.039
12/10/2013  22:19:00      -64.741       -1.585       -1.005       12.526        7.152        6.856      156.905       51.152       47.003        0.222        0.013       64.760        3.205        0.002      328.302       -5.680      869.046
12/10/2013  22:20:00      -64.797      -21.435      -10.026        8.867       11.420        9.110       78.619      130.413       82.997        0.253        0.015       68.250        4.716        0.005      328.074       -6.052      869.044
12/10/2013  22:21:00      -67.175      -16.686      -12.152       11.688       10.149        9.910      136.604      103.002       98.212        0.264        0.017       69.216        5.235        0.006      327.921       -6.302      869.041
12/10/2013  22:22:00      -68.560       -7.956      -15.292        7.449       10.745        7.775       55.481      115.450       60.456        0.261        0.012       69.020        5.869        0.007      327.824       -6.460      869.050
12/10/2013  22:23:00      -73.006       -7.332      -12.313       14.494       14.336        9.986      210.090      205.517       99.712        0.303        0.026       73.373        6.697        0.008      327.729       -6.615      869.069
12/10/2013  22:24:00      -77.762       -8.856      -13.528       14.427       11.147       10.609      208.127      124.247      112.554        0.338        0.022       78.265        6.419        0.007      327.666       -6.716      869.101
12/10/2013  22:25:00      -81.744      -14.121       -9.143       14.451       12.855       12.914      208.820      165.259      166.778        0.375        0.027       82.955        8.896        0.011      327.589       -6.842      869.131
12/10/2013  22:26:00     -117.512      -10.196      -15.002       19.643       14.453       12.732      385.835      208.879      162.108        0.745        0.038      117.953        6.639        0.003      327.527       -6.944      869.152
12/10/2013  22:27:00     -101.985      -14.124      -16.373       21.112       13.519       10.696      445.717      182.773      114.408        0.581        0.037      102.958        5.772        0.003      327.543       -6.915      869.158
12/10/2013  22:28:00      -82.916      -10.462      -13.063       14.599       15.982       11.651      213.118      255.413      135.757        0.388        0.030       83.574        4.984        0.004      327.570       -6.872      869.169
12/10/2013  22:29:00      -75.055       -8.150      -10.643       12.094       11.339        9.745      146.273      128.571       94.967        0.309        0.018       75.496        3.912        0.003      327.664       -6.721      869.170
12/10/2013  22:30:00      -63.531      -10.014      -10.857        8.616        5.705        6.428       74.229       32.550       41.323        0.220        0.007       64.315        3.207        0.002      327.713       -6.640      869.170
12/10/2013  22:31:00      -60.201      -11.680      -10.572        9.514        7.974        9.877       90.514       63.590       97.550        0.206        0.013       61.323        3.745        0.004      327.710       -6.644      869.173
12/10/2013  22:32:00      -62.245      -24.555       -8.353        9.570       10.050        7.384       91.584      100.999       54.527        0.240        0.012       66.913        0.654        0.000      327.681       -6.691      869.179
12/10/2013  22:33:00      -84.329      -14.547       -7.190       12.184       10.805        8.792      148.439      116.738       77.303        0.386        0.017       85.574        4.896        0.003      327.598       -6.827      869.180
12/10/2013  22:34:00      -80.650      -13.271       -9.039       14.172       12.014       12.125      200.831      144.345      147.004        0.363        0.025       81.735        5.226        0.004      327.443       -7.079      869.194
12/10/2013  22:35:00      -81.998        2.286      -10.088       20.813       16.559       11.940      433.161      274.186      142.560        0.384        0.042       82.030        8.128        0.010      327.342       -7.243      869.204
12/10/2013  22:36:00      -59.747      -10.062       -5.896       12.967       17.980       10.887      168.153      323.266      118.526        0.216        0.030       60.589        4.952        0.007      327.390       -7.165      869.211
12/10/2013  22:37:00      -57.837      -13.382      -15.458        8.876       12.695        7.328       78.784      161.170       53.702        0.203        0.015       59.365        5.622        0.009      327.389       -7.167      869.204
12/10/2013  22:38:00      -64.677      -19.763      -11.460        8.578       15.494        7.707       73.585      240.067       59.392        0.254        0.019       67.629        2.615        0.001      327.534       -6.932      869.187
12/10/2013  22:39:00      -65.741      -26.774      -10.727       11.670       11.479       10.349      136.190      131.778      107.099        0.276        0.019       70.984        5.721        0.006      327.425       -7.109      869.174
12/10/2013  22:40:00      -80.521      -13.654      -12.533       19.064       15.132       16.963      363.427      228.980      287.741        0.385        0.044       81.670        7.605        0.009      327.394       -7.159      869.178
12/10/2013  22:41:00     -129.555       -1.254      -18.602       27.811       14.951       16.363      773.426      223.539      267.732        0.920        0.063      129.561        9.003        0.005      327.248       -7.396      869.174
12/10/2013  22:42:00     -129.879      -12.441      -17.881       16.529       13.407       15.055      273.220      179.749      226.647        0.901        0.034      130.473        5.597        0.002      327.238       -7.411      869.176
12/10/2013  22:43:00     -115.276      -17.868      -18.400       22.861       20.255       14.493      522.634      410.278      210.040        0.754        0.057      116.652        5.911        0.003      327.274       -7.355      869.178
12/10/2013  22:44:00     -115.769      -17.188      -17.093       13.692       13.781       12.558      187.468      189.912      157.691        0.726        0.027      117.038        3.371        0.001      327.282       -7.342      869.188
12/10/2013  22:45:00      -98.329       -9.985      -16.202       17.714       14.479       14.290      313.789      209.628      204.213        0.538        0.036       98.834        8.977        0.008      327.268       -7.363      869.185
12/10/2013  22:46:00      -91.514      -25.391      -12.622       17.497       14.469       12.146      306.159      209.355      147.528        0.492        0.033       94.971        8.285        0.008      327.302       -7.309      869.175
12/10/2013  22:47:00      -82.297       -6.699      -13.092       13.561       14.760       10.307      183.906      217.843      106.240        0.375        0.025       82.570        6.067        0.005      327.214       -7.451      869.163
12/10/2013  22:48:00      -80.792      -11.931      -10.965       12.334       10.011        9.917      152.120      100.228       98.355        0.357        0.018       81.668        5.838        0.005      327.227       -7.430      869.156
12/10/2013  22:49:00      -83.627      -11.139       -9.418       15.112       11.567        9.533      228.358      133.801       90.881        0.383        0.023       84.366        5.127        0.004      327.211       -7.456      869.156
12/10/2013  22:50:00      -91.077      -19.007      -14.645       17.144       11.977       10.824      293.911      143.442      117.157        0.471        0.028       93.039        5.456        0.003      327.184       -7.501      869.172
12/10/2013  22:51:00      -92.275      -20.701      -14.358       13.462       12.916       12.778      181.223      166.833      163.267        0.483        0.026       94.568        6.486        0.005      327.214       -7.450      869.194
12/10/2013  22:52:00     -101.862      -10.066      -13.509       18.830       17.141       14.150      354.567      293.818      200.211        0.575        0.042      102.358        9.739        0.009      327.177       -7.511      869.213
12/10/2013  22:53:00      -93.774      -11.970      -18.464       12.356       10.618       10.258      152.664      112.752      105.230        0.482        0.019       94.535        3.471        0.001      327.178       -7.510      869.230
12/10/2013  22:54:00      -65.757      -19.691      -13.483       29.264       16.225       10.876      856.403      263.248      118.281        0.307        0.062       68.641        6.626        0.009      327.247       -7.397      869.239
12/10/2013  22:55:00      -56.407      -22.970      -16.107       12.422       11.971       11.146      154.313      143.303      124.225        0.220        0.021       60.905        5.277        0.008      327.249       -7.393      869.246
12/10/2013  22:56:00      -60.505      -25.765       -5.107       11.693       11.253        9.101      136.731      126.619       82.834        0.235        0.017       65.763        5.445        0.007      327.281       -7.342      869.248
12/10/2013  22:57:00      -35.392      -29.047       -6.813        8.399       10.218        8.751       70.537      104.411       76.587        0.120        0.013       45.786        3.248        0.005      327.354       -7.224      869.242
12/10/2013  22:58:00      -13.710      -15.899       -1.020       12.105        8.086        8.603      146.521       65.376       74.020        0.036        0.014       20.994        8.302        0.156      327.539       -6.923      869.245
12/10/2013  22:59:00      -22.543      -15.291       -4.569       23.257        9.016       13.521      540.877       81.296      182.807        0.078        0.040       27.240       15.920        0.342      327.391       -7.164      869.243
12/10/2013  23:00:00      -42.481      -17.842       -7.482       11.874       14.415       12.378      140.983      207.781      153.214        0.134        0.025       46.076        8.256        0.032      327.318       -7.282      869.230
12/10/2013  23:01:00      -57.619       -4.480      -10.364       10.067        8.902        7.880      101.351       79.248       62.088        0.184        0.012       57.793        6.216        0.012      327.180       -7.505      869.227
12/10/2013  23:02:00      -84.471       -9.797      -13.770       14.287       14.784       10.529      204.130      218.573      110.864        0.398        0.027       85.038        5.131        0.004      327.081       -7.667      869.239
12/10/2013  23:03:00      -93.783      -10.406      -12.462       14.305       15.210       11.379      204.626      231.342      129.477        0.481        0.028       94.359        6.856        0.005      327.054       -7.711      869.245
12/10/2013  23:04:00      -80.989       -2.803       -6.803       26.454       21.931       18.630      699.788      480.957      347.060        0.407        0.076       81.037       17.066        0.044      326.993       -7.809      869.247
12/10/2013  23:05:00      -78.215       -9.145      -10.609       20.695       18.328       14.934      428.267      335.928      223.024        0.365        0.049       78.748        9.807        0.016      326.995       -7.806      869.259
12/10/2013  23:06:00      -65.559      -11.370       -6.759       11.803       16.627       15.050      139.318      276.471      226.509        0.256        0.032       66.538        9.057        0.019      326.998       -7.800      869.277
12/10/2013  23:07:00      -71.050      -25.337      -11.330       13.440       11.694        9.798      180.643      136.746       95.997        0.312        0.021       75.432        4.500        0.004      327.006       -7.789      869.290
12/10/2013  23:08:00      -60.279      -23.651      -14.686       17.929       20.669       12.578      321.437      427.221      158.214        0.266        0.045       64.753       10.534        0.026      327.031       -7.748      869.294
12/10/2013  23:09:00      -66.000      -43.570      -13.644       16.246       17.197       12.281      263.924      295.736      150.821        0.358        0.036       79.085        6.934        0.008      327.013       -7.778      869.290
12/10/2013  23:10:00      -99.264      -19.111      -13.004       19.193       16.547       14.458      368.387      273.817      209.031        0.562        0.043      101.087        5.501        0.003      326.931       -7.909      869.272
12/10/2013  23:11:00      -84.888      -10.009      -16.414       22.426       14.920       12.217      502.920      222.604      149.252        0.423        0.044       85.476        8.636        0.010      326.966       -7.854      869.250
12/10/2013  23:12:00      -67.772      -14.366       -6.729       18.934       14.770       15.258      358.505      218.143      232.802        0.283        0.040       69.278        9.843        0.020      327.049       -7.720      869.230
12/10/2013  23:13:00      -96.991       -3.852      -17.832       15.210       12.525       10.402      231.344      156.863      108.212        0.512        0.025       97.067        4.659        0.002      327.008       -7.786      869.215
12/10/2013  23:14:00      -89.763      -23.581      -17.615       14.960       18.592       14.108      223.804      345.672      199.045        0.485        0.038       92.809        9.198        0.010      327.002       -7.794      869.218
12/10/2013  23:15:00      -75.031      -28.763      -11.290       18.158       15.680       13.326      329.697      245.848      177.580        0.367        0.038       80.355        6.344        0.006      326.956       -7.870      869.229
12/10/2013  23:16:00     -105.813      -10.612      -16.675       49.929       17.551       14.625     2492.927      308.021      213.884        0.730        0.151      106.344       20.733        0.038      326.977       -7.835      869.241
12/10/2013  23:17:00     -129.669      -21.600      -17.686       41.021       21.067       15.979     1682.742      443.799      255.334        0.999        0.119      131.456       15.110        0.013      326.884       -7.988      869.243
12/10/2013  23:18:00     -123.912      -21.841      -15.583       25.392       18.402       11.787      644.750      338.630      138.927        0.860        0.056      125.822        9.264        0.005      326.950       -7.879      869.246
12/10/2013  23:19:00     -113.604      -25.557      -16.649       22.138       16.503       13.058      490.070      272.349      170.521        0.738        0.047      116.443        5.810        0.002      326.927       -7.917      869.238
12/10/2013  23:20:00      -84.279      -10.287      -10.196       28.645       27.726       14.870      820.517      768.736      221.119        0.456        0.091       84.904       13.164        0.024      326.940       -7.896      869.234
12/10/2013  23:21:00      -79.577      -21.903      -15.356       27.118       18.315       12.663      735.363      335.453      160.346        0.414        0.062       82.536       12.469        0.023      326.997       -7.803      869.244
12/10/2013  23:22:00      -80.682      -26.374       -8.550       17.274       16.375       12.594      298.397      268.147      158.608        0.400        0.036       84.883        7.278        0.007      327.004       -7.791      869.227
12/10/2013  23:23:00      -73.853      -27.301       -5.734       13.936       17.162        9.517      194.201      294.549       90.580        0.341        0.029       78.738        4.500        0.003      327.086       -7.659      869.209
12/10/2013  23:24:00      -85.524      -29.442      -17.434       16.877       14.148       13.085      284.847      200.161      171.206        0.457        0.033       90.449       10.094        0.012      327.127       -7.593      869.208
12/10/2013  23:25:00      -98.844      -14.065      -14.309       14.789       14.725       11.508      218.706      216.811      132.444        0.537        0.028       99.839        8.028        0.006      327.133       -7.582      869.217
12/10/2013  23:26:00      -96.902       -5.403      -11.270       19.378       11.924       10.626      375.500      142.193      112.908        0.509        0.032       97.053       11.208        0.013      327.148       -7.557      869.229
12/10/2013  23:27:00     -105.634        2.996      -13.853       11.692       10.640       10.089      136.710      113.205      101.792        0.586        0.018      105.677        3.676        0.001      327.099       -7.638      869.242
12/10/2013  23:28:00      -69.756        2.181      -11.101       23.096       13.461       15.146      533.441      181.191      229.401        0.297        0.047       69.791       12.881        0.034      327.154       -7.548      869.256
12/10/2013  23:29:00      -49.687       -5.227       -7.693       18.201       16.121       10.446      331.287      259.888      109.127        0.163        0.035       49.961       10.174        0.041      327.242       -7.406      869.267
12/10/2013  23:30:00      -39.442       -0.219       -1.285       11.211       11.050        8.786      125.693      122.103       77.197        0.094        0.016       39.442        5.795        0.022      327.293       -7.323      869.251
12/10/2013  23:31:00      -28.296       -7.315      -13.927        6.344        9.376        6.803       40.250       87.908       46.280        0.061        0.009       29.227        4.615        0.025      327.386       -7.172      869.229
12/10/2013  23:32:00      -28.426        5.138        3.616       11.399       12.791        8.102      129.947      163.605       65.635        0.060        0.018       28.886        2.594        0.008      327.461       -7.050      869.201
12/10/2013  23:33:00       18.713       49.044      -12.461       11.437       14.347        9.247      130.799      205.825       85.510        0.167        0.021       52.493        9.501        0.033      327.928       -6.290      869.169
12/10/2013  23:34:00      -17.828       -1.223        2.678       18.997        9.520       10.061      360.901       90.638      101.226        0.044        0.028       17.870        2.700        0.023      327.708       -6.648      869.133
12/10/2013  23:35:00      -23.338      -11.699        0.415        6.143        9.519        6.045       37.732       90.618       36.536        0.042        0.008       26.106        5.372        0.042      327.466       -7.041      869.097
12/10/2013  23:36:00       17.326       28.753       -3.153       26.442       33.563       12.423      699.179     1126.508      154.319        0.156        0.099       33.570       12.663        0.142      327.716       -6.635      869.083
12/10/2013  23:37:00       11.824       19.045        9.216       24.516       16.221       18.466      601.011      263.132      341.008        0.090        0.060       22.416       11.669        0.271      327.829       -6.451      869.082
12/10/2013  23:38:00        2.618       14.858       17.277       27.185       13.730       15.508      739.002      188.525      240.506        0.085        0.058       15.087        7.941        0.277      327.761       -6.562      869.086
12/10/2013  23:39:00       -7.054       69.614       -6.295       33.706       28.641       14.232     1136.116      820.324      202.561        0.355        0.108       69.971        6.058        0.007      327.943       -6.266      869.073
12/10/2013  23:40:00        5.257       45.022        5.880       37.903       34.403       21.644     1436.611     1183.536      468.446        0.259        0.154       45.328       24.002        0.280      327.770       -6.548      869.059
12/10/2013  23:41:00       20.706       64.849       -8.274       20.587       19.877       14.267      423.816      395.092      203.558        0.286        0.051       68.074       13.589        0.040      327.809       -6.484      869.056
12/10/2013  23:42:00       -6.739       17.374        0.637       27.175       23.916       13.204      738.454      571.958      174.335        0.092        0.074       18.635        9.898        0.282      327.685       -6.686      869.062
12/10/2013  23:43:00      -25.164       -4.365        0.164       14.544       18.601        9.014      211.514      345.983       81.253        0.065        0.032       25.540        8.536        0.112      327.389       -7.167      869.071
12/10/2013  23:44:00      -26.228       -0.751       -8.157       34.439       23.266       14.368     1186.047      541.308      206.447        0.134        0.097       26.239        9.694        0.136      327.361       -7.212      869.078
12/10/2013  23:45:00      -68.500       -4.690       -6.977       13.548       12.324       12.966      183.536      151.870      168.118        0.263        0.025       68.661        8.701        0.016      326.870       -8.009      869.090
12/10/2013  23:46:00      -70.352       -6.206      -23.893       23.675       21.664       15.347      560.491      469.310      235.531        0.341        0.063       70.625       12.159        0.030      326.831       -8.073      869.096
12/10/2013  23:47:00      -77.130      -15.751      -22.673       23.554       19.646       13.762      554.776      385.979      189.382        0.392        0.057       78.722       10.413        0.017      326.839       -8.059      869.093
12/10/2013  23:48:00      -72.078       13.735      -13.194       33.633       22.209       16.601     1131.169      493.248      275.590        0.373        0.095       73.375       14.722        0.040      326.772       -8.168      869.090
12/10/2013  23:49:00      -85.187       -3.834      -13.613       27.828       29.231       17.682      774.392      854.425      312.650        0.470        0.097       85.273        9.040        0.011      326.753       -8.199      869.084
12/10/2013  23:50:00      -67.691        6.395      -10.811       24.447       19.682       17.908      597.646      387.375      320.691        0.302        0.065       67.992        8.289        0.015      326.828       -8.077      869.087
12/10/2013  23:51:00      -62.304        0.574      -16.872       20.471       18.050       16.803      419.074      325.788      282.327        0.260        0.051       62.307        4.743        0.006      326.793       -8.133      869.078
12/10/2013  23:52:00      -65.119       -7.372      -16.197       17.647       18.050       15.266      311.404      325.798      233.051        0.271        0.044       65.535       11.104        0.029      326.865       -8.016      869.064
12/10/2013  23:53:00      -92.146       -9.493       -1.292       14.410       16.829       14.511      207.658      283.212      210.565        0.464        0.035       92.634        7.255        0.006      326.992       -7.809      869.056
12/10/2013  23:54:00      -53.589        4.220       -0.064       30.137       22.386       20.695      908.224      501.146      428.280        0.236        0.092       53.755       17.634        0.108      327.005       -7.790      869.054
12/10/2013  23:55:00       18.543       11.369       -2.197       48.883       35.200       15.303     2389.507     1239.017      234.195        0.217        0.193       21.750       19.935        0.840      327.787       -6.520      869.051
12/10/2013  23:56:00      -50.338       -0.525       -5.698       12.149        9.210       12.160      147.604       84.827      147.877        0.147        0.019       50.341        6.320        0.016      327.004       -7.792      869.050
12/10/2013  23:57:00      -25.416       -6.726       -5.405       37.795       15.962       16.340     1428.497      254.794      266.982        0.133        0.098       26.291        8.496        0.104      327.372       -7.193      869.067
12/10/2013  23:58:00      -41.808       -6.383       -4.023       17.794       12.285       12.428      316.636      150.921      154.457        0.121        0.031       42.292        5.952        0.020      327.200       -7.473      869.081
12/10/2013  23:59:00      -51.992      -12.118       -7.636        8.655       10.748        8.768       74.903      115.516       76.870        0.159        0.013       53.385        5.542        0.011      326.890       -7.977      869.086
